GFSSGP_sfc_30mbdewp_000.txt.gz
Dewpoint
33 32 34 28 21 21 18 18 35 38 42 48 49 49 50 50 48 47 64 66 68 69 69 69 69 70 70 70 70 69 69 68 67 67 67 66 65 64 64 65 65 64 63 61 61 61 62 63 64
34 33 31 24 20 17 25 30 39 42 43 46 47 49 52 54 60 62 63 67 68 69 69 69 70 70 70 70 70 69 68 68 68 67 67 66 64 64 64 64 64 62 61 60 61 61 62 63 63
35 34 20 20 19 15 25 30 33 40 41 43 45 47 47 54 60 61 65 67 68 69 69 69 70 70 70 70 70 70 70 69 69 67 65 65 64 64 63 62 61 60 60 59 59 59 60 62 62
29 26 17 15 15 15 26 31 36 42 45 46 45 45 46 52 58 65 67 69 68 69 69 69 70 70 70 70 69 69 69 68 67 65 65 64 63 62 62 61 60 59 59 58 58 58 58 59 60
35 22 14 13 14 30 32 33 35 36 46 45 44 44 47 58 65 67 68 68 67 68 70 70 70 70 70 69 69 68 68 68 67 67 65 64 63 62 61 60 59 59 58 58 58 57 57 57 58
21 18 14 12 25 27 25 34 35 46 45 44 44 45 46 56 65 66 68 68 68 67 69 70 70 70 70 69 68 68 67 66 67 66 65 63 63 62 61 60 59 58 57 57 57 56 56 56 56
19 17 14 22 29 25 19 24 32 41 45 46 45 43 45 53 62 65 67 68 69 69 69 69 69 69 68 67 66 66 66 66 66 66 64 63 61 61 60 59 58 58 57 56 55 56 56 56 55
20 17 13 22 27 15 14 20 25 36 42 47 46 43 42 44 56 61 65 66 66 66 66 66 66 66 66 66 65 65 64 64 64 64 63 62 61 60 60 59 58 58 57 56 56 56 56 55 55
19 16 12 11 17 12 9 21 19 28 38 39 40 45 43 44 49 54 56 59 60 62 63 63 63 63 64 64 64 64 63 62 62 62 62 62 61 60 59 60 57 59 58 58 58 58 57 55 55
19 11 10 11 15 10 7 13 16 28 39 45 46 46 44 42 46 47 49 53 56 58 60 59 60 60 62 62 63 62 62 62 62 62 62 62 62 62 59 60 60 60 60 59 60 60 60 59 56
11 5 2 7 11 5 5 6 13 26 37 45 46 44 42 40 41 45 44 48 52 56 58 59 60 60 59 59 60 60 62 61 62 62 62 62 62 60 61 59 59 60 60 60 60 60 59 58 56
4 4 1 4 4 4 4 5 11 19 25 46 46 44 43 41 40 40 40 43 49 54 55 57 59 59 57 58 60 59 60 61 62 62 60 58 58 54 54 55 57 56 55 56 58 58 57 55 55
3 2 2 7 12 7 2 0 3 12 24 46 46 46 45 44 43 42 40 41 48 53 55 55 56 55 54 54 57 57 58 60 61 60 58 55 55 51 52 51 50 50 49 50 49 52 51 48 49
6 3 2 4 11 11 6 9 12 11 27 46 46 46 46 46 44 43 41 39 47 54 55 57 57 57 54 54 55 54 55 55 57 57 54 53 52 53 52 51 50 50 51 51 49 48 48 48 49
6 3 6 4 13 11 14 15 10 13 23 45 46 47 47 47 46 44 43 40 45 55 57 57 58 57 54 54 55 53 47 50 52 50 49 49 50 51 50 47 47 48 49 48 48 48 49 48 47
9 9 6 12 16 16 13 11 15 12 14 29 41 44 44 45 45 44 44 43 48 57 57 59 55 56 54 53 52 47 49 47 48 49 46 47 47 47 45 42 42 45 45 45 44 45 45 44 45
13 7 11 13 17 17 15 15 16 14 11 13 19 31 34 41 44 44 42 43 57 57 58 57 58 57 54 52 51 48 47 46 45 43 42 45 44 43 41 41 41 43 44 42 43 41 43 41 41
8 11 13 13 15 19 16 17 19 22 30 36 39 42 44 43 44 45 49 51 53 56 55 55 56 56 51 45 45 44 43 44 41 40 41 42 41 41 40 41 42 44 42 39 39 38 39 40 42
13 15 15 16 16 14 22 25 27 37 39 39 40 43 43 41 42 45 46 46 46 47 46 47 49 49 41 43 42 42 40 40 40 41 42 41 42 42 41 42 43 42 40 39 38 40 39 37 39
19 18 18 18 18 15 24 26 31 35 36 37 40 41 42 41 41 42 42 43 42 42 42 41 41 42 43 44 45 43 41 41 42 43 41 43 41 40 39 38 39 40 38 37 38 40 38 39 40
26 21 21 19 20 21 24 25 29 30 32 33 36 40 41 41 41 41 41 39 38 37 38 37 38 39 40 40 39 40 41 42 42 38 40 38 37 38 37 37 38 39 39 37 37 39 39 38 41
24 27 24 21 17 12 19 21 25 30 32 35 38 39 41 41 42 41 40 40 39 38 38 37 37 37 38 38 38 39 41 39 40 40 38 35 36 36 36 36 38 39 38 38 39 40 40 39 38
25 27 24 23 22 22 20 21 26 29 30 32 36 38 40 40 41 41 41 40 40 39 38 38 37 37 37 37 38 39 37 35 39 38 34 33 35 35 36 37 37 36 38 37 39 40 39 40 39
25 27 28 27 26 21 26 24 26 28 29 32 34 37 38 39 40 41 41 41 39 39 37 36 35 36 38 37 37 38 35 35 36 33 31 31 34 34 36 36 35 35 37 36 37 36 36 36 36
26 28 24 23 22 21 28 27 29 30 32 34 35 36 37 39 40 40 40 39 39 38 38 38 38 37 37 38 37 37 36 34 31 31 30 29 32 34 36 36 36 36 36 35 35 34 33 35 35
25 24 22 21 19 19 25 25 27 31 34 36 36 36 36 37 39 40 40 39 39 40 40 39 35 34 36 34 34 35 36 35 34 33 32 32 35 35 37 36 34 33 33 33 34 33 33 33 32
26 21 24 24 28 22 24 26 27 29 29 30 31 33 36 36 37 38 38 39 39 38 38 37 34 31 31 33 34 35 36 36 36 36 35 36 35 35 35 35 32 32 32 33 33 32 32 32 31
21 24 23 22 15 15 22 24 25 27 28 28 31 33 36 37 36 36 37 38 37 36 36 37 37 34 33 34 35 35 35 35 37 36 35 33 33 34 33 31 30 30 30 31 32 31 31 31 32
25 25 26 25 23 16 19 20 28 30 29 31 33 35 35 36 36 36 36 36 33 32 33 34 35 37 36 35 36 35 35 35 35 35 33 32 32 32 31 30 28 26 25 25 26 28 31 32 27
26 26 25 17 25 27 25 22 29 29 31 34 34 34 36 37 37 36 35 33 31 31 29 25 30 30 30 34 36 37 37 35 33 32 30 30 30 30 28 27 25 22 22 22 23 26 25 22 21

GFSSGP_sfc_30mbdewp_003.txt.gz
Dewpoint
36 33 34 26 20 21 16 15 39 37 46 50 51 49 52 55 51 47 63 66 68 69 69 70 70 70 70 69 69 69 68 67 66 66 66 65 64 64 64 64 63 61 60 59 60 60 61 61 62
31 33 29 25 20 11 18 27 41 44 47 47 48 51 54 55 61 63 63 68 68 69 69 70 70 70 70 69 69 69 68 67 67 66 66 65 64 64 63 63 62 60 60 59 59 59 60 61 62
33 33 20 19 19 14 19 38 42 46 47 44 45 45 50 57 62 62 66 68 69 68 69 70 70 70 70 70 69 69 69 68 68 67 66 64 64 63 61 61 60 59 58 58 57 58 58 59 60
26 26 17 15 14 16 20 31 41 41 44 44 47 46 49 58 61 64 67 68 68 69 69 69 70 70 70 70 69 69 69 68 66 66 65 64 63 62 60 60 59 58 57 57 57 56 57 57 58
31 21 13 11 12 16 20 36 41 43 44 45 45 45 50 63 65 67 68 68 68 69 70 70 70 70 70 69 69 69 68 66 66 66 64 63 63 62 61 59 58 58 57 57 56 56 56 56 56
20 18 12 10 18 21 22 38 46 45 45 46 48 49 50 65 65 67 67 66 66 68 70 70 70 69 69 69 68 68 67 67 67 66 64 63 63 62 60 58 57 57 56 56 56 57 56 56 56
18 15 12 12 26 23 21 35 44 43 44 44 46 46 54 62 66 67 66 66 66 67 67 69 69 70 69 68 67 66 66 66 66 65 65 63 62 61 60 58 58 57 56 56 56 57 56 56 55
20 16 13 23 20 25 20 27 40 45 45 46 45 46 55 58 65 67 66 66 66 67 67 67 68 68 67 66 66 65 65 65 65 65 64 62 61 61 60 59 59 59 57 57 57 57 56 55 55
19 16 12 11 12 10 17 24 26 39 45 43 44 45 55 59 63 64 64 64 64 65 66 66 65 65 65 64 65 65 64 63 63 63 63 62 61 60 60 60 59 59 58 58 58 58 58 57 56
21 15 12 12 12 12 15 32 37 43 43 45 43 44 54 55 60 59 60 60 61 62 63 63 63 63 63 63 63 62 62 62 62 62 62 61 61 61 61 60 60 61 61 60 60 61 60 60 57
17 10 3 6 11 14 17 21 24 41 42 44 42 44 51 54 55 54 54 55 55 58 60 60 60 61 61 60 61 61 61 61 61 61 61 61 62 61 61 61 59 59 60 60 60 60 59 58 57
11 8 2 6 7 2 6 9 29 28 40 46 43 44 46 48 49 50 51 53 54 57 57 58 59 59 58 59 59 59 60 61 61 61 62 60 58 57 56 56 55 53 53 52 56 57 57 56 55
2 3 6 8 5 4 3 6 13 17 37 46 43 41 43 44 45 46 48 49 52 56 56 58 59 57 57 58 58 58 59 60 61 61 60 58 56 52 52 51 51 50 51 50 50 49 49 48 48
3 3 6 11 10 4 2 10 13 18 47 45 43 41 41 41 42 42 42 45 50 54 55 56 58 57 55 55 57 57 58 59 60 60 58 56 54 52 52 50 48 48 50 49 49 49 49 49 48
5 1 5 6 11 10 14 13 12 21 46 45 44 43 44 43 43 41 41 41 49 53 54 55 57 57 55 54 55 55 56 55 57 55 50 50 52 51 47 45 43 45 47 46 45 46 46 43 43
9 9 7 9 15 16 11 5 15 23 46 45 46 46 46 45 45 43 44 41 45 53 54 58 60 59 58 56 55 51 50 50 50 48 48 47 45 45 44 41 40 43 45 44 42 43 38 40 41
11 7 9 12 15 16 14 15 18 17 39 38 41 42 42 44 45 47 46 47 48 55 58 59 60 60 60 55 51 50 47 44 43 43 45 42 41 41 40 40 42 44 42 40 40 38 39 39 38
4 7 10 11 15 18 15 22 31 33 31 38 41 41 42 44 46 46 49 52 53 53 55 57 56 56 51 47 46 45 45 43 44 42 41 41 41 41 41 41 42 42 38 37 38 38 39 39 39
13 13 12 15 17 25 29 33 37 39 41 41 40 41 41 42 43 44 45 45 46 47 50 52 47 45 45 46 44 43 43 43 43 42 42 40 39 38 38 39 38 38 36 37 38 38 37 36 40
18 17 18 20 26 29 31 32 34 36 39 42 40 40 40 40 41 42 41 40 40 42 43 44 43 42 43 44 45 46 44 43 43 40 38 38 38 37 36 37 38 38 36 36 37 38 37 38 41
25 20 19 19 27 29 30 29 29 32 36 39 40 41 40 41 40 40 38 37 37 37 37 37 38 40 41 43 44 42 42 42 39 38 37 36 37 36 36 37 38 38 37 36 38 39 39 38 39
22 26 22 23 24 22 25 25 27 31 35 38 39 40 40 41 40 38 37 36 36 35 35 35 36 36 37 38 38 37 38 37 39 39 34 34 37 36 37 37 37 36 37 37 39 39 38 39 37
25 26 23 23 20 20 24 24 27 31 34 36 37 39 40 40 39 38 38 38 38 37 36 36 36 36 37 37 38 39 37 36 39 34 31 32 36 36 36 35 35 35 36 35 35 35 34 34 33
26 28 29 29 26 20 24 24 26 29 32 34 36 38 39 39 40 40 40 39 38 37 36 35 36 36 37 37 37 38 35 36 31 31 32 31 33 35 36 36 36 35 35 34 33 33 32 33 33
27 26 23 21 21 22 27 25 27 29 31 34 35 37 38 39 40 40 39 38 38 38 38 38 37 37 36 35 35 36 33 30 32 33 32 33 34 35 36 36 35 35 34 33 32 30 30 30 29
23 25 23 19 21 20 26 25 27 31 33 35 36 36 37 39 39 38 38 38 37 36 34 32 32 32 32 31 32 33 32 32 34 34 34 34 34 35 37 36 33 32 32 32 32 30 30 30 28
24 21 25 25 26 22 25 26 29 32 34 35 35 36 36 37 37 37 37 37 35 36 36 34 30 29 30 32 34 34 34 35 36 36 36 34 35 36 36 34 33 34 32 31 32 29 28 29 29
23 27 19 21 13 15 22 24 25 28 32 30 31 35 36 35 36 36 34 32 32 33 34 35 35 33 32 33 34 35 35 35 35 35 35 35 34 35 34 34 35 31 29 29 29 28 28 29 29
25 23 25 26 23 13 18 23 26 28 28 29 34 35 35 35 35 34 32 31 30 28 28 30 27 24 23 25 29 29 28 28 31 33 35 33 33 33 33 32 29 28 26 24 23 23 26 29 27
25 24 22 11 21 25 21 19 28 30 31 34 35 35 35 35 34 33 31 30 27 22 21 22 21 20 22 25 26 27 29 30 32 33 32 31 30 29 30 31 31 26 21 21 22 24 26 22 20

GFSSGP_sfc_30mbdewp_006.txt.gz
Dewpoint
44 42 36 29 11 19 15 15 31 38 47 51 53 53 54 57 50 47 64 66 68 69 70 69 70 70 69 69 68 68 68 67 66 66 66 64 64 64 63 63 61 60 59 59 58 59 60 61 62
30 32 28 24 17 12 13 19 41 46 49 48 49 51 53 52 61 62 63 68 68 69 69 69 69 69 69 69 69 68 67 67 66 66 65 64 63 62 61 61 61 59 58 57 57 57 57 58 59
32 32 21 20 19 12 13 36 44 46 46 45 46 49 52 53 62 62 66 68 68 68 69 69 69 69 69 69 69 68 68 68 67 66 65 64 62 61 60 60 59 58 57 56 55 55 56 56 58
27 25 17 15 13 16 21 40 45 45 44 46 46 46 51 59 61 64 68 68 68 68 69 69 69 69 69 69 69 69 68 68 67 66 64 63 62 61 60 59 57 56 55 54 54 55 56 56 56
27 18 12 11 11 14 17 38 42 44 45 42 42 45 51 63 65 67 67 67 67 68 69 69 69 69 69 69 69 69 68 66 66 65 64 63 62 61 59 57 57 56 55 55 56 56 57 56 56
23 18 12 8 13 21 33 41 45 45 45 46 48 50 54 65 65 66 67 67 67 67 69 69 69 69 69 69 68 68 67 66 66 65 64 63 62 61 58 57 57 56 56 56 58 58 57 57 56
19 14 12 15 23 22 32 44 43 42 44 46 48 50 58 63 65 67 66 66 67 67 68 68 69 68 68 68 68 67 67 66 66 65 64 63 62 60 58 58 58 57 57 57 57 57 57 57 56
20 16 17 26 23 26 16 39 43 43 45 45 47 52 56 61 65 66 64 64 64 65 65 66 66 68 68 67 67 66 65 65 65 64 63 62 61 60 59 59 58 59 58 57 58 57 57 57 57
19 15 17 24 28 28 23 37 33 44 44 44 44 53 58 64 64 63 63 63 64 65 65 66 66 66 66 65 65 65 64 64 63 63 62 62 60 59 59 60 60 59 59 59 59 59 59 59 58
20 16 14 14 20 32 32 34 39 43 44 43 47 57 62 63 62 61 61 61 61 63 64 64 65 65 64 64 64 63 63 62 62 62 62 61 60 60 60 60 60 61 61 61 62 61 61 61 58
19 16 8 15 17 18 25 28 36 43 42 43 49 56 60 62 62 61 61 61 61 63 63 63 63 63 62 62 62 61 61 60 61 61 60 60 61 60 60 60 59 58 59 57 56 57 58 57 57
13 12 8 17 14 13 30 18 39 34 37 44 52 57 57 58 58 57 57 57 58 59 60 61 61 60 61 60 60 59 60 60 60 61 61 60 59 58 56 56 52 50 50 50 52 52 53 53 51
14 9 8 7 5 8 9 20 32 23 43 44 50 54 53 54 54 53 52 53 55 56 58 58 59 59 59 58 59 58 59 60 60 61 61 59 57 53 52 51 50 50 51 50 49 49 49 48 48
13 3 6 11 4 2 6 9 13 20 45 43 47 50 50 51 50 49 49 50 52 55 56 57 58 58 56 57 57 58 58 59 60 60 58 56 53 52 51 48 46 46 47 47 47 47 47 46 44
5 2 6 9 10 7 13 10 11 33 45 42 42 44 43 43 43 44 44 46 50 54 55 57 58 57 57 57 57 57 57 57 57 55 51 52 52 49 46 42 41 43 45 45 43 44 41 41 40
7 9 0 7 13 15 8 4 17 41 44 43 44 44 45 44 44 43 44 42 44 53 55 59 60 60 59 58 58 57 53 53 51 51 49 46 43 43 41 41 43 44 43 40 39 41 37 40 38
10 7 8 8 15 16 13 17 33 30 45 42 42 43 44 45 46 48 50 50 49 56 59 59 60 59 58 58 55 51 47 46 45 44 42 41 41 41 41 42 42 40 38 38 38 38 38 37 37
5 7 9 10 15 26 26 33 37 39 40 41 41 42 44 44 45 47 50 51 55 57 58 58 56 55 53 52 51 49 46 46 45 44 42 40 39 40 40 38 38 38 36 36 37 35 37 38 39
10 10 9 14 23 32 34 35 37 41 41 40 41 42 42 43 44 46 46 49 51 52 52 53 52 51 49 47 45 43 43 46 44 41 40 38 38 37 37 37 37 37 36 37 38 37 36 35 41
18 17 20 25 29 32 33 32 34 37 39 40 41 42 42 42 42 42 42 44 48 51 49 48 48 46 46 44 45 47 47 45 41 38 37 38 37 37 37 37 37 36 35 37 38 38 35 37 40
24 19 19 24 31 31 31 30 33 36 39 40 40 40 41 41 41 39 37 38 41 43 43 41 41 42 43 46 45 42 42 42 38 38 34 36 36 37 36 36 36 36 36 36 37 37 35 36 37
21 25 24 28 26 24 26 25 29 35 37 38 39 40 41 39 37 36 35 34 34 35 36 36 37 37 38 39 38 37 38 37 39 34 33 35 35 34 35 36 36 35 36 37 37 36 35 36 32
25 25 25 22 21 21 25 25 27 33 35 37 38 39 40 38 37 36 36 37 37 37 36 37 37 37 37 37 39 39 36 38 36 32 33 32 34 35 35 35 35 35 35 35 34 32 30 32 31
28 28 28 28 25 18 23 22 26 30 32 35 37 39 39 39 39 39 39 38 37 37 36 36 37 37 37 37 37 36 35 34 31 33 32 33 33 35 36 36 36 35 35 33 32 31 31 31 31
28 26 22 21 21 20 27 25 23 30 33 35 36 38 39 40 39 40 38 37 36 35 35 36 34 33 34 34 34 34 33 30 31 32 34 34 35 35 36 36 35 34 33 32 31 29 29 28 26
23 26 21 18 20 22 26 25 26 30 32 35 36 38 39 39 40 38 37 36 36 35 32 31 31 31 33 34 34 34 34 35 36 36 36 35 35 34 36 35 33 33 34 33 33 30 29 29 26
23 20 26 24 24 21 24 26 29 33 32 34 35 37 38 37 37 37 36 34 35 36 34 31 32 30 29 30 33 32 32 29 29 31 33 34 35 36 36 34 35 36 35 34 32 30 27 28 27
24 26 17 21 9 10 22 24 25 31 31 33 34 35 36 36 36 34 32 32 32 33 35 30 25 22 22 24 25 24 24 26 29 31 32 33 35 35 35 35 35 32 31 29 30 28 26 27 29
25 22 25 24 22 9 13 21 28 30 33 32 34 36 36 35 33 31 30 29 27 27 25 22 20 19 20 22 23 25 26 27 27 27 30 33 33 34 33 31 32 29 28 29 25 23 24 27 28
26 24 19 8 14 23 20 16 29 29 31 32 34 35 35 34 32 31 30 25 21 20 20 19 19 19 20 22 24 25 27 27 27 28 29 31 31 30 30 31 31 32 28 25 21 22 25 23 21

GFSSGP_sfc_30mbdewp_009.txt.gz
Dewpoint
52 45 34 29 17 19 15 15 31 44 49 53 54 53 53 54 50 48 64 66 67 67 68 67 67 68 68 68 68 68 68 67 66 66 65 64 64 63 62 62 62 59 58 57 57 57 57 57 58
30 32 29 26 12 7 11 18 42 47 50 50 49 48 51 51 58 62 63 67 67 68 68 66 67 68 68 68 69 68 67 67 66 66 64 64 62 61 61 61 60 58 57 55 54 54 54 56 56
30 30 23 21 18 7 13 40 44 46 48 48 49 52 53 51 59 62 66 67 68 68 68 67 68 68 69 69 69 68 68 67 67 65 64 63 62 60 60 59 58 56 54 53 53 53 54 56 56
29 26 19 17 15 17 19 43 45 44 45 46 47 46 55 60 60 64 67 68 67 67 67 68 67 68 69 69 69 68 68 68 67 65 64 62 61 60 59 58 56 54 54 55 55 55 55 55 56
26 20 15 13 12 16 21 44 46 44 43 43 45 47 54 63 65 67 67 67 67 66 67 67 68 68 68 69 69 68 68 67 66 65 64 62 61 59 58 57 56 56 56 57 57 57 57 56 56
25 19 13 10 16 21 33 42 46 44 44 45 49 51 57 65 65 66 67 66 67 67 67 67 68 68 69 69 69 68 67 66 65 65 64 62 62 60 58 58 57 57 57 58 58 58 58 58 58
21 16 13 14 25 27 40 46 45 43 44 46 49 52 60 63 65 66 66 67 67 67 67 68 67 68 68 68 67 67 66 65 65 64 63 62 60 59 58 59 59 58 58 58 58 58 58 58 58
21 17 15 26 33 35 33 45 48 43 45 48 53 53 56 61 66 66 65 66 65 67 67 67 67 67 67 67 67 67 65 65 64 63 62 60 60 59 59 58 58 59 59 59 59 59 59 59 59
20 16 24 24 31 39 36 42 36 46 46 45 45 56 59 64 65 64 63 63 65 65 66 66 65 66 67 67 66 66 65 64 64 62 62 60 59 59 59 59 60 60 60 60 60 60 60 60 58
21 18 19 20 35 36 34 33 42 44 44 43 55 61 63 63 63 61 62 61 62 63 64 65 65 65 66 65 65 64 62 61 61 60 61 61 61 61 60 61 60 60 59 60 60 60 60 59 56
21 17 13 12 24 34 32 32 42 43 41 43 53 59 60 61 61 60 60 60 60 62 63 64 64 65 65 63 63 62 61 61 61 61 61 62 61 62 61 60 58 58 56 54 53 54 55 56 55
16 17 8 19 18 24 31 33 42 40 37 45 56 61 61 60 59 59 59 60 61 62 63 64 65 64 63 61 61 60 59 59 60 61 62 61 61 60 57 55 53 53 52 52 51 51 53 52 51
16 12 8 8 11 27 18 34 39 24 45 51 57 59 60 61 60 59 58 58 59 59 60 62 61 61 60 59 59 59 59 60 61 61 62 61 58 56 54 53 51 50 49 48 48 48 49 47 46
15 7 8 8 8 11 18 15 22 29 44 52 56 57 57 57 56 54 52 53 55 56 58 59 59 58 58 58 59 60 60 59 59 60 58 58 56 55 53 47 45 45 47 46 45 47 44 43 41
6 6 8 11 8 10 13 11 17 37 43 48 53 52 51 49 49 50 49 49 52 55 57 59 58 58 58 59 58 56 57 57 55 56 56 53 52 50 47 45 46 46 46 43 43 42 41 40 37
7 8 6 9 14 15 8 7 29 37 43 43 45 46 46 45 46 48 49 45 48 54 57 59 59 59 60 60 58 57 55 54 52 52 50 46 45 47 46 44 44 43 41 40 40 39 37 37 36
11 1 6 10 24 16 16 19 36 39 43 42 43 45 44 46 46 49 53 52 54 57 59 60 60 60 59 57 55 50 48 46 47 48 47 45 44 44 44 42 42 41 39 39 37 37 37 35 33
6 9 10 11 21 29 29 33 38 41 43 42 43 44 44 45 47 50 53 55 59 59 59 59 59 58 57 55 50 49 47 47 47 45 42 41 40 41 40 40 40 38 37 37 36 35 34 35 35
8 9 11 17 31 33 34 34 37 40 40 41 42 43 44 46 47 49 52 55 56 57 56 56 55 55 54 50 47 47 47 48 43 39 40 39 39 39 40 38 37 37 35 37 36 32 29 27 35
17 17 22 29 32 33 33 35 37 38 40 41 42 43 44 44 45 47 51 53 54 54 54 54 53 50 48 47 48 49 49 44 38 37 39 38 39 37 36 37 36 37 36 38 37 34 28 32 38
22 20 22 25 32 32 32 32 36 38 40 41 42 42 43 43 43 44 47 50 52 49 49 48 47 47 46 47 47 45 44 43 39 36 35 36 37 35 36 38 38 38 37 36 37 37 34 29 33
21 24 28 30 27 23 27 18 33 37 39 40 41 41 42 40 39 38 38 39 40 40 42 42 42 41 41 42 41 42 40 39 39 34 35 36 38 37 36 37 38 38 38 38 36 35 34 32 27
25 29 28 24 22 23 26 23 28 36 37 38 39 40 39 38 36 35 36 36 37 39 40 40 40 39 40 41 41 39 39 39 35 36 37 37 37 38 37 37 38 38 36 37 35 33 30 27 24
30 28 28 28 25 19 23 22 25 33 35 37 38 39 39 38 38 39 39 38 38 39 40 39 36 36 38 39 39 39 38 35 34 36 36 37 37 38 38 37 38 37 36 33 31 31 30 26 24
28 27 24 22 21 18 27 24 23 29 34 36 37 38 39 40 39 39 38 37 37 38 37 35 34 34 36 36 36 36 35 36 36 36 35 35 34 32 36 38 37 36 33 33 32 29 28 26 21
26 26 21 15 19 21 27 25 25 30 32 36 37 38 40 40 41 39 37 36 34 34 33 34 34 34 35 35 34 33 29 25 24 25 25 25 27 29 37 38 36 36 36 34 34 31 29 29 27
22 19 27 24 24 21 24 26 29 32 32 36 37 38 39 40 40 38 37 36 35 33 35 33 26 24 25 26 26 26 25 25 24 26 25 24 30 34 38 37 35 37 34 34 31 30 30 29 29
25 27 19 21 10 11 18 24 24 30 31 34 36 37 39 39 38 36 34 35 36 35 30 27 23 21 23 23 24 24 25 26 26 26 25 27 30 35 38 36 36 33 35 31 31 29 29 27 27
25 22 24 24 22 6 7 14 28 30 32 33 35 37 38 38 36 32 32 32 34 28 24 22 22 21 21 22 25 26 25 27 27 27 27 28 31 34 36 36 33 34 31 30 29 27 25 25 25
26 23 22 10 13 22 20 14 28 30 31 35 35 37 37 37 33 31 29 27 25 23 21 21 21 21 21 23 25 25 27 28 27 27 28 30 30 32 33 33 32 32 33 31 26 24 22 24 24

GFSSGP_sfc_30mbdewp_012.txt.gz
Dewpoint
52 39 24 25 18 17 16 17 34 45 48 51 53 51 51 52 51 48 62 63 64 65 66 65 68 68 68 68 68 68 68 67 66 66 64 63 62 62 62 61 61 58 57 56 55 54 54 54 55
28 23 26 21 11 13 13 15 29 46 47 46 47 48 48 45 56 60 61 65 65 65 65 64 67 68 68 68 68 68 67 67 66 65 63 62 61 61 61 60 60 57 55 53 52 52 52 54 56
22 26 20 14 9 12 8 24 42 45 44 42 45 49 50 48 54 59 64 65 66 65 65 65 67 67 67 67 67 68 68 68 66 64 63 62 60 60 59 59 57 54 54 54 53 53 54 56 57
17 21 20 13 13 10 18 37 42 42 43 43 47 44 51 52 56 62 65 66 66 66 65 66 67 66 66 67 67 68 68 67 66 65 62 61 59 58 58 57 55 56 56 55 55 55 56 57 57
19 19 14 13 14 11 15 40 41 39 39 42 43 44 47 58 62 64 66 67 66 65 66 66 66 65 66 67 69 68 68 67 66 65 63 61 59 56 56 56 57 57 58 57 57 57 57 57 58
15 18 11 14 17 22 21 39 43 40 37 43 42 45 49 63 63 65 66 65 64 64 65 65 65 66 66 68 68 67 67 66 66 64 63 61 59 58 57 57 58 58 58 58 58 58 58 58 59
17 12 12 12 23 31 33 44 45 43 43 42 47 47 59 62 64 65 65 64 64 65 65 65 64 65 68 68 67 66 66 65 64 64 63 61 59 59 59 59 59 58 58 59 59 59 60 60 60
20 13 12 23 29 38 42 39 37 41 42 47 49 48 56 61 64 64 65 64 65 65 65 65 64 65 65 65 67 66 65 64 64 63 61 60 58 59 59 57 59 60 60 60 60 60 60 60 59
22 11 13 28 34 36 40 36 39 44 44 47 47 51 56 63 63 62 63 63 64 64 64 64 63 63 63 62 65 65 64 64 62 61 60 58 54 54 54 57 59 60 60 60 61 60 60 59 56
20 14 16 29 36 35 36 32 42 45 45 45 53 57 61 62 62 61 61 61 62 63 63 65 64 65 64 60 60 59 57 55 56 57 58 55 59 58 57 58 59 58 57 58 54 55 55 56 46
20 15 22 32 31 31 31 31 33 43 41 42 51 57 60 60 60 60 59 61 60 61 63 64 65 65 62 59 57 54 54 55 58 60 60 59 59 58 56 53 52 52 52 50 48 48 46 49 48
19 17 17 29 34 33 29 30 38 38 35 42 53 58 60 59 60 58 57 54 55 58 59 63 64 64 60 57 53 54 55 57 58 59 61 60 58 57 55 51 51 52 50 49 46 44 47 47 46
18 16 12 12 25 32 31 36 37 32 43 50 54 57 57 56 54 52 51 52 53 53 56 59 60 60 59 56 56 56 57 59 61 61 61 61 59 58 56 53 50 48 46 45 44 44 43 42 40
17 11 9 11 22 22 29 32 31 33 46 49 53 53 55 55 52 51 50 49 51 52 56 59 58 58 57 56 57 58 57 58 58 59 59 58 59 58 56 50 46 45 45 43 41 42 39 39 38
11 8 9 10 21 19 20 14 25 38 44 48 49 51 53 52 51 47 46 46 47 52 56 58 58 57 57 58 57 58 58 58 57 57 57 56 56 54 49 47 47 44 43 40 39 39 38 38 36
7 8 8 13 15 15 12 9 29 40 43 46 48 50 50 48 47 47 48 47 46 50 56 59 59 58 59 58 58 58 58 56 53 52 52 50 47 49 48 45 43 42 40 39 38 38 35 35 36
8 1 5 9 21 14 9 10 31 42 41 42 45 47 47 47 47 50 50 48 48 51 57 59 60 60 60 58 58 56 55 51 50 49 47 47 44 44 43 41 41 40 38 38 37 35 35 32 32
3 1 2 4 22 12 13 25 30 41 41 41 42 44 45 45 47 50 52 54 55 55 57 60 60 60 59 59 55 51 47 46 46 44 42 41 41 41 40 40 40 36 34 34 35 35 33 33 34
7 7 7 16 29 26 25 25 30 38 42 42 42 43 44 45 48 52 55 56 57 58 58 60 59 59 58 54 51 46 46 47 44 41 41 40 39 38 38 35 36 36 35 37 36 33 31 31 33
11 8 16 24 29 28 27 29 32 34 39 41 42 43 45 46 48 52 55 56 57 57 58 57 57 57 54 51 47 46 48 45 40 40 40 38 37 35 34 37 35 35 34 34 36 35 31 27 30
19 14 21 18 27 29 26 27 31 36 38 40 42 43 45 46 48 52 53 54 54 54 54 52 50 48 47 48 47 47 45 42 40 38 36 38 38 36 36 37 36 36 34 31 35 35 34 31 29
20 23 23 25 21 15 26 12 29 34 37 39 41 43 45 47 48 47 46 48 46 46 47 46 46 45 44 42 42 43 40 39 39 36 37 37 39 39 38 37 37 36 34 34 34 33 34 30 25
24 27 27 24 21 22 22 18 27 34 34 38 41 43 43 43 42 40 40 40 40 43 42 41 40 40 42 42 42 40 39 37 36 37 38 38 38 38 37 36 35 35 34 35 36 33 30 29 28
29 27 26 25 23 17 19 19 17 30 31 37 40 40 41 40 38 36 36 37 39 41 42 41 40 39 40 40 40 39 38 36 36 35 32 28 25 23 22 24 34 36 36 37 33 32 32 30 26
28 23 18 15 17 17 25 22 17 26 32 36 39 38 39 38 36 37 37 37 39 41 40 39 38 37 38 38 37 36 34 28 23 21 18 18 16 16 18 25 29 34 36 35 34 32 33 27 23
26 23 17 13 17 12 26 17 17 29 31 36 39 36 37 37 38 37 38 38 39 39 38 38 37 35 33 30 26 24 22 19 17 19 22 19 19 20 25 30 32 36 36 35 35 34 29 26 24
24 22 27 26 26 22 17 22 27 30 31 34 36 35 36 37 38 38 38 38 37 38 38 34 30 26 25 25 24 23 23 23 24 24 24 21 22 22 26 34 36 36 37 35 33 29 26 24 21
25 26 22 23 19 14 12 18 14 28 30 33 34 35 36 36 39 39 38 38 37 37 33 30 25 25 24 23 23 23 23 25 26 25 24 23 24 25 27 32 34 37 37 35 29 25 22 20 19
25 22 22 22 23 8 3 3 26 28 31 32 34 35 36 38 39 39 37 37 36 32 29 26 26 25 23 22 24 25 25 25 25 25 24 24 26 25 26 30 32 35 33 29 27 28 20 18 19
26 22 18 11 15 23 25 8 25 30 32 32 33 35 37 39 39 37 35 35 34 30 26 26 25 24 22 22 24 24 24 25 25 25 25 26 26 27 28 28 30 32 30 28 29 26 18 18 19

GFSSGP_sfc_30mbdewp_015.txt.gz
Dewpoint
46 42 27 12 15 15 14 14 17 39 44 49 51 47 48 51 52 49 58 62 63 63 63 64 69 68 68 68 68 68 68 67 66 65 63 62 61 61 61 61 60 57 55 54 52 51 52 55 57
41 25 13 15 14 11 11 13 16 44 49 47 46 47 45 49 56 60 60 62 63 64 63 63 68 68 68 68 68 68 67 66 65 63 62 61 60 60 60 59 58 55 54 52 51 51 54 55 55
28 15 11 10 14 12 12 16 40 44 44 45 44 44 42 46 54 58 60 62 64 65 64 65 67 66 66 67 67 68 68 67 65 63 61 60 59 58 58 57 55 56 55 55 53 54 55 56 57
18 11 17 17 16 15 12 32 42 40 41 43 44 44 44 50 51 57 63 64 64 65 65 66 66 66 65 66 67 67 68 66 65 64 61 59 57 56 57 56 57 57 56 55 55 56 57 58 58
15 10 8 12 15 17 14 36 39 44 44 41 40 41 40 50 54 59 62 64 65 66 66 65 66 65 64 65 66 68 67 66 65 63 62 59 56 55 56 57 58 58 57 57 57 58 58 58 59
7 11 10 12 15 15 17 36 42 40 40 39 42 41 45 53 56 60 64 61 64 66 66 65 65 64 63 66 67 67 66 66 65 63 61 58 58 57 57 58 58 58 58 58 58 59 59 59 59
8 8 9 14 17 24 25 42 46 42 43 37 50 42 53 55 59 63 63 57 62 65 66 65 64 64 66 67 66 66 65 64 64 63 61 59 59 59 59 59 59 59 59 59 59 59 60 60 59
10 11 9 12 22 38 36 36 40 37 43 46 44 45 50 56 62 63 64 64 65 66 65 64 64 63 64 65 66 65 64 63 63 62 60 58 57 57 56 57 59 60 60 61 61 61 61 59 57
17 12 7 14 30 38 34 32 36 40 41 49 47 46 54 60 62 62 62 63 63 64 64 63 63 62 62 64 65 63 63 62 60 59 57 56 54 54 53 53 58 60 59 58 58 56 55 54 54
11 7 9 30 42 36 34 35 37 37 39 44 48 52 57 59 59 59 59 60 61 62 63 63 62 61 59 55 58 55 53 52 54 56 55 53 56 55 50 53 55 56 55 55 54 52 51 53 46
11 15 19 33 29 33 33 34 33 37 43 42 48 53 55 58 58 57 57 56 56 61 62 63 65 64 55 54 52 51 51 54 57 58 56 56 55 55 54 52 51 52 52 50 50 48 47 48 47
15 16 20 30 25 25 26 29 34 46 44 48 48 53 52 55 58 55 51 49 51 55 61 63 63 62 55 52 50 51 53 55 54 57 57 57 55 55 54 51 52 51 50 49 48 46 47 45 44
18 20 20 25 30 28 33 39 32 36 38 44 52 53 51 52 50 48 47 48 50 51 55 59 59 56 56 52 53 56 58 59 59 61 60 60 58 58 57 58 54 50 48 47 47 45 44 41 40
16 18 14 21 24 27 29 28 25 34 38 44 47 44 45 45 44 44 44 46 47 49 54 55 55 55 53 55 58 57 56 56 56 57 58 59 58 58 56 53 51 49 50 46 43 42 41 40 39
14 11 15 22 23 25 30 16 26 37 39 41 41 42 44 43 42 42 42 45 47 50 54 55 56 55 54 57 56 58 55 58 55 55 58 59 58 56 53 51 49 47 46 42 41 40 39 37 36
11 10 14 18 22 23 20 12 27 34 37 38 40 42 43 44 43 42 43 43 46 50 56 57 55 56 57 57 58 58 58 57 55 52 53 51 50 51 49 47 46 43 40 39 40 37 36 36 34
9 7 10 15 17 20 14 13 29 32 36 38 41 44 44 44 45 47 47 45 44 49 55 58 58 58 58 58 59 58 57 53 53 51 48 48 45 44 44 42 42 42 38 38 37 37 37 35 34
9 6 6 10 14 11 4 17 26 30 31 37 38 42 43 44 45 48 49 48 47 49 55 58 59 60 59 59 58 56 54 51 49 47 44 42 42 42 41 40 41 40 37 37 39 39 37 34 32
8 4 2 6 12 6 6 17 19 30 31 32 34 38 41 43 47 50 51 53 52 54 56 60 59 60 59 57 54 50 47 47 47 43 43 42 41 39 40 38 39 38 38 37 37 37 35 28 27
6 6 9 14 15 20 12 15 22 28 30 33 34 35 38 42 47 50 53 55 55 56 56 59 59 58 56 52 48 46 46 47 42 41 42 40 40 39 37 40 39 38 37 36 34 33 33 30 28
10 5 15 13 19 20 16 19 26 28 31 36 37 37 39 43 46 51 53 54 55 56 57 57 55 53 49 47 48 48 47 43 40 40 38 40 40 39 39 38 38 38 36 31 32 32 34 30 29
15 19 16 15 19 14 17 10 22 29 31 33 36 38 41 43 47 50 52 53 53 53 52 50 48 47 48 45 42 41 41 40 41 39 39 40 39 39 37 35 35 35 34 32 31 29 32 31 28
26 23 21 18 16 19 16 13 28 29 27 31 35 38 41 45 48 47 46 46 46 47 46 45 43 41 42 43 43 42 40 39 38 38 38 36 31 26 23 21 23 27 33 33 34 34 33 31 29
26 24 23 20 17 16 13 15 18 26 26 31 36 40 42 44 43 41 41 41 42 43 43 42 41 41 42 42 43 41 38 36 33 28 23 20 18 18 19 21 25 26 29 34 33 33 33 35 34
22 20 15 12 12 13 18 17 15 18 27 29 36 39 42 42 38 36 37 37 40 42 43 42 40 40 41 39 36 34 29 25 21 20 19 20 19 19 20 25 27 29 29 31 32 35 35 36 30
22 17 15 10 11 9 21 14 13 25 25 28 36 38 41 39 36 35 36 37 40 42 41 39 39 39 36 31 28 26 23 24 21 22 23 21 21 21 23 25 30 32 32 36 36 37 37 33 28
19 20 22 21 23 19 12 10 19 28 28 30 35 38 38 37 36 36 37 39 40 41 40 40 37 33 29 28 27 27 26 26 25 25 25 22 22 21 22 26 28 31 36 37 37 37 33 32 26
25 24 19 16 15 13 8 10 6 25 26 30 34 36 37 36 36 36 38 39 40 39 40 37 32 29 30 28 27 26 25 26 26 25 25 23 24 24 24 24 25 28 36 35 36 31 26 26 24
24 19 19 21 22 15 6 7 17 16 26 28 32 35 36 36 36 38 38 39 39 40 37 33 29 31 28 26 26 26 26 26 25 25 25 24 25 24 24 25 26 27 27 30 30 27 28 30 23
26 22 21 17 13 18 23 12 19 23 25 29 30 33 35 36 36 38 39 39 38 37 34 31 31 29 27 25 26 26 26 25 25 25 25 25 25 25 25 26 26 25 25 28 27 27 26 25 21

GFSSGP_sfc_30mbdewp_018.txt.gz
Dewpoint
44 41 38 28 10 17 14 13 14 30 45 47 46 44 49 52 53 50 62 62 62 62 65 66 68 68 68 68 69 68 68 67 65 64 63 62 61 61 61 61 59 57 53 51 51 54 53 53 54
36 36 32 12 9 12 11 14 31 45 47 45 46 45 46 52 58 60 62 62 62 61 62 65 68 68 68 69 69 68 67 65 64 62 61 61 59 59 58 59 58 57 54 53 53 54 55 55 55
47 35 8 7 11 14 11 21 34 45 45 44 43 44 42 51 57 59 63 65 63 61 62 66 67 66 67 67 67 67 67 65 64 62 60 58 57 57 57 60 59 57 55 54 55 56 57 58 59
27 15 10 14 13 13 13 29 42 40 46 44 43 42 43 48 54 61 65 66 65 63 64 67 65 64 65 66 68 67 66 65 64 62 60 56 55 56 58 60 59 57 56 56 57 57 58 59 59
26 11 5 7 12 13 19 35 43 45 46 47 49 37 41 50 56 63 64 64 65 66 66 66 65 64 65 67 68 67 66 65 64 62 60 57 55 57 59 60 59 58 58 57 58 59 59 59 59
12 11 8 8 8 16 23 40 42 43 46 48 50 39 46 53 57 62 64 66 66 65 66 65 65 65 66 67 67 66 65 64 63 62 59 58 59 59 59 59 59 59 60 60 60 60 60 59 58
16 7 6 10 11 21 40 43 41 40 44 46 49 47 54 52 60 61 61 63 64 66 65 64 66 65 66 66 65 64 64 63 63 61 59 59 59 59 59 59 59 60 60 60 60 60 59 58 58
13 11 10 10 9 37 40 47 42 39 39 45 45 42 50 59 63 60 60 60 62 63 65 64 64 66 66 65 64 63 62 62 61 58 56 57 57 56 57 58 59 59 59 59 59 58 56 55 57
10 8 10 12 28 42 43 35 36 42 44 41 49 56 56 61 63 59 60 60 61 60 64 64 64 65 66 64 63 62 61 60 59 56 55 56 56 56 56 55 55 56 55 55 56 53 52 52 54
11 12 12 39 42 42 43 41 35 36 44 46 49 53 59 60 61 60 61 59 59 60 62 63 63 64 64 60 62 59 58 57 58 56 55 59 57 54 50 55 53 54 53 52 54 53 52 53 50
12 10 10 41 42 42 43 38 37 35 37 48 51 53 56 57 58 57 58 59 60 61 62 63 63 62 59 57 59 54 57 58 59 58 58 58 58 58 57 58 56 56 56 55 53 52 52 48 50
12 9 15 35 39 40 37 39 36 34 37 44 50 51 54 55 54 54 53 58 59 60 62 62 62 61 56 55 54 56 58 61 61 63 61 61 60 60 59 59 56 54 53 53 52 50 48 45 45
11 17 18 36 36 38 38 37 38 38 38 43 48 50 51 53 49 47 47 51 56 58 61 61 62 58 54 55 60 60 59 59 59 59 60 60 59 58 58 56 54 54 52 49 48 47 44 43 43
13 19 19 27 38 31 37 33 42 41 43 46 49 46 48 47 44 45 45 48 49 55 57 58 57 57 56 61 59 57 57 57 57 58 59 59 59 58 55 55 52 50 49 46 44 45 43 43 42
17 17 15 22 24 31 32 34 29 42 44 43 41 42 42 42 41 42 45 47 48 54 56 57 57 57 58 60 58 56 58 58 56 57 58 58 58 56 54 51 48 47 47 46 44 42 42 41 39
15 15 17 18 21 26 30 19 26 36 36 37 37 38 39 39 40 42 44 46 48 53 54 56 56 56 60 58 58 59 59 56 56 54 53 52 51 51 49 48 50 46 45 43 41 42 42 40 40
12 11 15 19 20 21 20 17 25 34 36 38 39 40 41 40 40 43 43 44 48 55 56 56 57 58 59 59 59 59 57 55 54 53 51 49 46 46 46 46 46 44 44 42 43 43 42 41 38
11 11 12 13 14 19 13 18 25 28 40 37 38 39 41 42 44 46 45 45 45 56 58 58 59 60 59 59 59 57 56 54 53 50 46 45 44 44 43 46 43 42 42 42 42 42 42 40 36
15 12 11 10 14 11 7 16 22 26 30 34 38 40 42 43 45 48 49 49 48 56 59 61 60 60 59 58 56 55 52 50 49 45 44 43 42 41 41 43 43 43 41 42 40 39 36 37 36
11 11 7 9 8 9 6 12 16 24 26 31 34 39 41 42 47 49 51 53 53 56 60 60 60 60 59 58 53 50 49 49 46 45 43 43 42 41 40 42 41 42 41 40 39 36 36 36 35
9 12 15 11 11 5 22 11 15 20 26 28 31 33 36 41 46 49 52 54 56 59 60 59 59 60 59 53 49 50 47 45 43 44 43 43 42 41 41 40 40 40 39 38 38 36 36 35 34
16 23 18 16 19 14 22 15 20 29 22 26 30 33 35 39 45 49 52 56 56 58 58 57 57 54 49 48 48 48 44 43 42 42 43 42 41 37 29 29 31 32 37 37 38 35 37 36 33
21 22 22 16 12 23 23 21 28 30 29 27 32 36 37 41 45 49 51 55 55 55 55 51 48 47 46 45 46 44 43 42 41 39 35 30 26 26 25 26 31 31 32 34 37 38 37 34 36
27 25 22 14 14 22 25 24 25 31 30 32 31 35 39 42 46 49 50 50 49 49 48 46 43 43 45 46 44 42 38 35 31 26 24 25 25 25 27 28 30 33 34 34 37 37 37 37 38
18 14 15 24 23 18 17 21 24 29 33 41 42 36 40 45 46 46 45 45 46 46 45 44 42 43 44 42 40 34 29 29 28 24 25 24 24 25 28 27 30 33 35 37 38 37 37 39 37
25 13 18 23 25 20 24 19 15 30 31 41 39 39 42 44 43 42 41 41 43 44 44 42 42 42 41 36 30 30 29 28 28 27 26 25 25 26 26 29 30 32 35 37 38 38 38 38 36
13 16 19 19 31 20 13 10 20 25 26 24 36 39 41 42 40 38 38 40 43 44 44 42 41 40 35 32 31 31 29 28 27 28 27 26 26 24 27 28 29 30 33 37 38 38 38 37 35
22 20 20 17 13 12 10 9 18 24 24 27 32 38 40 41 38 37 37 40 43 43 42 43 41 35 32 32 32 31 30 30 28 28 27 26 27 27 28 28 28 29 30 35 37 36 36 31 31
22 18 18 15 21 21 17 11 14 18 22 25 29 38 39 39 38 37 37 40 42 42 42 42 37 32 33 31 31 30 30 30 29 27 27 26 27 27 27 27 28 29 28 29 30 31 30 29 31
22 24 17 22 17 21 25 18 17 19 19 24 27 32 38 38 38 37 38 40 41 41 41 39 34 32 32 31 30 30 31 30 27 27 27 27 27 27 26 27 28 28 28 29 29 30 31 30 27

GFSSGP_sfc_30mbdewp_021.txt.gz
Dewpoint
46 45 43 37 23 17 15 16 26 43 43 47 47 53 55 56 55 49 64 64 65 66 68 68 68 68 68 69 69 68 67 65 64 63 63 62 60 59 60 60 58 56 53 54 54 54 54 55 56
40 34 34 32 9 7 11 18 45 46 46 45 44 49 52 55 60 62 63 64 64 66 66 67 68 68 69 69 68 67 65 64 63 62 61 61 58 58 59 61 59 57 55 55 56 56 56 57 57
42 43 35 16 8 7 10 29 45 44 46 43 42 42 48 56 61 61 63 63 64 64 66 67 67 67 68 68 67 66 65 64 63 61 59 58 57 59 59 60 59 57 56 56 57 57 57 58 57
36 27 17 9 9 13 13 33 44 45 47 48 46 41 46 57 59 63 64 63 63 65 66 65 65 65 67 68 67 66 65 64 62 60 58 56 58 59 60 60 59 57 57 57 57 58 58 58 56
36 25 8 8 9 14 25 44 45 44 46 48 46 41 46 59 64 65 64 66 65 66 66 65 64 64 66 67 66 65 64 63 61 60 59 59 58 58 60 61 60 58 58 58 59 59 58 58 56
30 15 10 6 6 21 44 44 44 44 46 49 46 49 51 61 63 65 66 65 65 65 65 66 66 66 66 66 66 65 64 63 61 60 60 60 60 60 60 60 60 60 60 59 59 58 58 58 56
26 19 13 8 7 28 46 49 44 45 47 47 50 47 53 59 61 64 64 65 62 61 62 65 65 66 65 64 64 63 63 61 59 59 59 58 58 58 59 59 59 59 58 58 58 56 56 56 56
19 17 14 12 12 40 44 46 45 43 44 47 46 42 50 59 60 61 61 62 63 61 60 62 66 63 64 63 62 61 60 58 56 57 57 57 57 58 58 58 57 56 55 55 55 53 53 55 52
19 13 8 15 38 39 44 44 48 45 42 46 51 56 58 58 60 58 58 60 61 60 59 59 65 63 64 62 61 60 59 56 56 56 56 56 56 56 58 57 56 54 53 53 53 53 54 52 52
18 14 12 38 43 41 41 40 42 42 45 47 43 54 59 59 59 56 57 57 59 57 60 62 63 64 62 60 60 59 60 57 55 55 55 55 57 56 57 56 55 54 55 54 54 53 55 53 50
16 13 33 38 42 43 42 40 43 38 46 46 43 51 58 58 55 55 56 56 58 60 62 62 62 64 61 58 58 57 57 58 59 59 58 59 59 58 59 58 57 56 56 54 54 50 47 44 44
14 14 24 39 42 42 43 42 37 36 46 48 47 54 56 54 57 55 56 57 59 61 61 63 63 62 58 60 58 57 59 60 62 60 60 60 59 58 56 55 54 53 52 49 47 46 43 43 44
14 15 36 37 39 39 39 37 37 38 44 50 54 54 54 54 57 58 58 59 61 61 61 61 62 58 57 58 60 60 60 60 59 59 59 59 57 57 55 55 53 50 48 43 44 45 44 42 40
14 13 35 39 40 38 31 35 38 39 43 48 50 53 52 48 50 57 58 59 60 60 60 61 59 56 60 59 58 58 57 57 58 59 59 60 58 56 54 51 48 47 46 47 44 42 42 40 39
18 15 19 35 39 38 32 35 36 40 43 47 49 51 51 44 46 51 57 58 59 59 60 60 56 60 59 57 57 57 56 57 57 57 57 57 56 53 51 48 48 46 45 44 42 43 42 41 40
16 16 17 22 33 36 31 30 36 41 43 47 44 44 45 43 44 48 50 56 56 57 57 57 56 60 58 57 57 57 58 56 53 52 52 52 51 50 49 48 44 43 44 44 43 42 41 41 40
15 12 16 19 22 28 26 25 38 43 44 42 40 40 40 40 44 46 47 53 55 56 56 56 57 59 58 58 58 58 57 54 53 53 50 47 47 46 47 46 43 42 43 43 42 41 42 40 37
15 12 15 18 21 21 21 23 40 43 40 40 42 43 41 40 42 44 45 50 55 56 57 56 60 59 59 58 58 58 56 54 53 51 47 44 43 42 45 44 44 43 42 41 39 39 37 38 36
17 13 13 14 18 17 20 23 32 40 39 39 43 46 42 44 45 45 47 50 57 57 57 59 59 59 58 57 56 56 52 52 47 45 43 43 43 43 42 42 42 41 41 40 40 36 35 35 37
19 19 17 14 13 11 19 22 24 40 41 42 45 41 43 44 46 48 50 54 58 58 59 59 59 59 58 57 58 55 51 48 45 44 43 42 42 41 42 41 41 40 39 38 37 36 34 37 35
20 21 16 12 8 7 13 16 21 25 27 39 42 38 40 45 48 50 51 54 59 60 60 59 58 58 58 58 53 50 47 45 43 43 42 42 42 41 36 33 31 33 37 37 37 37 36 34 34
16 22 23 19 18 12 22 16 25 26 26 28 38 44 44 47 49 51 53 57 59 59 59 59 59 59 59 56 48 44 43 42 44 44 43 36 28 26 28 31 30 31 32 31 36 38 37 35 34
20 20 19 21 19 22 21 18 24 28 22 25 30 33 39 46 49 51 54 57 58 59 58 58 58 57 53 49 49 45 42 42 39 34 27 25 27 26 28 29 28 30 34 34 35 38 37 37 36
25 23 24 26 23 18 21 21 27 26 24 28 30 34 38 45 49 52 55 56 56 56 55 51 47 46 45 45 44 42 39 29 28 25 24 24 26 28 28 27 30 32 34 36 38 37 37 37 37
25 21 20 16 20 20 30 24 22 30 29 30 31 32 39 47 49 52 52 51 49 47 45 43 45 44 41 37 32 32 30 29 26 24 26 25 24 26 25 28 29 30 34 38 37 37 38 37 36
22 24 19 17 21 24 30 25 23 26 32 34 36 37 42 48 49 48 48 48 46 44 43 43 44 42 40 34 30 28 28 28 27 27 26 26 26 26 28 27 28 29 32 38 38 38 38 37 37
20 21 26 29 33 30 28 24 26 31 33 37 38 38 45 46 45 45 45 45 45 44 43 43 43 40 34 30 29 29 28 29 27 28 27 27 27 25 27 28 28 29 29 34 37 37 36 37 36
22 23 21 25 19 17 14 17 24 26 28 32 39 38 44 43 42 42 42 44 44 44 44 43 41 36 32 31 30 29 29 30 29 29 27 26 27 26 28 27 29 29 28 29 37 37 36 33 31
23 20 19 20 22 18 18 14 19 22 26 29 37 41 42 42 39 39 40 43 44 44 43 43 39 34 32 31 31 31 29 31 29 29 27 27 27 27 27 27 27 28 29 30 30 30 30 30 31
22 25 27 17 16 23 22 19 21 19 23 27 30 40 42 41 39 38 39 42 44 43 43 42 36 32 32 31 31 29 32 31 30 28 28 28 27 28 27 26 27 29 29 27 27 28 30 31 26

GFSSGP_sfc_30mbdewp_024.txt.gz
Dewpoint
51 48 41 37 23 18 14 14 16 27 44 49 54 54 55 57 55 46 63 65 67 67 69 69 68 68 69 69 68 67 65 64 63 62 62 61 59 59 60 59 59 58 56 56 55 55 55 56 57
44 37 35 31 15 7 8 15 24 46 46 44 44 53 55 56 61 62 62 66 67 68 68 67 68 68 69 68 67 65 63 63 62 61 59 59 59 59 60 60 59 59 56 56 55 55 55 57 59
42 42 38 27 10 7 8 28 45 46 46 44 41 44 54 58 62 62 64 66 66 66 67 67 68 69 68 67 66 65 64 63 62 60 58 59 59 59 59 60 59 58 57 56 56 56 57 58 58
37 32 27 9 7 10 10 15 46 45 45 47 43 45 52 61 61 63 64 65 65 65 66 67 68 68 67 66 65 64 63 62 61 60 61 60 59 59 60 60 60 58 57 57 57 57 57 57 56
35 23 13 8 7 31 44 45 47 46 48 49 45 46 53 62 63 63 63 64 65 65 65 65 66 66 66 66 65 64 63 62 61 61 61 61 60 59 61 61 60 59 58 58 58 57 56 56 57
30 18 11 8 9 40 45 48 46 47 48 48 48 51 57 62 63 64 64 64 65 65 65 65 65 65 65 65 64 64 62 61 61 61 61 61 61 61 61 61 61 60 59 58 57 56 55 54 55
28 23 17 15 14 14 44 48 45 45 46 48 49 49 57 60 63 63 61 62 63 64 64 63 64 64 63 64 64 63 61 60 60 61 61 60 60 60 60 59 59 58 57 56 54 55 54 53 53
25 20 15 12 16 35 43 45 46 44 46 48 51 46 52 59 62 61 61 61 59 61 61 62 62 64 64 63 62 61 58 59 59 59 59 58 58 59 58 58 57 56 55 53 53 54 53 52 52
19 17 13 11 36 37 43 44 46 45 45 45 52 56 57 60 60 60 60 59 58 59 59 60 63 63 63 61 61 60 57 57 57 58 58 58 57 57 58 55 56 55 53 52 54 54 55 55 50
20 15 15 31 42 39 41 42 43 43 44 46 54 57 58 57 56 56 57 58 58 57 58 60 63 63 61 59 60 59 58 56 56 56 56 54 55 56 58 57 57 55 56 56 54 55 46 46 48
19 16 30 39 42 42 39 41 43 45 46 44 53 54 56 56 55 54 57 55 56 58 57 59 63 62 60 58 58 58 56 56 55 55 56 58 58 59 58 58 57 56 51 50 47 44 44 43 44
17 16 29 40 42 42 40 42 37 38 46 46 57 57 56 55 54 53 56 57 56 58 58 59 63 62 60 57 56 56 57 61 60 60 60 59 57 55 55 54 52 49 47 45 46 45 43 41 40
15 22 34 40 41 41 42 38 38 45 45 50 57 57 55 55 55 54 55 57 59 59 61 62 62 62 59 58 57 58 61 59 59 59 58 58 57 55 54 51 49 48 45 44 43 42 40 40 39
22 31 35 38 36 36 35 38 39 45 48 51 54 56 55 55 55 54 55 57 59 60 61 62 62 59 58 59 59 58 57 58 58 59 59 58 56 53 51 48 47 46 46 44 42 41 41 40 39
21 29 38 38 37 34 35 33 38 44 48 50 50 53 55 56 55 54 56 58 60 60 61 61 59 59 59 58 56 56 57 56 57 57 58 56 54 52 48 47 45 44 45 43 43 42 42 41 38
17 20 27 36 38 36 32 28 36 43 47 49 50 52 50 56 56 56 58 60 60 60 60 59 59 58 57 57 55 56 55 54 53 54 54 53 52 49 48 44 43 45 44 42 42 42 40 40 36
19 12 17 30 37 34 31 29 35 42 46 47 46 47 46 53 56 57 58 58 59 58 59 57 59 57 57 56 56 56 54 52 52 52 50 49 48 49 46 44 44 43 42 41 40 39 38 37 35
16 13 16 18 22 31 27 27 38 42 45 43 43 43 42 47 49 55 57 58 57 57 58 57 59 58 57 57 57 56 54 53 52 50 47 44 45 46 44 42 42 42 40 39 38 34 35 35 36
20 20 15 15 19 20 24 33 38 42 44 41 42 43 42 45 46 50 56 56 55 57 57 58 58 58 56 57 56 55 52 52 50 46 44 43 43 43 42 42 41 41 39 39 37 36 34 34 35
25 21 18 19 18 17 23 34 40 42 40 38 41 43 44 44 44 46 51 55 56 57 57 58 58 58 56 55 57 55 52 49 45 43 43 42 42 41 41 41 40 39 38 37 37 36 35 36 34
24 21 21 18 9 18 20 22 38 39 40 39 42 43 44 43 44 49 51 55 56 56 58 58 58 58 57 55 57 52 48 45 43 42 42 42 42 39 36 33 31 31 32 31 35 37 35 34 35
22 21 22 19 16 8 21 14 25 33 37 39 41 44 42 45 46 50 54 56 57 57 59 59 59 58 57 56 54 51 47 43 42 42 43 38 29 30 31 30 30 32 33 33 35 38 37 35 34
20 22 21 21 21 21 20 18 19 27 27 35 41 43 40 42 47 51 57 58 58 59 59 59 58 58 58 54 51 48 44 43 44 41 30 28 28 30 30 29 31 33 34 36 38 37 37 37 36
24 24 26 28 24 18 27 21 19 25 22 28 36 42 42 43 48 52 58 59 59 59 59 58 58 55 54 51 47 45 42 40 37 29 25 27 30 29 28 30 29 31 34 37 37 37 37 36 36
25 21 16 16 17 16 29 24 22 25 28 26 25 33 38 45 50 53 56 57 58 58 57 54 51 46 45 45 43 39 35 31 29 26 26 26 27 27 28 29 29 30 36 38 37 37 37 37 36
25 22 17 13 17 20 30 24 21 27 29 31 31 37 45 48 52 54 54 54 53 51 48 46 43 40 37 37 35 32 31 30 27 28 28 27 27 28 28 28 29 29 30 36 38 37 37 36 36
26 20 26 27 33 27 26 27 25 30 32 32 37 40 47 49 51 52 51 50 48 44 45 44 41 37 32 30 30 29 29 29 28 28 28 28 28 28 28 28 28 29 28 29 34 37 36 36 36
29 25 22 26 18 18 17 18 23 27 28 32 36 37 46 48 49 49 48 47 44 43 44 43 40 36 33 30 29 29 29 29 30 29 28 28 27 28 27 27 28 27 28 30 32 37 36 34 31
24 21 21 24 21 15 17 15 18 27 28 27 30 38 43 46 47 47 47 46 44 43 43 43 39 34 31 29 29 29 30 30 30 29 29 28 27 27 27 27 27 27 29 29 28 28 29 30 31
29 23 22 17 16 24 22 20 23 23 26 29 33 38 42 45 44 45 45 45 45 44 44 42 38 34 31 30 30 29 30 31 30 30 29 29 28 28 27 27 26 27 30 28 26 27 28 30 28

GFSSGP_sfc_30mbdewp_027.txt.gz
Dewpoint
51 47 40 34 22 18 13 14 15 15 44 53 55 54 56 58 53 45 63 64 67 68 69 68 68 68 68 68 67 66 64 62 61 60 61 60 59 59 61 60 60 59 56 55 55 55 55 57 60
43 38 34 25 14 9 7 12 19 39 47 51 47 54 56 56 60 62 62 66 67 68 68 67 68 68 68 67 66 65 62 61 60 59 59 59 59 59 61 61 60 59 56 54 55 55 56 57 58
41 42 36 24 10 6 7 18 45 47 48 46 43 49 55 58 61 62 65 66 67 67 67 67 68 68 68 66 65 64 63 63 61 60 59 59 59 58 60 61 60 59 56 56 56 56 57 59 59
38 34 20 10 6 8 9 26 41 46 47 48 45 46 57 62 62 63 66 66 66 67 67 68 68 68 66 66 65 64 63 62 61 62 61 60 59 58 60 61 60 58 57 57 56 57 59 59 57
33 21 13 8 7 18 44 46 47 46 47 48 47 53 56 62 63 64 65 65 65 66 66 67 67 67 66 65 64 64 63 62 62 62 62 61 61 60 62 61 60 59 58 57 57 55 56 58 55
28 17 11 7 10 25 45 48 46 47 48 48 51 54 56 63 62 62 63 64 65 65 65 66 66 65 65 64 64 63 63 62 63 63 62 62 62 62 62 61 60 59 58 57 56 54 55 56 56
26 22 17 14 14 15 44 47 45 46 46 47 49 52 57 59 61 62 61 61 62 63 63 65 64 65 65 64 63 62 62 62 63 62 62 62 62 61 61 60 58 58 57 56 55 55 55 58 57
28 22 16 12 10 32 42 44 45 45 45 50 51 51 53 58 61 61 60 59 60 61 61 60 62 61 63 62 60 60 59 61 62 62 61 60 60 60 59 59 58 56 55 55 56 55 55 53 56
19 18 14 13 26 35 43 43 46 46 46 54 56 56 59 60 60 58 57 58 59 59 60 60 60 63 62 61 61 60 59 60 60 59 58 59 59 58 57 57 56 55 55 55 57 53 52 49 53
21 17 16 17 38 37 41 42 43 43 49 52 55 58 59 59 58 57 56 56 57 58 58 60 61 61 61 60 60 58 58 58 58 57 57 56 57 58 57 57 56 56 57 52 51 48 46 46 45
20 18 18 36 42 42 39 41 43 44 43 51 53 55 57 56 56 57 57 57 57 57 57 60 63 63 61 58 59 57 56 56 55 56 54 55 56 58 56 56 56 50 49 45 44 43 42 40 40
19 17 26 34 41 41 40 40 37 43 47 53 54 55 55 55 56 57 57 57 56 56 55 57 62 62 60 58 57 56 56 58 57 56 58 58 56 55 53 52 50 47 46 45 44 42 40 40 39
16 16 22 35 42 42 42 38 40 47 55 54 55 54 54 54 55 55 55 56 56 55 55 57 61 62 60 57 56 58 61 60 60 59 59 56 54 54 52 49 48 45 45 43 42 41 40 39 38
19 30 36 39 40 39 38 40 40 45 56 55 55 51 48 54 55 54 56 57 57 57 57 59 61 62 59 57 58 60 59 58 58 58 58 57 55 51 48 47 46 46 43 43 42 41 41 39 36
28 33 36 36 38 36 39 38 40 45 54 55 54 53 51 54 55 53 55 56 57 59 59 61 62 60 58 57 58 58 57 57 57 58 57 55 52 50 47 45 44 44 43 42 42 41 41 38 35
19 26 20 31 37 37 32 31 39 46 49 52 54 54 54 54 54 54 54 56 58 59 60 61 60 59 58 57 57 57 55 55 55 56 56 54 50 48 45 44 44 43 42 41 40 39 38 37 35
18 15 17 27 37 35 31 30 38 45 47 49 50 54 55 55 55 54 53 57 59 60 60 59 59 58 57 56 56 55 53 52 52 52 51 49 49 46 43 43 43 41 40 39 38 36 36 34 35
18 16 17 21 31 36 32 27 40 44 47 48 48 49 53 55 54 54 55 58 60 60 60 58 58 57 56 56 55 54 52 52 52 49 47 46 47 45 43 42 42 41 39 37 36 34 35 36 36
23 21 21 20 19 32 32 28 39 43 46 46 45 46 46 54 54 56 57 58 59 58 59 58 57 57 56 55 54 53 51 52 50 47 44 45 44 43 42 42 41 40 38 37 37 36 33 35 34
24 23 21 21 17 22 23 27 39 42 44 44 44 44 44 51 52 55 57 57 57 57 58 58 57 56 56 55 56 54 52 51 46 45 43 44 42 42 42 41 40 38 36 34 36 36 35 36 34
24 23 21 21 14 21 24 26 38 40 40 40 41 43 43 45 47 50 55 56 55 56 57 58 57 57 56 56 56 52 47 45 43 42 42 42 42 40 36 33 32 31 31 31 34 37 35 33 34
22 23 22 21 13 11 18 12 27 39 40 40 38 41 44 43 45 47 52 55 55 55 57 58 58 57 56 56 55 52 49 44 42 42 42 34 33 31 31 31 33 34 34 33 35 38 37 35 33
22 23 22 22 20 20 24 18 19 33 37 38 38 38 43 44 44 46 49 54 55 56 57 58 58 58 57 56 55 51 47 44 43 41 32 29 32 31 31 32 32 33 35 36 37 37 36 36 35
25 24 25 27 24 16 25 21 19 25 31 35 38 37 41 42 46 50 53 55 56 57 58 58 58 58 58 56 54 50 45 43 40 33 28 30 29 30 30 29 31 33 36 37 36 37 36 36 35
25 21 12 13 16 15 28 24 21 22 26 27 28 34 40 43 44 52 56 57 57 57 58 58 57 56 56 54 51 47 44 42 38 31 28 28 27 28 29 29 29 30 36 38 37 37 36 36 35
25 22 17 9 13 18 30 22 22 27 29 30 30 32 38 43 47 52 56 57 57 57 57 57 54 51 51 50 45 40 39 39 33 29 29 29 28 29 29 29 29 29 30 35 37 37 37 36 35
25 22 25 26 31 25 22 27 23 28 31 35 34 38 38 43 49 53 56 57 57 57 55 53 50 46 44 44 38 35 33 33 31 30 29 29 30 29 29 28 29 29 28 29 31 35 36 36 35
27 28 23 26 19 17 20 19 17 25 27 35 36 38 44 48 51 53 54 54 54 53 51 47 43 41 39 37 36 33 32 31 30 29 28 28 30 30 29 28 28 27 28 30 31 35 37 33 32
25 23 22 24 21 15 15 17 19 24 27 27 29 37 44 48 50 51 52 51 50 49 48 44 39 35 35 34 33 32 30 31 30 29 30 30 30 29 28 28 27 26 28 29 30 29 28 29 30
29 25 21 18 16 24 22 19 22 22 26 27 28 34 39 48 49 50 51 48 46 46 45 43 39 35 33 33 33 31 30 31 30 30 30 30 28 29 28 28 27 27 28 29 27 26 27 27 28

GFSSGP_sfc_30mbdewp_030.txt.gz
Dewpoint
51 44 39 30 21 16 11 12 15 15 48 54 57 55 55 56 52 45 64 65 67 68 68 68 68 68 67 66 65 65 64 63 61 61 61 61 61 61 61 61 60 59 58 57 57 59 61 62 64
40 36 34 23 12 7 3 12 29 44 48 49 48 56 56 55 60 61 62 67 67 67 68 68 68 68 67 66 65 64 62 62 61 60 60 61 61 61 62 61 60 60 59 56 55 55 57 59 62
39 41 32 22 11 5 6 13 43 46 48 46 45 52 57 57 61 62 65 67 67 67 67 67 68 68 67 66 64 63 63 62 61 61 59 59 60 60 61 61 60 60 58 55 55 55 57 59 59
37 34 16 11 8 8 8 16 45 45 47 47 46 51 60 62 62 64 66 67 67 67 67 68 67 67 66 65 64 64 63 62 61 61 60 60 60 60 62 61 60 59 58 56 56 57 57 59 59
29 21 15 9 7 8 36 45 47 46 47 48 49 53 55 61 64 65 65 66 66 66 67 67 66 66 65 65 65 64 63 62 63 62 62 61 61 62 62 61 61 60 59 58 58 59 56 57 58
26 17 12 7 8 12 42 47 46 47 48 50 53 53 56 62 62 62 63 63 64 64 66 65 65 65 65 65 64 63 63 64 63 63 63 63 63 63 62 61 60 59 57 57 59 59 57 54 56
25 21 15 14 14 17 40 47 45 46 47 47 51 51 57 58 60 61 61 61 61 61 64 64 64 64 64 64 64 63 63 64 64 63 63 63 62 61 61 60 59 58 57 57 56 59 58 53 54
27 21 16 14 10 17 41 44 46 45 45 51 53 51 53 57 59 59 59 59 58 59 60 60 61 61 61 62 62 62 63 63 63 63 61 60 60 60 59 59 59 57 57 57 56 56 59 54 53
20 18 14 13 16 29 44 42 45 51 52 54 56 55 58 59 58 58 57 58 57 57 58 58 58 59 61 61 61 60 62 62 61 60 60 59 59 59 56 57 56 56 56 57 55 53 53 54 54
22 18 16 17 19 37 41 42 44 47 51 52 55 58 59 58 57 56 55 55 56 56 57 59 58 57 60 60 58 58 59 59 58 58 57 57 57 55 57 57 57 57 55 53 52 49 48 46 43
20 18 18 18 36 42 39 41 44 45 44 52 52 56 57 57 57 55 55 55 56 56 57 58 58 57 59 59 57 57 57 56 56 56 55 56 57 57 56 55 51 48 46 43 42 41 41 39 38
20 19 20 29 42 41 39 40 42 44 47 54 56 57 55 55 56 56 56 56 56 55 56 57 58 59 60 59 57 55 55 55 55 54 55 57 57 55 54 51 48 46 45 43 42 41 40 37 36
18 17 25 34 42 42 41 41 46 51 53 55 56 55 55 56 55 57 57 57 56 54 55 58 60 62 60 57 56 55 56 56 56 56 58 56 55 53 50 47 46 45 44 42 41 40 38 36 35
19 24 34 40 41 41 42 43 44 52 54 54 54 53 52 53 54 55 56 55 54 54 55 56 59 62 60 56 56 57 59 59 59 58 57 55 54 50 47 46 45 43 42 42 41 40 38 36 34
29 31 35 37 37 36 40 37 42 53 53 52 52 50 50 53 54 54 55 54 53 54 54 56 59 62 59 56 57 59 58 58 58 58 57 54 51 48 46 45 44 43 42 42 41 40 37 35 34
22 25 21 37 37 37 32 32 45 54 53 51 51 51 51 52 55 54 55 56 56 56 57 59 60 60 58 57 57 58 57 57 57 56 55 53 50 47 44 44 43 43 42 40 39 37 36 35 34
18 14 16 31 37 35 33 30 42 51 53 52 52 52 52 53 54 55 54 55 57 58 59 60 61 59 58 57 57 57 55 54 55 55 53 50 48 45 44 43 42 41 40 38 36 36 34 33 35
19 19 19 21 32 35 33 29 40 46 49 51 53 53 54 53 53 54 53 55 57 59 60 60 59 58 57 56 56 54 52 52 52 50 49 49 45 44 43 42 41 40 38 36 34 34 36 36 35
23 22 21 21 21 32 32 32 37 43 46 48 50 51 54 54 54 54 54 55 58 59 59 59 58 57 56 55 54 52 51 51 49 47 46 48 45 43 42 42 41 39 37 36 36 35 35 34 34
25 22 20 21 18 27 27 31 34 42 45 47 47 49 50 52 54 54 54 56 58 59 59 58 58 57 56 55 54 52 51 51 47 45 45 45 43 42 42 40 39 37 35 35 36 35 35 35 34
22 22 21 21 17 22 24 25 34 40 42 44 45 46 47 47 52 54 55 56 57 58 58 58 57 57 56 55 54 50 48 46 45 43 43 43 42 42 38 35 32 31 32 32 35 36 34 33 33
21 24 23 22 17 12 20 13 23 37 41 41 42 42 45 45 49 52 55 56 57 57 58 58 57 56 56 56 54 51 49 46 44 42 42 38 35 32 32 32 33 33 34 34 37 37 36 35 33
22 25 24 23 20 21 23 18 18 32 37 40 42 41 41 44 45 49 51 55 56 56 57 58 58 57 56 56 55 52 50 47 44 41 34 32 31 31 32 33 33 34 36 37 36 36 35 36 35
26 24 22 25 23 17 23 22 20 23 31 37 40 41 40 42 44 46 48 53 55 55 56 58 58 57 57 55 55 52 48 46 42 36 31 31 30 31 31 32 31 34 37 36 36 36 36 35 35
25 21 15 11 15 14 27 25 21 22 24 30 35 38 39 40 43 46 48 50 54 55 56 57 58 57 57 56 54 52 49 45 41 35 31 28 29 30 29 30 30 34 37 37 36 36 35 35 35
24 22 17 11 10 14 28 19 16 27 28 30 30 30 34 40 42 47 51 52 54 55 56 57 57 57 56 56 54 51 48 45 41 33 31 29 29 29 30 30 30 30 34 35 37 36 36 36 35
25 22 23 25 30 25 21 23 23 25 30 33 33 35 34 42 43 46 53 54 55 56 56 57 56 56 54 54 51 49 46 43 38 36 32 31 31 30 31 30 31 30 28 30 33 34 36 37 35
27 29 23 25 18 17 19 20 15 17 26 32 34 36 38 42 46 48 53 55 56 56 57 57 55 53 51 50 48 45 43 42 39 34 32 33 32 30 31 31 30 29 28 29 31 32 35 36 35
26 24 24 24 22 15 15 16 21 18 25 27 29 35 38 44 48 51 54 55 55 55 54 53 51 49 47 45 43 41 40 37 36 34 35 31 31 32 32 30 29 28 28 30 30 33 35 32 29
26 24 24 20 18 23 22 18 23 19 21 25 23 29 35 42 48 51 52 53 53 53 51 51 46 43 41 40 39 38 36 37 35 32 31 31 31 31 29 30 28 28 28 30 30 28 27 27 27

GFSSGP_sfc_30mbdewp_033.txt.gz
Dewpoint
52 42 39 28 19 17 10 11 16 19 44 53 57 54 52 54 51 45 64 65 67 66 65 66 68 67 67 67 66 65 65 64 63 63 63 62 62 62 62 61 61 61 61 62 62 62 62 61 63
41 35 33 23 11 4 2 13 32 43 47 51 53 57 55 55 59 61 62 66 67 66 65 64 67 67 66 66 65 65 64 63 63 62 63 62 63 62 62 61 61 60 60 59 60 62 63 63 65
39 39 31 22 12 5 6 13 42 46 48 48 48 56 57 56 61 62 65 67 67 66 65 64 67 66 66 65 65 64 63 63 62 62 62 62 63 62 62 61 61 60 59 56 57 59 62 63 63
36 34 18 14 12 10 9 16 45 44 47 47 51 53 59 62 63 64 66 67 66 66 65 67 67 67 66 65 64 63 63 62 62 62 62 62 62 62 62 62 61 60 59 56 56 58 59 60 61
26 22 18 10 9 8 15 44 47 46 46 49 52 52 54 61 65 66 66 66 66 66 66 66 66 66 66 65 64 64 63 63 62 62 62 62 62 63 63 62 61 61 60 58 56 59 60 59 59
26 18 13 7 7 12 24 47 46 47 48 50 52 52 56 62 62 62 62 63 64 65 66 66 66 65 65 65 64 63 64 64 63 63 63 63 63 63 62 62 61 60 61 61 59 56 59 58 58
26 21 15 14 15 15 38 47 45 46 47 48 53 50 56 58 60 60 60 61 62 62 64 65 65 64 62 64 64 64 65 64 64 64 64 64 62 61 61 60 60 59 59 60 59 57 58 59 58
27 21 17 16 12 13 41 44 47 46 47 53 54 51 52 57 59 59 59 60 60 60 61 61 60 61 60 61 63 64 64 64 64 64 62 61 61 60 60 59 58 58 59 59 61 57 58 59 58
22 19 15 14 13 25 43 42 47 52 52 53 54 56 57 58 58 57 57 57 57 58 57 58 57 59 59 61 62 63 63 63 62 61 60 58 55 56 55 56 57 58 59 58 58 56 55 53 53
23 19 16 17 17 33 41 42 44 48 51 52 55 57 58 57 56 55 54 54 55 55 56 57 58 58 59 57 59 61 61 60 59 58 57 56 57 56 55 57 59 58 55 54 52 50 46 43 41
21 18 19 18 21 41 39 41 45 47 46 51 52 55 56 56 55 55 55 54 54 53 54 56 55 55 57 58 57 58 58 58 58 58 57 58 58 57 56 54 50 48 47 42 43 41 40 41 40
20 21 20 27 42 41 39 40 44 46 46 52 56 56 56 55 54 54 55 55 54 54 56 57 57 55 57 57 56 56 55 56 57 56 57 58 57 56 55 49 48 47 45 45 43 42 42 41 40
21 19 22 25 41 42 42 42 45 49 54 56 56 55 55 55 55 55 55 55 55 54 55 56 57 56 59 58 56 56 55 54 55 55 58 58 57 56 50 49 47 45 44 44 42 41 39 39 38
21 24 36 40 41 42 44 47 46 51 54 54 55 54 55 55 56 56 56 55 52 54 54 55 55 58 60 57 56 55 57 57 57 58 58 57 56 52 49 48 46 44 44 43 42 41 38 37 37
29 31 36 37 40 39 41 37 44 51 53 52 53 51 53 54 55 56 56 56 51 51 53 56 58 61 60 57 56 58 59 59 58 59 57 56 53 51 49 46 45 44 45 44 42 40 39 37 35
22 24 22 33 39 39 33 33 49 52 50 49 50 50 51 53 53 54 56 55 52 53 54 56 58 61 60 57 57 59 59 59 59 59 57 54 51 50 49 46 45 45 44 42 40 39 37 35 35
20 15 18 29 38 36 34 33 47 52 50 48 49 48 49 52 53 54 55 54 52 54 54 56 58 60 60 58 58 59 59 58 59 58 57 53 50 48 47 45 45 44 41 40 38 37 35 32 34
20 20 21 23 33 35 32 31 46 51 50 49 49 49 50 50 52 54 54 54 53 54 56 56 59 60 60 58 58 58 56 56 57 56 54 52 48 47 46 44 44 41 39 38 37 36 37 36 36
23 22 21 22 21 30 32 32 41 49 51 51 51 51 52 51 51 54 55 55 55 56 56 58 59 60 59 57 56 56 55 54 53 52 51 49 46 46 44 43 42 41 39 38 39 36 36 35 36
25 23 21 23 22 28 27 32 37 45 48 48 49 51 51 52 53 54 55 54 55 55 57 58 59 59 58 57 56 55 54 53 50 48 50 47 46 44 44 43 41 40 38 38 38 37 36 35 36
24 22 22 22 19 23 24 25 35 41 43 45 47 49 50 51 52 54 54 54 54 55 57 59 59 59 58 57 56 53 52 51 47 46 47 45 45 44 43 42 39 36 34 33 37 37 35 33 35
20 24 23 23 18 13 21 13 18 38 41 42 44 46 48 49 50 52 54 54 55 56 58 59 59 58 58 57 55 53 52 50 48 46 46 44 44 42 39 36 35 35 35 35 37 38 39 37 32
22 25 25 23 20 22 23 16 18 33 37 41 43 44 46 47 48 50 53 54 55 56 58 59 59 58 58 57 56 54 53 52 48 45 44 40 39 37 35 35 36 35 35 38 38 40 38 37 34
26 25 22 26 24 18 23 22 19 21 26 34 40 43 44 44 46 47 51 54 56 58 58 59 59 58 57 57 56 54 53 49 47 43 40 38 36 35 35 34 35 36 37 38 39 39 39 36 35
25 22 19 11 18 15 28 25 21 22 24 27 31 40 43 44 44 45 47 50 54 56 57 58 58 58 57 56 56 55 52 48 46 41 40 37 34 33 34 34 34 37 39 39 39 38 37 37 35
24 23 18 12 11 14 28 20 16 26 29 30 31 31 34 42 43 44 45 47 51 56 57 57 58 57 52 57 56 55 51 50 47 42 42 38 36 32 33 33 35 36 38 38 38 38 37 38 37
24 22 25 25 30 24 22 23 23 22 25 33 35 36 35 34 40 42 44 47 50 55 56 57 57 57 57 57 56 55 53 51 47 43 42 39 35 33 34 35 34 34 34 37 37 35 36 38 39
27 28 24 25 18 17 20 21 18 17 20 27 30 31 37 40 41 43 46 50 52 54 55 57 57 56 56 57 56 55 54 51 49 45 42 37 35 32 34 34 33 32 32 32 34 33 35 36 37
27 26 25 25 23 17 16 17 22 20 20 27 26 30 35 40 44 45 48 53 54 55 55 56 57 57 56 56 55 54 52 51 48 44 41 38 37 33 33 34 32 31 31 32 33 33 33 35 36
26 26 25 20 20 23 22 19 24 24 23 24 26 26 33 37 44 48 51 53 55 55 55 56 56 55 54 52 51 51 49 47 45 44 42 40 35 33 33 33 31 31 30 32 32 33 31 34 33

GFSSGP_sfc_30mbdewp_036.txt.gz
Dewpoint
51 38 31 28 16 9 8 5 11 25 27 49 54 50 43 52 45 43 63 65 65 62 61 65 68 68 68 67 67 66 65 64 64 64 63 62 63 63 62 63 63 64 63 62 62 62 62 60 61
33 29 29 20 8 5 4 9 16 31 40 48 52 53 51 53 56 59 63 65 65 63 61 60 68 67 67 66 66 65 64 64 64 63 63 63 63 63 63 63 64 64 64 63 61 62 62 62 63
34 34 23 15 6 3 4 14 26 36 44 47 47 55 54 55 58 60 63 66 65 64 62 61 67 67 67 66 65 65 64 64 64 63 64 63 63 63 63 62 62 62 62 62 62 63 64 63 63
30 29 20 9 5 6 6 22 40 41 44 46 49 51 57 62 63 62 65 67 66 64 62 66 67 66 66 66 65 64 63 63 63 64 64 63 63 63 63 62 61 60 60 59 61 62 62 62 61
26 21 13 8 7 5 12 28 42 41 44 46 49 50 54 61 64 65 65 66 66 64 64 65 66 66 66 65 64 64 64 63 63 63 63 63 64 64 63 62 62 61 60 59 59 60 61 61 61
22 18 10 5 3 11 23 39 44 44 46 49 49 50 56 61 61 62 65 66 65 65 64 65 65 66 65 65 64 64 64 64 63 64 63 64 64 64 63 63 63 62 60 59 61 60 60 60 59
21 14 8 7 17 21 36 44 43 44 45 48 52 49 57 58 60 61 62 63 64 66 66 65 64 63 64 64 64 64 64 64 64 64 64 64 63 62 61 61 61 61 60 59 60 60 60 59 58
22 18 10 15 16 22 38 43 46 45 46 52 53 49 53 57 59 60 61 60 61 63 64 62 61 60 58 62 65 65 65 65 65 64 63 62 61 60 60 59 60 61 62 60 59 60 60 57 56
23 13 10 16 19 22 37 39 46 49 50 52 54 54 57 58 59 58 58 57 58 59 60 60 58 57 56 56 63 64 64 64 63 62 60 55 49 49 51 58 61 60 61 59 58 57 56 54 53
21 13 11 16 16 19 35 39 44 46 48 51 55 57 58 58 57 57 56 55 55 56 57 58 56 55 56 55 58 61 60 57 57 54 51 50 52 52 51 58 58 58 57 56 53 48 46 45 43
20 15 17 17 20 22 33 39 43 44 44 47 52 55 56 56 55 55 55 54 54 55 56 57 57 58 57 55 57 59 58 59 58 59 56 55 55 55 54 54 50 49 49 45 44 43 43 44 42
19 20 20 20 29 33 35 40 42 45 50 51 55 56 55 55 55 53 53 53 53 54 54 54 56 55 56 57 56 57 55 56 56 56 57 56 53 54 53 51 50 48 47 47 45 45 45 43 42
21 21 22 28 29 39 40 39 42 48 52 56 56 56 55 54 54 54 53 53 51 49 51 53 55 55 56 57 51 53 54 53 52 53 50 50 51 54 53 51 49 47 47 47 45 44 43 42 41
23 26 34 33 38 41 40 42 43 49 52 53 53 54 54 54 54 54 52 52 50 48 50 53 52 52 51 50 53 51 53 51 52 53 54 56 54 55 52 51 49 47 47 46 45 43 41 39 39
25 31 29 34 38 39 39 36 41 47 50 51 49 49 53 53 54 54 54 53 52 52 53 53 52 52 51 52 52 50 51 52 51 55 59 58 56 55 53 50 48 47 47 46 44 42 41 39 35
22 25 25 32 35 37 38 31 45 45 45 45 46 48 49 52 53 54 54 51 52 52 52 52 53 55 57 58 54 50 53 53 53 57 58 58 55 54 52 50 48 47 46 44 42 40 38 34 30
19 16 19 29 32 35 35 29 43 46 42 44 42 42 46 49 49 52 50 47 48 49 51 50 53 55 58 58 54 54 55 58 57 60 59 56 54 52 51 49 48 47 44 43 41 38 34 30 28
15 16 19 25 32 34 31 27 42 47 44 43 43 41 42 45 46 49 51 49 49 50 52 52 55 57 59 58 56 52 57 59 60 59 58 56 53 51 51 49 48 45 42 41 39 36 33 29 28
19 18 17 19 25 27 23 24 36 45 46 45 45 45 42 43 45 48 49 50 50 51 53 53 55 57 60 57 52 52 55 57 58 58 57 56 53 51 49 47 46 43 41 40 39 35 31 31 32
23 18 17 20 22 24 22 21 29 42 46 47 46 46 47 46 44 49 51 50 50 51 53 54 55 57 59 56 52 53 56 57 56 55 55 54 52 50 47 46 44 43 42 41 38 32 32 33 33
23 18 19 21 21 23 21 20 28 35 41 45 46 45 45 45 47 49 51 52 51 50 52 53 55 57 59 57 54 54 57 57 54 52 52 51 50 48 46 46 44 43 40 38 35 34 35 35 35
19 22 23 22 19 14 21 11 21 28 35 39 42 43 45 44 45 47 51 52 53 52 53 54 54 56 58 58 54 53 53 54 54 52 50 49 48 47 45 45 44 41 36 34 33 37 37 36 35
20 26 25 23 21 21 20 13 17 26 28 32 38 41 42 43 44 45 47 51 52 52 53 55 55 56 58 58 57 56 55 55 55 52 49 49 49 47 45 43 41 38 35 34 36 38 37 37 32
27 25 24 26 22 17 18 18 14 18 18 21 28 37 41 42 44 45 47 49 51 53 54 56 56 56 58 59 59 58 56 56 54 51 49 48 47 45 42 39 39 37 34 37 41 39 39 35 32
25 21 17 15 16 15 24 21 16 18 19 22 25 27 36 41 43 44 46 48 50 52 56 57 57 57 59 59 59 58 57 57 54 52 49 46 43 42 41 38 37 36 36 41 39 40 36 35 32
22 21 18 14 12 11 25 15 15 21 25 28 31 30 31 37 41 43 44 46 48 52 56 57 58 57 59 58 58 59 58 57 55 53 48 43 43 42 41 38 36 35 40 39 39 35 38 35 33
24 21 23 24 29 19 16 18 19 20 23 27 29 34 32 32 33 39 42 44 47 50 55 57 57 57 58 57 54 57 57 56 54 52 47 44 44 42 39 38 36 39 37 38 35 36 34 33 36
27 26 21 23 18 15 15 16 13 16 17 21 22 24 32 37 36 37 39 42 46 48 53 56 57 56 57 54 56 56 56 56 55 53 48 47 46 43 39 38 36 38 37 35 35 33 32 35 35
27 24 25 24 23 16 14 15 19 18 18 20 23 27 29 32 39 41 43 45 47 49 52 54 56 56 56 54 56 57 57 56 56 55 51 49 47 43 39 38 36 35 35 32 33 30 33 32 31
23 20 23 20 18 23 24 18 20 21 25 24 26 26 30 34 37 43 46 49 51 52 52 53 55 55 55 56 57 57 57 57 55 53 51 50 46 43 39 38 35 35 31 29 30 31 27 32 33

GFSSGP_sfc_30mbdewp_042.txt.gz
Dewpoint
49 45 41 33 19 17 10 8 8 5 16 41 45 46 41 49 32 42 59 59 61 66 69 69 70 70 70 69 69 68 66 66 66 65 64 63 65 65 65 65 65 65 62 59 59 58 57 56 58
39 37 26 18 16 13 7 11 6 16 39 38 36 47 45 51 57 58 61 62 67 65 67 69 69 69 69 68 68 67 66 66 65 64 64 65 65 66 66 66 65 65 62 59 59 58 58 58 60
38 30 21 18 16 10 5 11 13 25 31 40 37 37 51 53 54 57 61 64 64 64 67 68 68 68 68 68 67 66 65 65 64 64 65 65 65 66 67 66 65 65 63 59 59 58 59 60 59
35 26 22 13 3 5 6 11 17 24 40 38 33 48 54 59 58 56 58 64 64 65 67 68 68 68 67 67 66 66 65 64 64 65 65 65 66 66 67 66 65 65 63 59 59 59 60 60 57
25 18 15 11 11 6 14 17 17 27 41 37 40 47 49 59 63 63 60 65 62 66 68 68 68 67 67 66 66 65 65 65 65 65 65 65 65 65 65 66 65 65 63 60 59 60 60 58 56
22 19 10 9 10 26 37 39 35 26 41 38 39 43 46 61 61 63 65 64 64 65 67 67 67 67 66 66 66 65 65 66 66 65 65 65 65 64 64 65 64 64 63 62 62 61 59 57 54
18 15 12 9 10 28 35 39 40 38 42 45 44 46 55 58 61 62 63 66 65 65 66 65 66 66 65 65 65 65 66 66 66 66 66 65 64 64 63 64 64 64 62 62 61 59 59 56 52
17 14 11 8 17 24 35 39 41 35 47 50 50 47 53 57 61 61 61 63 64 64 64 63 64 64 64 64 65 65 65 65 65 64 63 63 62 62 62 62 63 62 62 61 60 59 57 52 48
17 13 12 12 14 21 28 36 44 42 40 54 56 56 57 59 60 60 60 59 61 62 62 63 63 62 63 64 64 65 65 64 63 62 60 57 57 55 58 61 62 62 61 60 59 56 51 48 45
14 14 14 13 13 17 17 28 42 42 37 50 49 56 58 58 58 57 57 57 57 58 59 61 62 62 62 62 63 64 63 61 60 58 56 56 56 58 60 61 60 60 60 59 55 52 50 49 45
14 14 16 13 20 19 20 35 41 38 44 51 44 54 55 57 56 55 56 56 56 56 58 58 58 58 57 58 60 59 59 58 57 57 59 58 58 58 59 59 57 55 53 50 49 51 50 50 47
13 13 16 16 18 21 20 35 42 47 50 54 55 55 55 55 54 54 54 54 55 55 56 56 56 57 57 58 59 59 58 57 56 59 59 58 58 56 55 55 55 54 52 47 48 52 49 46 44
15 15 17 20 24 24 29 32 35 47 51 54 54 55 55 53 53 53 54 54 54 54 54 54 54 54 54 55 56 57 56 55 58 58 58 57 57 58 56 55 54 53 53 52 51 49 48 45 44
20 20 18 23 22 27 32 43 43 50 51 52 52 54 55 54 52 52 52 52 52 53 53 54 54 54 53 53 52 52 54 53 55 56 55 55 57 57 56 56 54 54 52 52 50 49 46 45 43
18 17 19 24 26 30 36 34 40 46 47 45 47 50 52 53 53 51 51 50 52 52 53 53 54 53 52 52 52 54 52 50 46 49 55 57 54 57 57 54 53 53 53 52 50 47 44 41 38
19 16 17 28 29 34 34 29 37 39 43 42 41 45 51 53 51 49 50 50 51 51 51 53 55 53 53 54 51 50 52 47 45 49 56 55 55 57 57 56 54 53 52 50 49 46 44 41 37
15 15 16 23 26 33 35 37 39 42 41 42 43 47 50 52 51 50 48 49 49 50 51 52 52 51 51 51 51 50 51 53 51 51 54 58 57 57 57 56 54 53 52 51 49 45 43 39 36
15 18 19 25 29 25 38 39 42 46 37 38 40 38 45 47 51 52 48 48 48 48 49 50 50 49 50 50 52 52 53 52 51 50 57 57 58 58 58 57 54 52 52 49 47 43 40 39 39
13 16 20 26 30 28 30 38 44 45 39 38 36 35 40 44 46 52 49 49 49 50 47 47 49 51 52 52 53 53 50 52 53 56 57 58 58 57 57 57 54 53 52 49 48 44 39 35 40
13 12 15 15 22 19 18 18 36 37 38 40 39 38 39 44 47 47 49 50 51 50 49 51 50 52 54 55 53 53 51 51 54 58 59 59 58 57 56 56 55 53 51 49 46 44 41 41 42
12 13 14 19 23 21 18 16 18 36 35 38 41 41 39 41 47 46 48 50 51 49 50 51 52 54 56 55 54 51 51 50 52 55 58 58 58 57 55 56 54 53 52 49 47 45 42 40 42
11 13 17 21 19 14 20 17 19 30 32 36 37 39 38 38 42 46 47 48 49 51 51 51 51 51 54 55 55 50 48 49 53 54 56 57 58 57 55 54 53 52 51 48 47 46 43 43 43
13 24 24 20 16 18 17 15 11 20 23 33 38 39 39 39 39 43 46 48 49 50 52 52 51 52 54 56 57 55 50 54 55 56 55 56 57 56 56 52 51 52 50 49 47 43 43 45 42
19 24 24 21 17 18 18 14 18 23 25 24 31 37 39 39 39 40 45 47 49 50 52 54 53 53 54 57 57 56 52 54 55 55 56 56 55 54 53 51 52 53 52 48 45 44 46 43 43
19 19 18 17 18 19 20 15 16 26 25 25 23 26 38 39 38 40 41 45 47 49 52 53 54 53 54 57 58 57 56 56 55 55 56 57 54 53 53 53 52 52 49 46 42 45 45 45 42
20 19 20 23 26 24 26 18 15 22 20 19 20 20 29 38 39 39 39 43 45 49 51 52 53 52 53 56 58 58 58 58 58 58 58 56 55 55 55 53 50 47 45 44 44 47 45 43 41
20 19 21 32 34 30 31 20 14 18 16 17 18 23 26 27 37 39 39 40 44 48 51 53 53 52 53 54 59 59 59 58 58 58 58 57 56 55 52 49 47 45 45 44 45 43 43 41 41
19 23 23 23 24 24 16 14 15 18 15 18 17 20 28 29 28 35 38 39 42 48 51 54 53 53 53 55 59 60 60 58 57 58 59 57 56 49 49 48 46 45 44 44 43 43 42 38 38
19 19 25 26 22 21 19 19 28 29 29 18 17 20 23 27 32 35 36 37 40 43 47 54 54 54 55 56 60 60 59 58 59 59 59 58 51 50 48 48 46 44 44 43 42 41 39 37 37
20 20 21 24 22 26 28 24 22 24 27 20 22 22 23 25 28 36 39 39 40 41 44 55 56 56 57 59 60 59 58 56 57 57 58 54 51 50 48 47 45 43 44 43 42 39 32 37 38

GFSSGP_sfc_30mbdewp_045.txt.gz
Dewpoint
46 43 48 39 28 21 16 16 16 14 28 42 45 38 43 51 51 48 60 60 60 62 63 68 70 70 69 69 68 67 66 66 65 65 66 67 66 66 67 66 63 62 60 57 54 55 56 58 59
44 36 40 34 17 15 16 16 15 33 38 44 44 43 43 50 52 58 61 59 61 59 59 67 68 69 69 68 67 67 66 65 64 65 66 66 66 66 66 65 63 62 60 56 54 55 58 59 60
44 36 28 20 17 15 14 13 16 35 38 37 39 53 53 52 53 57 61 58 66 66 65 68 68 69 69 68 67 66 66 64 64 65 66 66 66 66 66 65 63 62 60 56 55 56 58 58 56
38 33 28 18 15 14 17 30 32 32 36 44 49 51 54 58 58 62 58 65 65 66 66 68 68 69 68 67 66 66 65 64 65 66 66 66 67 66 66 65 63 62 60 57 56 57 58 56 55
38 28 19 20 19 18 33 34 32 41 43 47 44 41 50 58 62 63 64 64 65 64 63 66 67 67 66 66 66 66 65 65 66 66 67 67 67 67 66 66 64 62 60 58 58 58 56 55 52
28 25 20 17 17 30 32 35 31 40 46 46 46 45 46 60 60 62 65 64 65 64 66 67 67 67 66 67 66 66 66 66 66 66 66 66 67 67 67 66 64 63 62 62 60 58 54 52 50
23 20 17 15 13 27 30 37 38 40 44 43 48 44 50 58 61 62 64 64 64 66 66 66 66 67 66 66 66 66 66 66 66 66 66 65 65 66 66 66 64 63 63 61 59 56 52 50 48
23 19 13 13 13 24 34 39 39 43 46 50 49 48 48 58 61 61 63 64 64 64 64 63 64 65 65 65 64 66 66 66 65 65 64 63 64 64 65 64 63 62 61 60 58 53 49 46 44
23 14 13 14 14 23 35 40 44 44 51 53 55 55 58 60 61 60 60 61 61 62 62 62 62 62 63 62 64 65 65 64 63 62 62 59 59 60 62 63 63 62 60 58 55 52 50 48 47
19 14 14 16 19 19 37 40 42 44 42 49 54 57 59 58 58 57 57 57 59 59 61 61 60 60 61 61 64 64 63 61 60 58 55 55 59 59 61 61 61 60 59 57 56 53 49 46 45
18 14 15 16 20 21 20 38 45 41 40 48 48 55 57 56 56 56 56 56 56 58 59 61 61 61 61 61 59 62 61 60 58 57 58 59 60 59 58 58 58 58 56 55 55 51 48 48 47
16 14 14 17 24 24 34 42 46 48 51 55 54 55 56 55 54 54 54 55 55 55 56 59 59 60 60 60 59 59 59 57 57 58 58 57 56 56 56 54 53 51 50 47 48 49 49 45 43
16 15 18 19 20 25 41 46 47 49 53 53 55 55 55 53 52 54 54 54 54 53 54 56 57 57 58 58 59 59 58 56 58 58 57 57 55 54 55 55 52 52 51 48 51 48 45 44 40
21 19 19 19 19 29 36 40 39 49 53 53 54 54 53 52 52 52 52 53 53 53 53 54 54 55 55 55 56 55 55 56 58 57 56 57 56 55 55 55 53 53 53 52 49 48 46 45 40
25 21 18 17 27 31 37 34 35 43 44 49 52 51 53 52 51 52 52 52 52 53 53 53 53 54 53 53 54 53 53 50 45 46 51 54 56 58 56 56 55 54 52 52 50 49 45 42 38
22 20 18 17 27 35 33 31 37 39 43 45 48 51 52 52 51 51 51 51 52 52 52 53 54 53 53 52 53 53 53 50 45 43 52 52 54 57 57 54 54 54 52 49 48 44 42 41 37
22 18 16 19 29 34 33 33 36 40 43 42 44 49 52 51 49 50 50 51 51 51 53 52 53 53 51 52 52 51 50 51 47 44 48 55 54 58 56 57 56 53 51 50 48 47 44 39 37
20 18 19 22 29 35 35 33 35 38 44 41 44 49 51 50 48 49 50 50 51 51 53 51 51 51 50 50 48 47 48 46 44 49 48 54 57 57 57 58 56 52 51 51 49 45 42 39 36
20 17 15 25 28 31 34 35 35 35 43 42 45 44 50 51 50 48 49 49 50 50 51 50 50 50 48 48 47 46 47 49 52 52 54 54 52 57 58 58 55 52 51 50 47 44 38 36 39
22 18 13 21 27 28 28 35 37 38 42 39 38 44 44 49 50 48 48 48 48 49 49 49 48 49 49 49 49 49 50 52 52 55 56 55 53 58 58 57 54 53 52 50 48 43 39 38 40
19 15 13 15 23 23 22 22 37 40 44 40 36 38 42 46 51 49 47 47 48 47 47 48 48 48 49 49 52 53 53 50 51 54 56 56 58 58 58 57 55 54 53 51 47 44 41 39 42
17 16 18 21 21 18 21 17 35 40 42 40 38 36 38 44 48 49 48 50 49 49 47 47 48 48 49 53 54 51 51 48 50 53 57 58 59 58 57 56 56 55 54 51 47 46 44 44 42
20 21 21 21 22 21 17 21 24 36 37 39 40 40 40 43 47 47 48 50 50 49 49 50 50 49 52 54 54 54 51 50 50 53 56 58 58 58 57 56 55 54 53 50 47 47 46 45 44
18 23 23 25 24 19 18 21 19 30 27 35 38 40 40 42 47 46 49 50 50 49 48 49 50 51 53 54 55 56 54 50 52 54 55 56 57 57 57 54 54 53 52 51 50 47 46 45 44
19 21 21 20 20 18 31 26 24 24 26 35 32 39 40 40 46 46 46 48 48 50 49 49 50 50 51 52 55 55 55 54 54 54 55 56 55 55 55 54 52 52 52 50 47 46 46 46 43
19 19 19 17 20 26 32 25 22 23 24 24 29 38 39 39 40 45 46 47 48 48 50 51 51 50 51 53 54 55 56 55 55 56 56 56 56 56 55 53 53 53 52 48 44 47 47 46 45
21 20 24 31 34 29 30 29 30 25 25 17 18 23 36 39 39 40 45 47 48 48 49 51 52 52 53 55 56 56 57 57 56 56 57 57 57 55 54 54 53 51 50 46 45 46 47 45 43
20 24 23 30 23 24 28 29 26 22 22 20 18 18 24 32 39 39 41 45 47 49 50 51 52 53 53 54 57 57 57 57 57 58 57 56 56 54 54 52 51 49 47 46 45 45 45 43 42
20 20 21 28 28 24 20 21 28 26 26 23 22 25 28 29 35 38 41 44 46 50 51 53 52 53 54 54 56 58 58 58 57 57 57 57 54 52 51 50 48 47 45 45 45 44 43 40 39
24 20 21 22 23 28 25 23 29 27 26 22 22 22 26 29 32 38 44 45 47 52 53 52 53 56 56 55 56 59 59 58 57 57 57 57 54 51 50 49 47 46 45 44 44 42 40 40 41

GFSSGP_sfc_30mbdewp_051.txt.gz
Dewpoint
52 53 45 35 23 23 21 18 20 31 30 43 46 47 50 52 51 42 59 60 64 68 69 69 69 68 68 67 67 66 67 67 68 67 66 66 65 64 63 62 62 63 62 61 61 61 62 62 62
43 41 36 27 20 14 14 18 18 37 42 46 51 51 46 42 52 60 58 60 64 68 67 67 68 68 68 67 67 66 67 67 68 66 66 65 65 63 62 61 62 63 62 60 59 59 59 61 62
40 32 26 25 17 14 15 17 20 37 44 45 49 53 51 47 53 56 59 60 62 62 66 65 66 67 65 67 67 66 67 67 67 67 65 65 64 63 61 60 61 62 61 59 58 56 58 62 62
37 32 27 23 19 19 18 19 35 39 40 44 50 45 52 57 59 62 60 61 60 61 65 67 66 67 66 65 66 66 67 66 67 67 65 64 64 63 62 60 61 62 60 57 55 58 60 62 61
35 28 22 19 19 20 20 28 39 41 44 44 45 39 49 58 61 62 63 61 61 60 61 64 64 65 65 64 64 65 67 66 67 66 65 65 64 63 62 61 61 60 58 56 56 61 62 62 60
27 25 21 17 18 19 21 35 38 43 45 46 43 42 44 59 60 61 63 64 65 64 62 62 64 63 64 65 64 64 66 66 66 66 65 65 64 63 63 62 62 60 59 57 57 60 61 60 59
24 22 20 19 18 16 31 40 38 43 44 45 48 44 46 57 60 61 63 64 64 65 65 63 64 62 63 65 62 61 66 65 65 65 65 65 65 64 63 62 60 58 57 56 56 56 58 59 58
24 22 20 19 14 14 35 41 44 44 45 51 53 49 46 57 61 62 63 63 64 64 65 64 62 60 62 60 59 60 65 65 65 66 67 66 65 64 62 61 59 57 57 57 55 55 58 58 59
23 19 18 17 14 18 40 40 43 47 49 52 55 55 57 60 60 61 61 61 61 62 64 64 60 59 58 59 59 59 64 66 66 67 66 65 64 63 60 60 58 57 56 54 54 52 56 59 58
21 18 18 18 16 17 35 37 40 40 43 50 53 56 58 58 58 58 58 58 59 59 62 62 60 59 57 57 57 54 57 63 64 64 63 63 62 60 60 59 56 54 54 53 52 51 47 49 53
20 18 18 17 18 24 37 40 45 40 40 46 48 54 55 55 57 57 57 58 58 59 60 61 60 60 58 56 54 54 56 60 59 60 61 61 61 61 59 58 57 56 53 51 47 48 45 44 49
14 16 16 19 23 36 39 46 45 44 44 51 50 55 55 53 55 54 56 56 57 59 59 59 59 58 58 56 56 57 57 58 58 59 60 60 58 57 57 56 56 53 52 48 48 46 44 40 45
17 21 24 24 27 36 44 46 45 48 53 53 54 56 55 54 54 54 55 54 56 57 59 59 58 57 55 55 55 57 59 57 57 58 57 56 55 54 55 54 53 51 49 48 48 45 42 39 36
24 25 24 23 33 44 42 45 44 46 54 53 53 54 54 53 53 53 54 53 54 55 58 59 59 58 56 54 55 60 58 57 57 56 54 54 53 53 53 52 51 50 48 49 48 44 41 36 34
25 21 21 21 25 34 39 36 38 45 53 52 52 53 52 52 52 52 53 53 53 54 55 58 59 59 57 57 59 59 58 57 57 55 54 53 53 52 52 50 50 50 48 50 48 45 44 37 34
22 21 18 20 25 30 34 23 34 51 52 51 52 51 51 51 51 52 53 53 53 54 54 55 58 58 57 57 57 57 56 57 56 56 55 54 53 54 52 51 51 52 51 50 49 46 44 39 33
22 14 16 16 23 32 34 30 33 52 51 51 50 50 50 50 50 51 52 52 52 53 54 54 56 56 56 55 54 52 51 53 53 55 55 54 54 55 54 53 53 53 52 51 49 47 44 40 35
16 18 20 19 21 34 34 32 36 48 48 50 48 48 49 50 50 50 51 52 52 53 54 54 54 55 55 53 52 52 51 47 47 49 54 55 55 57 56 56 55 54 52 52 49 46 44 41 38
20 20 19 20 21 23 25 32 32 41 44 47 45 47 47 48 50 50 51 51 51 52 52 54 54 54 54 53 52 52 52 49 45 45 49 49 53 57 57 56 56 53 52 51 50 46 43 41 39
21 20 19 20 21 27 27 28 34 39 40 43 43 45 47 49 49 49 50 50 50 52 52 53 53 52 53 53 53 52 51 50 46 45 46 49 52 53 56 56 56 54 51 50 49 45 42 40 40
22 21 19 19 21 29 28 24 27 37 41 43 43 45 48 48 49 48 49 49 50 50 51 51 51 50 49 49 49 49 50 49 47 47 46 47 52 53 55 57 56 55 53 51 50 47 43 39 40
21 22 22 22 20 18 24 19 20 30 37 41 42 44 48 50 50 48 48 49 49 50 51 51 50 50 48 48 46 46 46 46 46 46 46 47 50 53 53 55 56 56 55 53 51 50 46 43 38
22 24 23 23 22 21 20 18 19 32 34 37 41 42 45 50 50 48 48 48 48 49 50 50 50 49 48 48 47 46 46 46 47 47 47 47 51 54 55 56 55 56 55 54 52 51 47 46 43
24 23 23 25 24 20 20 21 21 23 25 32 38 41 43 48 50 49 48 48 48 48 49 50 49 49 48 48 48 47 47 48 48 49 49 50 52 54 56 56 56 56 55 55 53 52 50 47 45
24 22 19 17 19 19 25 28 26 25 28 30 34 40 41 45 50 49 47 47 48 48 48 49 49 48 48 48 48 48 48 49 51 51 51 51 51 53 55 56 56 56 56 56 55 53 50 48 46
22 22 19 15 16 18 30 24 23 28 29 32 37 41 39 41 48 50 48 47 47 47 47 47 48 48 48 47 48 48 50 51 53 52 52 51 52 53 54 56 57 57 56 57 56 54 52 50 47
22 20 22 23 32 27 24 26 28 27 27 29 29 39 41 37 41 48 50 47 47 47 47 46 46 47 47 47 47 47 48 50 51 54 53 52 53 53 55 57 56 57 56 55 53 52 50 48 47
22 25 22 27 18 19 23 26 21 22 25 23 22 31 40 41 38 41 49 49 48 48 48 47 45 46 46 47 47 47 48 50 52 53 54 54 54 55 55 56 55 55 54 53 51 49 48 47 47
21 21 25 25 24 17 18 19 29 28 28 24 23 23 31 41 42 41 44 49 49 50 50 49 46 46 48 48 48 48 49 51 53 54 54 55 56 56 56 55 55 54 52 51 49 48 47 47 46
22 21 23 21 24 27 24 21 27 28 28 28 25 26 25 32 41 42 44 46 48 49 51 50 49 47 47 48 50 50 50 52 53 54 56 56 56 56 56 56 55 54 52 51 49 47 46 46 44

GFSSGP_sfc_30mbdewp_057.txt.gz
Dewpoint
51 51 42 30 19 20 17 18 22 19 33 42 49 47 43 49 45 38 60 62 64 64 63 65 68 68 69 69 69 69 69 68 68 68 68 67 66 65 64 64 63 63 61 60 60 59 59 61 61
45 41 33 25 16 14 14 18 17 19 36 44 49 50 47 42 53 58 57 60 64 64 64 66 68 68 69 68 68 69 68 68 68 68 67 65 65 65 64 64 63 62 61 59 59 59 59 61 62
37 31 26 21 18 14 15 17 18 21 39 44 44 52 51 45 52 56 59 60 64 66 66 66 68 68 68 68 68 68 68 67 67 67 66 65 65 65 65 64 64 62 62 61 59 59 60 62 62
35 31 26 22 17 19 18 19 20 28 39 43 50 45 51 56 57 61 63 62 64 67 67 67 67 67 68 68 68 68 67 67 66 66 65 65 65 65 65 64 64 63 62 61 59 60 61 62 61
31 27 21 19 19 21 21 21 21 32 41 43 45 39 46 54 60 61 62 61 64 64 66 67 66 66 67 67 68 67 67 66 66 65 65 65 65 65 64 64 63 62 63 63 61 60 61 61 60
27 26 20 16 17 20 21 22 35 39 43 45 44 42 43 59 58 59 61 63 62 63 64 64 66 66 65 65 68 67 67 66 65 65 64 65 64 64 63 63 61 61 63 63 62 61 61 60 59
26 22 18 18 18 18 19 40 35 38 43 42 47 43 47 55 58 61 62 63 64 63 63 64 64 65 64 64 66 66 66 66 65 64 64 64 64 64 63 61 62 63 63 63 61 60 60 59 59
25 23 20 20 17 15 20 38 41 41 40 51 50 44 47 56 60 62 63 63 64 64 63 64 64 63 62 63 63 63 64 65 65 64 63 64 64 63 62 61 63 65 64 62 60 60 60 59 59
24 21 18 18 17 16 32 34 44 46 45 51 53 54 56 58 60 61 61 61 61 62 63 62 62 60 62 62 61 62 64 63 65 64 64 63 62 60 57 57 62 63 63 61 60 60 59 59 58
23 21 19 20 19 18 22 33 36 39 40 44 50 55 58 58 57 58 58 58 59 59 60 61 61 61 61 62 60 61 61 61 63 64 63 62 60 57 55 58 60 61 61 61 60 60 59 55 53
23 19 21 20 20 19 19 30 38 38 36 40 44 50 56 56 56 57 58 58 59 57 58 59 59 59 59 59 60 59 59 60 60 63 62 60 58 58 57 55 54 57 59 58 58 57 53 54 52
20 20 20 18 19 25 25 38 40 40 38 49 50 52 55 54 54 56 57 58 58 57 58 59 58 57 58 57 57 57 58 60 59 63 61 58 57 56 55 52 52 51 52 55 56 54 54 54 52
19 17 18 18 22 26 39 38 40 44 47 52 53 54 54 53 52 54 56 57 58 58 58 57 57 57 56 55 56 57 59 60 59 61 59 57 55 54 53 52 49 47 49 50 51 52 52 52 52
20 18 22 25 23 29 33 39 45 43 50 52 53 53 54 53 52 53 55 56 57 58 58 58 57 57 55 54 55 57 58 58 60 60 58 57 56 55 52 50 49 49 46 45 48 50 50 50 51
25 23 22 21 22 29 40 34 37 45 51 50 51 52 52 52 52 51 53 55 56 58 58 58 58 56 54 53 55 56 57 58 58 59 58 56 55 55 53 49 49 49 48 46 44 46 47 47 47
23 22 18 19 29 35 36 22 27 44 49 48 50 52 50 51 50 51 53 54 55 56 58 58 58 56 55 53 54 55 54 56 56 58 58 55 54 55 54 50 49 50 48 45 42 39 38 38 40
22 15 17 16 25 34 35 26 31 49 48 47 49 50 50 49 50 50 52 53 54 55 56 58 57 56 56 55 55 56 55 54 55 56 56 56 54 54 52 51 52 52 50 48 45 42 39 38 37
17 18 19 16 27 32 30 26 28 40 47 47 48 49 49 48 48 49 51 53 53 54 55 56 57 56 56 56 57 58 57 56 55 56 55 56 54 53 54 53 52 51 51 50 47 46 45 40 37
19 17 17 20 21 19 20 21 23 26 44 46 48 49 50 49 49 50 51 52 53 54 54 55 56 56 56 55 55 56 55 55 56 54 55 56 54 53 54 54 54 52 51 52 50 48 46 43 41
20 19 19 21 21 19 19 21 25 30 34 41 45 48 49 48 49 50 51 52 52 52 52 54 56 56 56 56 56 56 54 54 55 55 55 55 54 53 54 54 55 54 53 54 52 49 47 45 42
22 21 21 18 20 22 24 23 22 27 35 39 44 46 47 47 48 50 50 50 51 52 53 53 55 55 56 56 57 57 56 54 53 52 54 54 56 56 55 56 57 56 55 54 54 52 49 46 44
21 23 22 20 18 14 24 18 22 22 24 30 36 43 44 46 48 49 49 49 50 51 52 53 54 55 55 56 55 54 52 51 53 52 51 52 54 55 57 56 56 57 56 55 55 53 51 50 47
19 23 22 22 20 22 21 20 21 24 23 23 27 35 43 44 47 48 49 49 49 50 50 52 53 53 54 55 54 54 52 52 52 51 49 49 51 53 52 53 54 54 57 56 55 53 52 51 50
25 22 25 26 24 20 21 20 19 20 21 22 25 31 40 44 46 48 49 50 49 50 50 51 52 51 52 53 53 53 52 52 50 51 50 49 49 51 52 51 52 53 56 56 56 56 54 52 51
24 23 18 19 21 19 24 21 20 22 24 25 26 28 36 43 46 48 49 49 49 49 50 51 51 51 51 51 51 52 51 52 51 50 50 50 49 49 51 53 53 53 54 54 55 56 55 55 54
24 21 19 16 18 18 28 21 20 27 29 30 31 32 35 42 46 48 48 49 49 49 50 50 50 51 51 50 50 51 52 52 51 51 50 50 49 48 49 52 53 53 53 54 55 55 56 56 55
24 22 24 23 29 23 23 25 25 24 24 25 28 28 32 39 44 47 48 49 49 49 49 49 49 50 51 51 50 49 50 50 50 50 51 51 51 51 51 51 51 52 52 53 53 54 55 56 55
24 26 22 24 17 17 21 23 19 20 20 23 28 25 31 38 43 46 48 49 49 49 49 50 49 49 50 51 51 50 50 49 50 50 50 50 50 51 51 51 51 51 52 53 54 55 56 56 55
23 22 25 24 23 18 17 20 27 24 24 25 29 28 27 30 40 44 48 49 49 49 49 49 49 49 49 50 50 50 50 50 50 50 50 50 51 51 51 51 51 51 53 55 55 55 55 55 54
23 23 24 21 21 26 23 19 24 26 29 31 29 29 29 28 36 41 44 49 49 48 48 48 48 48 49 50 50 50 50 50 50 50 50 51 51 52 52 52 52 52 54 54 55 55 55 55 53

GFSSGP_sfc_30mbdewp_063.txt.gz
Dewpoint
46 42 39 31 22 14 11 12 14 13 16 29 35 32 35 34 30 33 56 60 63 63 65 65 69 70 71 70 70 70 69 69 68 68 68 69 68 68 68 67 66 66 65 64 64 64 63 63 64
37 34 32 28 13 9 8 13 12 14 18 33 35 34 32 32 40 43 53 60 61 63 64 63 67 69 70 70 69 70 69 69 68 69 69 69 68 68 66 66 66 65 64 62 63 63 62 62 63
43 31 26 18 14 8 9 13 12 15 21 26 27 33 33 35 46 49 57 60 62 64 63 64 66 68 69 69 70 69 69 68 68 69 69 68 68 67 66 65 65 64 62 60 61 62 62 62 62
28 23 24 17 10 12 13 12 15 16 20 26 27 26 39 49 50 55 58 59 60 64 64 66 65 67 68 68 69 67 69 68 68 68 68 68 67 66 65 64 64 63 61 60 60 62 62 62 61
25 24 19 15 13 13 16 14 16 17 20 28 29 27 32 50 53 54 56 59 59 63 66 66 64 66 68 67 66 67 68 68 68 68 67 67 66 65 64 63 62 62 61 61 62 62 61 61 60
22 19 16 10 8 12 16 17 18 18 19 27 32 31 33 52 50 54 57 58 60 63 66 66 65 64 65 66 65 64 67 68 67 67 67 66 65 64 63 63 63 62 62 62 63 62 61 61 59
21 18 15 9 8 12 16 23 20 20 22 22 32 31 35 49 53 56 57 60 61 63 66 66 66 65 63 63 64 65 67 67 67 67 66 66 65 64 64 63 63 62 63 63 62 62 61 60 59
21 18 14 11 9 11 18 23 21 21 20 36 32 29 30 52 56 57 57 60 62 64 65 65 65 64 63 62 63 64 66 66 66 66 66 66 65 65 65 64 63 63 63 63 62 61 61 60 58
20 17 13 10 10 11 17 17 18 25 24 25 35 37 45 53 53 54 55 60 62 62 63 64 63 63 61 62 63 63 64 66 65 66 65 65 61 63 63 62 63 63 62 62 61 60 60 59 58
18 14 11 11 10 11 15 16 17 21 20 23 31 38 47 50 50 49 50 51 60 60 63 64 63 63 62 62 62 62 63 65 65 64 62 58 61 61 59 63 63 62 61 61 61 60 59 55 49
16 14 11 12 12 12 14 15 18 20 20 22 29 29 38 49 50 50 50 51 53 60 62 63 63 63 63 62 62 63 63 64 64 63 61 58 60 59 61 62 60 59 58 55 56 55 50 46 45
13 15 13 12 12 12 15 16 18 21 23 25 35 39 40 48 48 48 48 49 58 58 60 60 60 60 61 62 61 62 62 62 63 63 60 59 59 58 59 60 57 55 54 54 51 50 48 46 46
14 14 13 12 12 13 16 17 20 20 23 28 38 43 43 48 46 47 50 52 56 57 60 59 60 60 60 61 61 62 61 61 61 61 60 59 58 56 57 59 58 54 54 54 51 50 48 47 47
13 14 15 11 13 15 15 17 18 20 25 29 40 42 45 47 45 47 49 51 56 57 58 59 58 59 60 60 60 61 61 60 60 59 60 60 58 57 57 58 56 54 54 53 51 49 49 46 46
15 13 13 13 13 12 16 16 17 18 24 32 39 41 44 49 48 47 46 51 56 57 59 58 59 59 59 58 59 59 60 60 59 58 60 59 57 56 55 55 55 54 52 52 50 50 48 45 45
15 14 12 13 13 15 16 14 16 17 30 31 35 40 43 48 48 48 48 52 55 57 59 58 58 58 58 57 58 58 60 60 59 59 59 55 55 55 54 51 51 51 51 50 47 47 45 44 43
18 12 12 13 14 14 16 16 16 27 28 29 31 38 41 44 47 47 47 51 53 56 57 58 58 57 57 57 58 59 59 58 58 58 58 54 54 54 53 50 50 50 50 49 47 47 45 44 42
14 14 14 12 14 15 15 21 18 25 29 29 30 32 39 43 44 46 46 49 52 56 58 59 58 57 56 57 58 58 58 58 57 58 56 55 54 53 52 51 51 48 48 47 48 46 44 43 41
17 14 13 15 13 14 15 14 18 18 21 25 30 32 36 41 44 46 46 49 52 54 57 58 58 57 55 56 56 56 56 57 57 57 54 53 51 51 50 51 54 53 49 47 49 45 44 41 40
19 15 14 14 12 16 14 10 13 15 15 20 24 29 34 39 43 45 46 48 51 52 55 57 58 56 55 55 55 55 56 56 56 58 57 55 52 52 52 51 53 53 50 51 50 50 47 44 42
19 18 15 14 14 17 16 10 9 12 16 19 23 25 29 36 42 44 46 47 50 51 53 55 57 57 56 55 56 56 56 56 55 56 56 55 55 51 53 54 54 53 53 53 53 53 50 47 46
18 19 17 15 14 13 16 9 11 11 14 18 21 23 27 31 39 44 46 47 49 50 52 54 55 57 56 56 54 54 53 53 53 53 56 56 54 53 53 55 55 55 53 53 55 54 53 52 49
21 19 17 16 15 16 17 11 10 13 15 17 18 19 24 31 37 42 45 46 47 50 52 52 55 55 56 56 55 54 52 53 53 53 53 53 53 54 54 55 55 55 55 54 56 56 56 54 52
20 19 19 19 18 17 19 15 12 13 15 18 15 17 19 30 34 41 44 46 45 48 51 51 52 54 56 56 56 54 53 52 53 54 53 52 52 53 55 56 55 56 57 56 56 56 57 56 55
18 18 17 17 16 16 18 16 16 16 18 19 19 17 22 27 34 39 44 46 44 46 50 51 52 52 55 56 56 55 54 53 52 53 53 52 51 53 55 56 56 56 57 55 54 57 57 56 56
17 18 17 15 16 16 18 16 17 20 20 20 20 21 22 31 35 39 42 46 46 46 49 50 51 51 54 56 56 56 55 55 53 52 52 53 52 53 55 57 56 55 54 55 55 54 54 53 54
18 17 19 17 25 22 18 19 21 22 19 20 21 21 21 23 32 38 41 46 46 46 47 49 49 50 52 55 55 55 56 55 54 53 53 53 53 53 54 55 55 54 54 55 53 52 51 52 53
22 21 17 18 17 18 18 22 18 18 19 20 21 25 26 26 25 36 40 44 47 47 47 49 48 49 51 53 55 55 56 56 55 54 54 53 53 53 53 54 55 54 53 52 52 51 50 51 53
23 21 24 19 18 17 17 18 22 21 24 24 25 25 27 29 33 36 40 43 47 48 47 48 48 47 49 52 53 54 55 55 56 55 54 54 54 53 53 52 53 52 52 51 51 52 52 51 52
24 23 23 22 26 21 21 20 24 27 25 24 25 25 28 29 30 37 41 43 46 48 49 48 48 47 47 50 52 53 54 55 55 55 55 55 54 53 53 53 52 51 51 52 51 51 51 52 52

GFSSGP_sfc_30mbdewp_066.txt.gz
Dewpoint
45 39 39 36 24 21 15 13 13 11 13 24 30 28 30 30 27 41 56 60 62 64 67 67 70 71 71 70 70 70 70 69 68 69 69 68 68 68 68 68 67 67 67 66 65 64 64 65 65
36 33 34 27 24 17 11 13 13 12 18 27 28 26 27 28 41 41 57 59 60 62 67 66 69 71 71 70 70 70 69 69 68 69 69 68 68 68 68 67 67 67 66 65 65 64 64 64 64
40 38 24 23 20 16 13 12 13 13 17 20 23 25 29 34 45 46 58 59 61 63 64 66 68 69 70 70 69 69 69 69 68 69 69 68 68 68 67 66 66 66 65 64 63 63 63 63 62
35 29 24 18 16 16 12 13 13 14 16 20 24 24 36 45 44 54 56 58 59 62 63 66 66 67 70 70 69 69 69 69 68 69 68 68 68 67 67 66 65 64 64 63 62 62 62 61 59
30 20 17 17 17 16 14 15 13 14 15 24 25 26 33 49 50 52 54 58 59 61 66 66 65 66 68 69 68 66 66 68 68 69 68 68 67 66 66 65 64 63 62 63 62 62 61 59 58
22 19 17 15 13 12 13 15 15 15 15 17 26 30 34 50 48 54 56 57 59 61 67 67 66 66 66 66 65 65 65 66 66 68 68 67 66 65 65 64 63 63 63 63 63 62 61 60 59
22 18 16 14 13 11 11 17 18 16 17 21 31 29 34 48 52 55 56 59 62 64 65 66 67 66 64 63 63 61 62 65 65 68 67 66 65 64 64 64 63 64 64 63 62 62 61 60 57
21 19 17 15 15 12 13 21 21 19 18 30 28 25 37 51 55 56 56 60 60 64 66 65 67 65 64 63 61 60 60 61 65 67 66 65 64 65 64 64 64 64 63 62 62 61 61 58 57
21 18 15 14 13 11 17 18 20 18 20 21 23 30 46 54 52 54 55 60 62 63 64 65 65 64 64 63 61 60 61 60 62 66 65 64 64 64 63 63 63 63 63 62 62 61 59 57 54
18 17 15 14 13 11 10 15 16 17 20 22 22 29 48 48 49 48 48 56 60 60 64 65 64 63 62 61 63 63 62 61 57 64 64 62 63 63 63 63 63 63 62 61 61 60 57 54 53
19 16 16 13 12 12 10 12 14 16 16 18 25 30 40 49 48 49 49 49 58 60 62 64 63 63 62 61 62 63 60 61 63 64 62 62 63 62 63 62 61 61 61 59 59 58 53 49 50
15 14 15 14 13 12 12 11 13 14 20 22 23 33 34 43 46 47 45 47 57 59 61 62 62 62 63 62 62 61 61 62 63 63 61 62 62 61 62 57 58 56 56 55 55 53 51 47 49
17 13 12 13 14 12 12 11 13 15 19 21 24 37 39 42 45 45 48 51 54 57 60 60 60 60 60 61 62 62 61 62 61 62 61 61 60 61 60 56 56 54 55 54 51 51 51 49 49
19 13 11 12 13 13 12 12 14 15 17 19 28 37 41 43 45 44 48 48 54 57 59 60 60 59 59 61 61 61 61 62 61 61 61 60 59 60 59 57 53 54 54 54 51 52 50 49 50
17 14 15 12 14 14 13 12 14 16 17 18 26 35 39 46 46 44 45 49 55 57 58 59 59 59 60 60 60 61 61 61 60 60 61 60 58 59 59 59 56 55 54 54 53 53 50 49 49
19 16 14 13 13 13 13 11 13 16 17 17 27 34 39 45 47 46 46 49 55 56 58 58 59 59 59 59 59 60 61 60 59 59 60 60 58 57 59 58 57 55 54 55 53 51 50 49 48
20 15 14 13 13 14 12 13 15 17 19 25 29 30 37 42 47 47 46 49 54 55 58 58 58 58 58 58 59 59 60 60 58 58 59 59 57 55 57 57 57 55 54 54 52 50 49 48 48
18 16 16 14 13 14 13 14 15 21 24 26 27 27 35 39 43 47 46 49 53 55 59 58 58 58 58 58 59 59 58 59 58 58 58 57 56 55 56 55 57 53 55 52 51 50 50 48 47
19 19 18 17 14 14 15 15 14 18 19 26 27 29 30 38 42 46 46 49 52 56 56 58 58 57 57 57 57 56 56 57 57 56 55 55 55 54 53 54 53 50 49 49 49 50 47 47 47
20 23 23 21 16 15 14 14 15 15 17 18 22 28 31 34 41 45 46 48 51 56 58 58 58 56 56 56 56 56 56 56 55 57 54 56 54 53 52 53 53 53 51 50 49 47 45 46 45
21 21 20 18 16 15 14 14 16 15 12 15 16 22 27 33 40 45 46 48 51 54 56 57 57 56 55 56 57 56 56 55 54 56 56 54 53 52 51 53 53 52 54 51 50 51 47 47 45
18 20 19 19 18 14 16 13 16 16 13 13 16 22 24 24 37 45 46 47 51 52 57 57 57 56 55 56 56 55 54 53 52 54 55 54 54 52 50 53 54 53 54 53 54 54 53 51 47
22 25 25 22 18 17 15 15 17 14 13 13 17 21 24 27 31 43 46 47 49 51 55 56 56 56 55 55 55 55 53 54 52 53 55 55 55 54 55 54 55 57 54 55 55 54 54 54 51
29 30 29 24 21 17 17 17 17 18 15 14 17 19 20 26 30 39 46 47 47 51 54 54 56 56 56 55 54 54 52 53 52 52 53 54 53 53 55 54 56 56 56 55 55 55 54 55 54
23 29 23 21 20 18 19 18 20 21 17 17 18 17 18 28 32 36 44 46 47 50 53 53 55 55 56 56 55 54 53 53 53 51 52 52 52 51 51 56 56 55 55 56 55 55 56 55 53
22 26 23 24 21 18 19 17 18 21 20 20 19 19 19 26 34 35 42 46 47 49 52 52 52 54 55 56 55 54 54 53 53 53 51 52 52 51 50 54 56 56 55 56 56 54 54 54 54
25 27 25 20 25 24 25 18 19 22 20 18 19 21 21 28 33 34 39 46 47 48 51 52 52 52 55 56 56 55 55 53 53 54 54 53 52 52 53 56 56 57 57 55 53 53 52 53 54
26 25 23 21 23 23 22 19 19 20 21 19 20 23 25 27 28 36 39 46 47 47 50 52 51 51 54 55 55 55 55 55 54 53 53 53 53 52 51 54 56 55 56 56 54 54 52 52 52
25 24 27 27 22 23 21 25 28 24 24 25 26 25 28 29 30 34 38 45 48 48 48 51 51 50 52 55 55 55 55 55 55 54 53 53 53 53 52 52 54 55 55 55 54 53 52 52 51
25 27 25 27 24 23 23 25 28 26 26 26 26 29 30 31 31 34 38 43 47 48 48 49 50 49 51 53 55 55 54 55 56 55 55 55 54 53 53 53 53 54 54 54 54 54 52 52 51

GFSSGP_sfc_30mbdewp_069.txt.gz
Dewpoint
48 43 40 38 31 24 21 20 21 15 30 30 29 31 30 34 38 44 59 61 67 67 69 71 71 70 70 70 70 70 69 69 70 70 69 68 68 68 67 67 68 68 67 65 63 64 64 66 67
41 36 35 34 25 21 20 21 19 22 26 26 26 23 25 39 53 58 58 60 64 67 68 70 71 70 70 70 70 70 69 69 69 69 69 68 68 68 68 68 68 67 66 66 64 64 64 66 66
42 37 34 27 23 21 22 18 14 18 20 21 23 26 29 43 45 57 60 60 62 64 67 68 70 71 70 70 70 70 69 69 69 69 68 68 68 69 68 67 67 66 66 65 64 64 64 65 65
34 36 32 21 20 22 21 21 14 16 19 21 24 25 45 46 49 57 59 59 62 62 66 67 68 71 71 70 70 70 69 69 69 69 68 68 68 68 67 67 66 66 65 64 63 64 64 63 63
33 30 21 19 18 18 19 18 14 14 21 26 26 26 43 51 54 55 58 58 60 63 67 67 67 69 70 69 69 68 69 69 69 68 68 68 68 67 67 66 65 65 65 63 64 63 62 61 60
27 24 18 16 17 19 19 19 15 15 15 17 19 28 46 51 52 57 57 58 60 66 67 66 66 68 66 67 67 67 66 67 66 66 67 66 67 67 66 65 65 65 64 63 64 62 61 60 59
27 24 18 17 17 17 16 17 17 16 15 23 33 31 48 49 56 56 57 61 64 66 65 66 66 66 65 65 65 64 65 63 65 64 65 66 66 66 65 65 64 64 64 63 63 61 61 59 57
29 25 22 20 18 17 17 20 20 18 18 31 28 26 46 52 55 56 60 61 62 65 65 65 66 64 63 63 63 63 64 63 60 62 65 66 65 65 65 65 64 64 63 63 62 61 59 57 55
31 24 19 18 18 18 17 20 21 20 21 25 26 27 48 55 57 55 60 60 61 64 64 64 65 64 63 62 62 62 63 63 60 61 60 65 64 64 64 64 64 63 63 62 62 60 58 56 53
28 22 20 20 19 17 15 16 20 18 19 22 23 50 55 54 54 54 57 59 60 61 63 64 64 63 63 62 62 61 61 62 60 60 60 64 63 62 63 64 63 63 63 62 61 58 57 54 52
26 22 21 19 19 19 17 13 14 16 18 17 21 48 51 50 50 50 49 55 60 61 63 63 63 62 61 61 62 61 61 59 59 58 59 64 62 63 63 63 62 62 62 60 59 57 54 51 51
26 23 22 20 19 17 15 13 12 14 19 20 25 43 48 48 48 48 49 59 60 60 62 62 63 62 62 62 62 61 60 60 58 58 58 63 63 62 62 61 61 60 59 58 56 53 51 50 50
26 23 20 18 17 16 15 14 12 13 16 20 25 35 39 47 46 47 53 57 59 59 60 61 62 62 61 60 61 61 60 61 60 62 62 63 62 61 59 59 58 57 56 55 53 51 50 47 49
24 23 22 20 17 13 12 13 12 13 15 16 19 38 39 43 45 47 49 54 56 59 59 60 60 60 61 60 60 61 60 61 62 63 63 62 62 60 56 56 54 55 54 52 51 51 48 47 48
22 20 20 20 17 15 13 14 14 15 16 15 19 38 41 43 46 46 48 54 57 58 59 60 59 60 60 61 60 60 61 61 62 62 62 61 61 58 55 54 54 55 54 50 51 52 51 49 51
27 23 18 19 17 17 14 13 14 15 16 16 17 35 40 45 46 46 50 55 56 57 59 59 59 59 59 60 61 60 61 61 61 61 61 60 61 59 57 54 54 55 53 51 52 53 50 50 49
26 21 19 18 17 15 15 12 14 14 13 17 18 33 40 46 47 47 52 55 56 58 58 58 58 58 59 58 59 60 60 60 60 60 60 60 59 60 59 56 55 55 53 55 52 52 49 49 49
24 22 19 16 17 17 14 13 14 14 16 26 27 29 37 46 47 47 49 54 55 58 58 57 58 59 58 59 59 59 60 59 59 59 59 59 58 59 58 58 57 58 54 55 53 51 50 49 49
25 24 20 19 23 24 22 18 15 16 18 24 28 28 29 44 48 47 48 53 54 58 58 58 58 58 58 57 57 56 56 58 58 58 59 58 57 57 57 57 57 56 56 54 52 51 49 49 49
25 23 20 21 24 24 20 16 15 16 17 20 27 27 28 40 47 46 48 51 54 57 58 58 58 58 57 57 57 56 56 58 58 58 58 57 57 55 55 56 56 53 56 55 52 48 48 47 48
26 22 20 21 23 23 20 16 14 16 17 17 22 28 30 40 46 46 48 50 55 56 58 57 57 57 57 57 57 56 56 56 56 56 56 56 56 54 53 55 55 53 55 54 52 47 45 44 45
28 28 23 21 20 20 24 16 16 16 17 18 16 22 30 37 46 45 47 49 55 56 57 58 56 56 56 57 56 55 54 53 54 54 55 54 55 53 52 53 53 52 54 51 50 50 47 46 42
32 32 28 29 29 28 24 17 17 18 18 18 17 15 25 32 45 45 46 49 51 56 56 57 56 55 55 56 56 54 52 53 53 54 53 53 54 53 52 53 52 52 53 53 52 53 50 48 47
33 33 33 31 30 25 24 20 16 17 18 21 19 17 24 25 45 46 47 50 51 56 56 56 55 55 55 56 55 54 53 52 52 53 54 54 54 54 54 51 55 54 53 55 54 53 53 53 53
31 34 28 24 22 22 22 20 19 20 22 22 20 19 22 27 45 46 47 48 50 55 56 56 55 54 55 55 55 54 54 53 51 52 53 54 53 53 54 55 54 56 55 55 55 55 54 54 53
29 33 29 23 26 24 24 19 19 22 22 23 19 21 26 33 45 46 47 47 50 53 54 55 55 54 55 55 54 54 54 54 53 51 52 53 53 53 52 55 56 55 54 55 55 55 55 55 54
33 28 30 30 28 28 28 25 21 22 22 21 19 20 26 32 39 46 47 47 49 52 53 53 55 55 55 55 55 54 54 53 53 52 51 52 53 52 52 52 56 56 55 54 55 55 54 55 54
35 33 30 31 25 24 25 26 20 26 20 20 22 23 25 32 34 44 47 47 49 52 53 53 54 54 55 55 55 55 54 53 53 54 52 51 51 52 51 51 54 55 55 55 54 54 54 53 54
30 34 35 35 30 25 27 28 32 26 29 29 30 31 31 32 35 37 46 47 48 51 53 52 52 52 55 55 55 54 55 54 53 53 54 53 52 52 52 51 53 55 55 55 55 54 53 52 51
31 29 34 31 30 28 24 25 32 26 29 30 30 30 32 36 37 40 47 48 48 49 52 52 52 52 53 54 55 53 55 55 55 54 53 54 53 53 52 52 52 52 54 53 53 53 53 53 52

GFSSGP_sfc_30mbdewp_072.txt.gz
Dewpoint
54 44 37 38 31 25 22 21 22 20 28 29 31 30 35 36 35 34 59 66 67 69 71 70 70 70 70 70 70 69 70 70 70 69 69 69 68 68 67 67 67 67 67 66 65 66 66 66 67
42 37 35 33 27 21 18 23 20 21 30 27 26 29 32 47 57 58 59 66 66 68 70 70 70 70 70 70 70 69 70 70 69 69 68 68 68 67 68 68 67 67 67 64 64 66 66 67 67
40 37 33 29 24 19 16 21 19 21 25 23 25 27 41 48 57 58 59 66 67 67 69 71 69 70 70 70 70 69 69 70 69 68 68 68 67 69 69 68 68 66 64 64 63 65 66 66 66
33 35 34 24 20 23 22 22 22 18 20 22 26 36 45 48 56 58 60 63 66 66 67 70 70 70 70 70 70 69 69 69 69 68 68 68 68 69 68 68 67 66 66 65 64 65 66 66 65
32 29 27 21 20 20 21 21 20 18 18 23 25 30 43 54 57 59 59 62 61 65 67 68 70 70 70 70 70 69 69 69 69 68 68 68 69 68 68 67 66 66 65 65 65 65 65 64 63
26 26 20 19 18 18 19 20 19 19 24 26 25 42 46 55 56 58 59 60 64 65 66 67 69 70 70 69 68 68 68 69 68 68 68 68 68 67 67 67 66 66 65 65 65 64 63 61 59
26 24 19 18 17 17 18 20 19 18 16 27 31 38 49 52 56 58 59 62 66 66 66 66 66 67 66 68 67 66 65 67 66 65 65 63 65 65 66 66 66 65 65 65 64 63 61 59 59
28 26 23 22 21 21 21 20 21 17 15 31 31 38 47 50 57 58 61 63 64 65 65 66 65 64 64 64 65 65 66 64 64 64 62 63 64 65 65 66 65 64 64 64 63 62 60 58 59
32 27 23 23 22 21 21 19 18 21 28 29 28 38 44 54 57 60 60 60 63 63 63 65 65 63 63 63 64 65 65 64 64 63 61 62 64 64 65 64 64 64 63 63 62 60 58 58 59
32 27 27 26 23 21 20 19 18 17 21 25 32 53 54 55 55 57 58 58 59 61 62 64 64 63 63 62 63 63 63 63 62 61 62 60 59 64 63 64 64 63 62 62 61 59 57 55 56
30 28 27 25 23 22 20 20 20 16 16 21 24 51 54 55 54 55 58 58 59 61 63 63 63 62 62 61 61 61 61 62 61 60 60 59 60 64 63 63 62 62 62 61 59 57 53 52 51
29 29 28 27 24 22 21 20 18 15 15 21 28 52 53 53 53 53 53 58 60 61 62 63 62 61 60 61 61 60 60 59 59 60 60 59 61 63 62 61 61 60 59 59 57 54 52 51 51
28 29 29 28 25 23 21 19 18 16 16 18 39 51 51 50 50 50 56 60 60 60 61 62 62 62 61 61 61 60 60 59 58 58 60 63 62 61 61 60 60 59 58 56 55 52 50 50 51
25 27 28 27 24 22 19 17 15 15 15 15 35 47 48 48 48 53 58 59 59 59 60 61 62 61 60 60 60 60 60 61 59 58 58 62 61 60 59 59 59 57 56 55 53 51 48 48 51
28 24 22 22 22 21 20 17 15 15 15 15 16 38 43 48 47 52 56 57 58 59 59 60 60 61 59 59 60 60 60 61 61 59 60 63 61 59 59 57 56 55 53 52 51 51 47 48 51
27 27 24 23 21 21 18 16 17 16 16 15 16 26 39 44 45 49 53 56 58 58 59 59 60 59 60 60 60 60 60 61 61 62 61 62 59 57 56 54 54 53 51 50 50 52 47 47 51
27 24 23 22 21 20 17 15 16 16 16 15 15 19 39 42 46 47 54 56 58 58 59 59 59 59 59 60 60 59 60 61 61 62 62 62 58 56 54 54 54 52 50 49 51 52 49 48 50
24 24 23 20 20 20 21 22 22 21 17 16 15 18 36 43 46 49 55 56 58 58 58 58 58 58 58 58 59 59 59 59 60 61 61 61 59 56 54 54 55 53 49 50 52 52 50 49 50
25 25 24 25 26 23 22 22 23 23 22 16 19 24 35 43 47 50 54 56 57 57 57 57 58 58 57 57 57 58 57 58 59 60 60 59 60 58 54 53 56 53 53 52 52 52 49 49 50
26 25 25 24 24 22 23 22 23 22 20 17 21 27 33 44 47 49 54 55 57 56 56 57 57 58 58 56 57 56 57 58 58 59 59 59 58 59 56 53 57 56 54 55 53 51 49 48 49
25 25 26 27 25 23 22 21 22 24 18 17 22 28 30 44 47 47 52 54 57 57 57 57 57 57 57 57 56 56 56 57 57 57 58 59 58 57 58 55 56 56 56 54 53 50 48 47 48
25 27 31 30 26 21 26 22 22 23 20 18 18 22 28 42 47 46 50 53 56 57 57 57 57 57 57 57 56 55 54 54 55 56 57 57 58 57 56 57 56 55 56 54 53 51 48 47 46
29 31 34 32 30 29 25 23 22 22 19 19 20 20 27 42 46 46 48 52 55 57 57 56 56 56 56 56 55 55 54 54 55 56 56 56 57 56 55 56 56 55 56 55 53 53 50 48 46
32 35 34 32 29 24 24 24 22 20 18 18 20 21 23 42 46 46 48 53 55 57 56 56 55 55 56 56 56 55 54 54 54 54 54 55 55 55 54 55 55 55 55 56 54 54 52 49 45
34 35 27 25 24 22 24 23 22 23 23 22 23 23 23 41 45 45 48 51 55 55 55 55 55 54 55 56 55 54 53 53 53 53 53 53 54 54 52 53 55 54 54 55 54 54 54 52 48
32 35 29 21 23 25 28 20 20 22 22 22 22 22 26 42 45 46 48 49 54 55 55 55 54 53 54 55 55 55 54 53 52 53 53 52 53 53 53 53 54 56 54 54 55 54 54 54 53
32 32 34 31 32 28 27 27 26 28 27 25 23 24 30 42 45 46 47 49 54 55 55 55 54 53 54 55 55 55 54 53 52 52 53 53 53 53 53 54 54 54 55 54 54 54 54 54 54
33 34 30 31 24 23 25 25 28 27 29 27 31 33 35 41 45 46 47 48 52 54 55 55 55 54 54 54 54 55 54 54 53 52 51 53 53 53 53 52 55 55 55 54 54 54 54 54 54
35 34 35 33 31 27 26 31 34 34 31 30 34 37 38 40 40 46 47 48 51 53 54 55 55 55 54 54 54 54 54 54 54 53 52 51 52 53 53 52 52 54 55 55 54 53 53 53 53
33 34 35 30 29 30 30 30 40 42 39 35 37 38 41 44 44 46 47 48 51 52 52 53 55 55 55 55 55 54 54 54 53 53 54 53 51 51 52 52 52 51 52 54 54 54 53 53 52

GFSSGP_sfc_30mbdewp_075.txt.gz
Dewpoint
56 45 37 37 29 25 22 20 23 20 22 29 31 31 30 33 29 25 58 64 67 68 70 70 70 70 70 69 69 70 70 70 70 70 70 70 69 69 69 69 69 68 68 67 66 67 67 67 68
43 36 35 32 27 18 15 23 22 22 24 29 33 40 37 36 56 57 60 66 68 69 70 69 70 70 70 70 69 70 70 70 70 70 69 69 69 68 68 68 68 68 67 66 67 67 67 67 67
38 37 31 29 25 13 9 22 21 22 21 27 25 32 39 42 57 58 60 67 67 69 69 69 70 70 70 70 70 70 70 70 69 69 69 68 68 67 68 68 68 67 67 66 66 66 66 67 66
34 33 31 27 21 23 20 21 23 22 20 21 24 34 45 52 56 59 63 67 66 68 69 69 69 70 70 70 70 70 70 69 69 69 69 68 68 68 68 67 67 66 64 65 66 66 66 66 65
31 31 28 27 24 22 22 23 21 19 20 20 24 35 41 51 58 60 64 66 65 66 68 70 69 69 70 70 70 69 70 69 69 68 68 68 68 68 68 67 66 65 65 65 66 66 66 65 64
22 27 23 22 21 20 19 19 19 19 20 20 25 37 45 55 58 60 62 64 64 65 66 68 69 69 70 70 69 68 69 69 69 68 68 68 68 68 68 67 66 65 65 65 65 65 65 63 62
19 23 20 20 18 18 18 20 20 19 19 20 34 39 48 55 57 59 60 63 64 65 66 66 69 69 69 69 69 67 66 65 65 66 65 64 65 66 66 66 65 66 66 65 65 64 61 62 62
28 25 22 20 19 16 18 20 21 19 18 30 41 37 42 53 57 59 62 64 65 65 65 65 66 66 66 67 68 67 66 64 65 64 61 60 64 64 63 65 65 65 66 65 64 62 61 62 61
29 23 19 20 19 17 22 20 20 21 20 23 30 44 45 53 58 60 61 62 63 64 65 65 64 63 63 65 66 66 65 63 63 64 63 62 63 64 64 65 65 64 65 64 62 60 61 61 60
32 26 20 23 21 19 22 21 21 20 20 20 22 49 53 55 57 58 58 59 61 62 62 64 64 63 63 64 65 65 65 63 62 63 63 62 63 63 63 63 64 64 64 63 61 59 61 59 58
32 25 24 26 26 27 25 23 22 20 19 19 18 35 54 55 56 57 58 58 59 60 61 62 63 63 62 62 63 63 64 63 62 62 61 61 62 63 64 63 63 63 63 61 59 58 58 57 56
30 30 29 28 28 26 25 24 22 20 20 21 20 36 54 54 55 56 58 58 58 60 61 62 62 62 62 61 62 61 62 61 61 61 61 60 59 60 61 63 62 61 61 60 57 53 53 54 53
27 30 30 30 29 27 26 24 23 22 22 22 20 50 53 53 53 54 56 58 59 60 61 62 62 61 60 60 60 59 60 60 60 60 60 59 59 61 62 61 61 60 59 58 55 52 51 52 52
21 23 25 27 28 29 27 26 23 22 20 17 20 48 53 53 53 52 55 57 59 60 61 61 61 61 60 60 59 59 59 59 59 59 60 59 61 62 61 60 60 59 58 56 54 51 50 52 52
28 27 27 25 24 24 24 21 21 21 20 18 19 40 51 51 51 51 55 57 59 59 60 60 61 61 60 60 60 60 60 60 58 59 59 60 60 62 61 59 59 57 56 55 52 50 49 51 52
28 28 25 25 25 23 21 19 21 20 18 17 17 28 46 49 49 51 56 58 59 58 59 60 61 60 59 58 59 59 60 60 60 59 59 59 61 61 60 59 57 56 53 52 51 49 48 51 52
27 24 24 24 24 22 20 19 20 20 19 17 16 17 37 44 48 51 56 58 58 58 59 59 59 59 58 59 58 59 60 60 61 61 59 59 61 60 58 57 56 53 52 52 51 50 48 51 52
24 25 24 23 22 23 21 21 22 24 24 23 21 19 27 40 45 47 55 57 57 58 59 58 58 59 59 60 59 59 59 60 61 61 60 60 59 58 56 55 53 53 50 50 51 49 49 51 52
25 25 24 25 26 25 24 24 23 24 24 24 23 22 21 37 41 49 55 57 57 58 58 58 58 58 58 58 58 56 57 58 60 61 61 60 58 56 54 54 53 52 48 49 51 51 48 50 51
26 25 24 26 26 27 24 23 24 24 24 23 23 22 20 35 46 52 55 56 57 57 57 57 57 57 57 57 57 57 57 58 59 60 60 61 59 57 53 54 52 51 48 50 52 50 49 49 50
27 25 25 25 28 28 26 24 23 23 24 24 21 20 25 35 45 52 54 56 56 56 56 56 57 57 56 56 57 56 57 57 57 58 58 59 60 58 55 54 52 52 50 51 52 51 49 47 49
28 27 26 31 29 25 26 22 24 24 24 23 22 22 28 40 46 50 53 55 56 56 56 56 56 57 57 57 55 55 54 55 55 57 58 58 59 59 56 56 56 55 53 53 53 52 50 48 48
30 31 33 33 32 30 29 26 24 24 23 23 22 21 23 38 46 47 52 54 56 56 56 56 56 56 56 56 55 55 54 54 56 56 57 57 58 58 58 57 57 56 57 55 54 52 49 49 49
31 35 35 33 31 28 28 24 23 22 22 21 22 23 22 28 44 46 50 53 56 56 55 55 55 55 56 56 55 55 54 54 54 55 56 56 57 56 57 58 57 56 57 55 54 54 52 49 49
34 33 26 25 26 24 24 23 23 23 24 25 24 24 24 28 42 46 49 53 55 55 55 54 55 54 55 56 55 54 54 54 53 55 55 55 56 56 56 57 57 56 56 57 56 55 54 54 53
33 33 27 21 23 22 24 22 23 24 25 28 30 26 24 25 40 46 49 53 54 55 54 54 54 54 54 55 55 54 54 54 53 54 54 55 55 55 56 55 56 56 56 56 57 56 55 55 54
35 31 33 30 32 27 25 27 26 32 31 32 36 32 26 31 41 46 49 53 54 55 54 54 54 54 54 54 54 54 54 53 53 53 54 54 55 54 54 53 55 55 55 56 56 55 54 54 54
35 35 30 31 23 22 24 24 30 36 37 36 37 40 40 43 45 46 48 52 54 55 55 54 54 54 53 53 53 54 54 53 53 52 53 53 53 53 53 53 54 55 55 55 55 55 54 54 54
35 34 34 33 31 25 24 31 38 41 43 38 40 43 46 42 46 46 48 51 54 55 54 54 53 53 53 53 53 54 54 54 53 52 52 53 53 53 53 53 53 54 54 54 54 53 53 54 53
35 34 35 29 28 29 30 29 40 43 44 40 42 45 47 48 48 48 50 52 53 53 54 53 53 53 53 54 53 52 54 54 54 54 53 52 52 53 53 53 53 53 54 54 53 53 53 53 52

GFSSGP_sfc_30mbdewp_078.txt.gz
Dewpoint
57 47 37 36 26 25 19 16 23 20 20 28 31 31 29 28 30 22 54 65 66 67 69 70 70 70 70 70 69 71 71 71 71 71 71 70 70 69 69 70 69 69 68 68 68 67 67 67 68
49 36 35 32 22 11 10 23 21 22 22 27 36 39 36 30 54 56 58 64 67 67 69 69 70 70 70 70 69 70 71 71 71 71 70 70 70 69 69 68 69 68 68 68 67 67 67 68 68
38 36 30 29 26 7 6 18 22 22 22 26 24 33 34 34 56 57 61 64 67 68 68 69 70 70 70 70 70 70 70 71 70 70 70 70 69 69 69 68 68 68 67 67 67 67 68 68 67
35 33 31 26 20 20 16 19 22 21 19 21 23 27 43 50 55 59 61 67 67 68 68 69 70 70 70 69 70 69 70 70 70 70 70 69 69 69 69 69 68 67 67 67 67 67 67 67 66
31 31 22 26 24 21 23 21 22 20 19 20 24 24 39 49 58 60 65 66 65 68 68 68 69 70 70 69 70 69 69 69 69 69 69 69 69 69 69 68 67 67 67 67 67 67 66 66 65
24 28 22 18 23 20 21 21 20 18 19 20 21 24 37 53 58 62 66 65 65 66 68 68 69 69 70 69 69 69 69 69 69 69 69 68 67 66 66 67 67 66 67 67 67 66 65 65 64
17 23 19 20 20 21 17 20 18 18 19 19 26 25 42 51 58 61 63 64 65 65 66 68 68 68 69 69 69 67 67 67 68 67 65 65 63 64 64 65 66 65 66 67 66 65 64 64 63
26 22 19 19 17 16 17 21 20 19 19 27 42 35 33 51 59 60 62 62 63 65 65 65 67 67 68 68 69 67 67 66 65 64 64 63 61 62 62 64 64 64 66 66 65 64 64 63 62
29 21 18 17 17 16 22 20 21 22 20 21 27 36 46 54 59 60 61 62 63 64 64 65 65 66 66 66 66 67 66 65 64 63 62 62 62 62 62 64 64 65 65 65 63 63 63 62 61
30 24 18 22 20 18 20 22 22 22 21 21 22 36 52 56 58 57 58 60 62 62 63 64 64 63 63 65 66 66 65 64 63 62 61 60 61 61 62 62 64 63 64 63 62 63 62 60 59
32 25 24 25 24 25 24 24 24 22 22 21 20 23 48 55 57 58 58 59 61 62 62 63 63 62 62 63 64 65 64 63 63 62 60 60 62 62 63 62 63 62 63 60 60 61 59 58 58
25 29 29 27 26 26 25 25 25 24 24 25 23 22 40 51 55 56 57 58 59 60 61 62 62 63 62 62 63 63 63 63 62 62 62 62 62 62 61 62 62 62 61 58 59 59 57 57 55
21 24 27 29 30 29 28 27 26 26 26 25 24 23 36 47 54 56 57 58 58 59 60 61 62 62 62 62 61 61 62 62 62 62 61 61 61 61 62 62 62 62 60 57 55 55 55 54 54
21 21 21 23 24 28 28 27 28 27 26 25 22 20 31 46 52 54 56 57 58 59 60 61 61 61 61 61 60 60 61 61 61 61 61 60 60 60 61 62 61 60 59 56 53 53 53 53 53
24 24 27 28 27 26 27 25 25 27 25 23 21 20 29 47 53 53 54 55 57 59 60 61 61 60 60 60 60 59 59 59 59 60 60 59 60 60 61 61 60 59 58 55 52 51 52 52 53
22 26 24 26 26 25 23 20 23 23 22 21 20 18 27 46 52 53 53 55 58 59 59 60 60 60 59 59 60 60 59 58 58 59 60 60 59 62 62 61 60 58 57 54 51 50 52 52 52
23 21 24 26 26 24 22 21 22 22 21 21 20 20 19 37 50 51 53 56 57 58 59 59 59 59 58 58 58 58 60 60 60 59 59 60 59 60 61 60 58 56 55 54 51 50 51 52 52
19 23 25 25 24 25 24 23 25 25 25 24 24 24 22 22 34 47 53 57 58 58 58 58 59 58 58 57 58 59 59 60 60 60 59 59 60 60 61 59 56 56 54 52 50 49 50 52 52
22 22 22 25 26 25 25 25 25 25 25 24 24 24 23 23 29 44 54 57 57 57 58 58 58 58 57 56 56 57 57 58 59 61 61 60 59 60 59 57 55 54 52 52 51 49 50 51 52
19 20 23 25 26 26 27 27 28 27 26 25 24 23 23 24 34 46 54 56 57 57 57 57 57 57 57 58 58 56 57 58 59 60 59 58 58 58 56 55 54 52 51 51 51 48 49 51 52
25 25 25 25 26 29 28 25 24 24 24 24 24 24 24 22 33 48 53 55 56 56 56 57 57 56 57 57 57 57 57 58 58 58 59 58 58 57 56 55 53 50 50 51 51 49 48 50 51
27 29 28 27 29 24 30 24 25 26 26 25 24 24 23 25 36 49 52 54 55 56 56 57 56 55 56 56 56 56 55 55 56 58 59 59 58 57 56 55 53 50 49 50 51 51 48 50 50
29 31 32 32 30 30 29 26 25 25 24 24 24 25 23 26 41 49 52 53 55 56 56 56 56 55 55 55 55 54 55 55 56 57 58 58 59 57 56 57 53 52 52 52 52 52 50 50 50
32 32 33 33 31 25 26 27 25 24 23 22 23 23 25 24 43 48 52 54 55 55 56 56 56 56 55 55 54 54 54 54 55 55 56 57 57 58 57 57 56 56 55 54 54 53 51 50 50
35 31 25 25 24 22 26 27 26 24 23 24 27 31 31 26 35 47 51 54 54 54 55 55 54 54 54 54 54 54 54 54 54 55 56 56 56 56 57 57 57 56 55 55 54 54 52 51 49
34 31 24 21 23 25 25 22 23 35 39 36 38 40 40 34 30 45 50 53 54 54 54 54 54 53 54 53 54 54 54 54 54 55 55 56 56 56 57 57 57 55 57 57 55 55 55 54 54
33 31 35 30 30 27 25 26 32 40 41 40 42 44 46 46 39 43 49 53 54 54 54 54 54 53 54 54 53 54 54 54 53 54 55 55 55 56 56 57 57 57 56 56 56 56 56 56 55
35 36 30 30 22 22 23 26 32 38 39 41 43 45 47 46 45 46 50 53 54 54 54 54 54 53 53 53 54 54 54 54 53 53 53 54 55 55 54 54 56 56 56 56 56 55 56 56 55
34 33 34 34 31 24 22 28 39 41 42 40 43 43 45 47 47 49 52 54 53 54 53 53 53 53 53 53 53 54 54 53 53 52 53 53 53 54 54 54 54 55 55 55 56 55 55 55 55
34 33 34 29 28 31 30 27 42 43 40 43 42 43 44 46 49 51 52 52 52 53 53 53 53 53 52 53 53 54 54 54 53 53 52 53 53 53 53 53 54 54 54 55 54 54 54 54 53

GFSSGP_sfc_30mbdewp_081.txt.gz
Dewpoint
56 49 38 36 24 24 16 14 23 21 21 26 29 28 27 29 39 28 55 65 66 68 69 69 68 68 70 70 71 72 72 71 71 71 71 71 71 70 70 70 70 69 69 69 69 69 68 68 69
47 36 35 33 18 6 1 22 19 21 23 24 33 37 36 31 50 53 57 65 66 68 69 69 68 69 70 70 71 71 72 72 71 71 71 71 71 70 70 70 69 69 69 69 68 68 67 68 69
38 35 30 28 23 3 -2 16 21 23 23 24 25 34 32 35 55 54 59 65 67 67 68 69 69 68 69 69 70 70 70 71 71 71 71 71 70 70 69 69 69 69 69 68 67 67 68 69 68
35 34 31 22 17 20 10 17 23 22 19 22 26 23 40 48 55 58 61 65 67 67 68 69 69 68 68 70 69 70 70 70 70 71 70 70 70 69 68 68 69 68 69 68 67 67 68 68 67
32 30 20 24 22 21 23 21 23 20 20 20 21 19 33 48 57 60 64 65 66 67 68 69 69 68 68 69 69 69 70 69 69 70 70 69 69 68 67 67 68 68 68 68 67 68 68 67 66
25 28 16 11 18 22 21 23 21 18 19 18 21 22 29 52 58 61 65 66 67 67 68 68 69 69 68 68 69 69 69 69 69 70 70 69 67 67 65 65 65 65 67 67 68 67 67 66 65
20 23 13 17 18 20 14 21 18 15 16 19 25 25 36 50 58 63 65 66 66 68 68 67 68 69 68 68 69 69 68 68 68 69 69 65 65 65 64 63 63 65 66 66 67 66 66 65 64
24 21 17 19 14 14 18 20 21 19 17 24 40 35 30 46 59 63 65 65 66 66 67 68 68 68 69 69 68 68 68 67 66 66 65 64 63 62 61 63 62 63 66 66 66 65 65 64 63
28 20 17 16 15 13 20 19 21 22 21 22 23 32 43 54 60 62 62 63 64 65 66 67 66 67 68 68 69 68 67 66 65 65 64 63 62 61 60 62 63 62 65 66 65 65 64 63 62
29 23 19 21 19 18 19 20 19 21 21 21 23 26 51 57 59 59 59 60 61 63 64 66 65 66 66 66 67 68 67 66 64 64 63 62 62 62 61 61 62 63 65 65 64 64 62 61 60
31 22 25 23 23 23 23 23 23 21 21 22 23 24 35 51 57 58 58 58 59 63 62 65 65 65 65 65 66 66 65 65 63 62 62 61 61 61 59 61 62 64 64 64 63 62 60 60 59
22 30 27 25 24 23 22 22 21 22 24 26 27 28 26 33 46 55 56 56 60 61 63 63 64 64 64 64 64 64 63 64 63 62 61 61 61 61 62 62 63 63 63 63 62 61 59 59 58
25 23 25 26 26 27 28 27 27 27 29 29 28 27 28 29 35 44 53 57 59 60 62 62 63 63 63 63 63 63 63 63 63 62 61 61 60 61 62 62 63 63 61 61 60 59 58 58 57
23 22 22 23 25 26 23 23 27 25 28 27 28 27 28 27 32 42 53 56 58 59 61 61 61 62 62 62 63 62 63 63 62 62 62 61 61 62 62 62 62 62 60 60 59 58 57 57 56
21 20 22 25 26 26 26 23 24 27 28 28 28 26 25 26 33 45 50 54 57 58 60 60 61 62 62 61 62 62 61 62 62 62 62 61 61 61 61 61 62 61 59 57 57 57 56 56 55
19 21 16 25 27 27 26 18 21 23 24 23 24 24 23 23 29 42 51 54 57 58 60 61 62 62 61 61 61 60 60 60 60 61 61 61 61 61 62 61 61 61 58 56 55 55 54 55 54
19 13 23 23 27 26 24 21 24 24 24 23 23 23 23 25 26 42 51 54 56 58 60 60 61 60 60 60 60 60 60 60 59 59 60 60 60 60 61 61 61 60 58 55 54 54 54 53 53
12 20 24 23 24 23 23 24 26 27 27 27 26 26 27 27 25 28 47 54 56 58 60 60 60 59 60 59 59 59 60 60 60 59 59 60 60 60 62 61 60 59 58 55 53 53 54 53 53
17 18 18 22 24 23 20 21 23 26 28 28 28 27 27 27 27 27 42 55 57 58 59 58 59 58 58 57 57 58 57 58 59 60 60 60 60 60 60 60 58 58 57 55 53 53 53 53 53
20 18 18 22 25 24 23 23 25 27 27 27 27 27 27 27 26 29 45 55 56 57 58 58 58 58 58 57 57 57 57 58 59 60 60 60 59 60 60 58 58 57 56 55 52 52 52 52 53
23 23 24 24 26 27 27 23 20 23 25 26 27 27 27 27 26 29 46 53 56 57 58 57 57 58 58 58 58 58 58 58 58 58 58 58 59 60 59 57 57 56 55 54 52 52 52 51 53
26 29 28 28 28 24 29 22 24 24 24 25 27 28 28 27 27 27 44 51 54 56 58 57 57 57 57 59 56 56 55 55 57 58 58 58 58 57 57 57 56 54 55 53 52 52 52 52 51
29 31 31 31 29 29 27 26 24 26 24 25 27 28 28 29 28 30 44 49 54 57 57 56 56 57 57 57 55 56 55 56 58 58 58 58 57 57 56 56 53 53 53 53 52 51 51 52 52
32 32 31 32 30 25 24 25 23 24 25 25 26 27 31 33 31 40 48 52 54 56 56 55 55 55 56 56 55 56 54 55 56 57 57 57 57 57 57 56 55 53 53 53 53 52 51 52 53
33 30 22 22 24 20 25 26 25 30 39 38 39 41 43 44 33 46 50 52 54 55 55 54 55 54 55 56 55 55 55 55 55 56 56 56 57 56 56 56 54 54 54 53 54 54 52 52 52
32 30 23 19 21 24 28 24 27 40 41 42 44 45 46 47 47 42 49 52 53 54 54 55 56 54 54 55 54 54 55 55 55 55 56 56 56 57 58 57 56 55 54 54 54 54 53 54 53
33 30 33 28 28 26 24 26 36 39 40 41 43 43 45 47 46 45 47 52 54 54 54 55 54 54 54 54 54 54 55 54 54 55 56 56 57 57 57 57 57 56 54 54 53 54 54 54 53
35 36 30 30 21 20 23 26 30 37 39 40 41 42 44 47 48 46 48 53 54 53 54 54 54 53 54 54 54 54 55 55 54 55 55 56 56 57 57 57 56 56 55 54 52 51 53 54 55
33 33 33 33 31 23 21 24 39 39 40 42 41 42 43 44 49 52 52 53 54 53 54 54 54 53 53 53 54 54 54 54 54 54 54 55 55 56 56 56 57 56 55 55 55 53 54 53 54
34 33 32 28 27 30 28 26 42 42 42 42 39 40 42 43 44 49 52 52 53 53 54 53 54 53 53 53 53 53 54 54 53 53 54 54 54 55 55 55 55 56 56 56 55 54 54 54 53

GFSSGP_sfc_30mbdewp_084.txt.gz
Dewpoint
49 44 34 34 20 12 2 2 6 18 21 26 29 20 24 27 30 26 51 60 62 64 67 68 68 69 71 71 71 72 72 71 71 71 71 71 71 71 71 71 70 70 70 69 69 69 69 69 70
42 37 29 26 8 1 -1 5 7 10 20 23 25 28 29 25 36 44 54 60 62 63 66 67 68 69 70 71 71 72 72 72 71 72 71 71 71 71 70 70 70 70 69 69 69 69 69 69 69
37 30 20 14 11 2 -2 3 6 19 20 22 27 34 31 31 45 46 51 60 63 63 65 66 68 69 70 70 71 71 71 71 71 71 71 71 71 70 70 70 70 70 70 69 68 68 69 69 69
32 25 22 13 4 9 3 2 17 21 17 19 23 23 28 41 46 49 54 61 62 63 65 68 68 69 70 70 70 70 70 71 71 71 71 71 69 68 70 70 69 69 69 68 68 68 69 68 68
31 20 11 9 4 4 11 11 14 20 21 18 12 17 24 38 48 54 56 60 61 64 66 68 68 68 68 69 70 70 70 70 71 71 68 68 67 69 69 68 66 68 67 67 67 68 68 68 67
22 20 9 4 5 10 13 6 14 13 12 15 13 17 22 43 48 54 58 60 62 64 67 67 68 68 67 69 69 70 70 69 69 69 68 68 68 66 65 65 65 66 66 66 66 68 68 67 66
20 16 10 8 5 7 11 8 14 9 5 6 15 19 23 37 49 59 60 61 65 66 67 68 68 68 67 67 69 68 69 69 68 69 68 65 65 64 65 65 64 64 64 65 67 67 67 66 65
22 18 15 13 12 10 10 13 13 11 8 20 24 24 27 37 48 60 62 63 65 67 67 68 68 68 67 67 67 68 68 68 68 68 67 65 64 65 65 65 65 64 64 65 66 67 66 65 64
24 18 15 14 14 14 15 14 15 16 15 14 19 22 28 41 51 59 61 62 62 65 66 68 68 68 68 68 68 68 68 67 67 66 66 64 64 65 65 64 64 64 64 65 66 66 65 64 63
22 18 16 18 19 17 16 15 15 15 16 18 18 19 24 38 43 50 56 57 59 61 64 66 67 68 68 67 68 68 67 67 66 65 65 64 64 64 63 62 63 63 65 65 66 65 64 63 62
24 19 20 20 20 19 17 16 16 16 17 16 16 15 19 28 29 44 49 54 54 58 63 65 67 67 67 66 67 68 68 67 66 65 65 64 63 62 60 59 62 63 62 62 64 64 62 61 60
23 23 21 20 20 20 19 19 18 18 20 20 19 18 20 23 26 28 39 47 53 56 62 65 66 66 66 66 66 67 66 66 66 65 65 63 62 61 59 59 58 61 61 61 64 63 61 60 59
18 15 15 19 19 19 19 18 18 19 21 23 22 23 25 25 23 25 29 37 47 55 60 64 65 65 65 65 65 65 65 65 65 64 64 63 61 60 58 57 60 63 64 63 63 62 61 60 58
19 22 20 21 21 22 22 21 20 21 22 22 23 23 24 23 21 24 27 33 39 51 58 63 63 64 64 64 63 64 64 64 64 64 63 62 60 60 60 60 62 62 62 63 62 61 60 58 56
21 17 16 16 18 20 23 22 21 21 19 21 23 24 24 24 22 24 27 32 41 50 57 62 63 63 63 62 62 64 63 64 64 63 62 62 61 61 61 61 61 62 62 63 62 60 59 56 55
17 15 13 12 22 25 25 16 17 21 22 21 22 23 23 22 20 22 25 35 42 50 56 62 62 62 63 62 61 61 63 63 63 63 63 62 61 62 61 61 62 62 61 62 61 59 56 55 54
14 7 7 15 21 21 22 18 21 23 24 23 23 22 23 23 20 23 27 36 44 51 56 61 62 62 62 61 61 61 62 62 62 63 62 62 61 61 61 61 62 61 60 61 60 59 55 54 53
7 11 13 14 16 19 18 18 19 21 25 25 26 24 24 25 23 23 26 38 46 52 57 60 61 62 61 60 60 60 61 61 61 61 61 61 61 61 62 62 62 61 59 59 59 57 55 54 52
11 9 8 12 14 17 18 18 18 20 20 22 26 26 25 25 25 23 27 37 48 53 57 60 61 61 61 60 59 59 59 60 60 60 60 61 61 61 61 61 61 60 58 58 58 57 55 54 53
14 12 13 15 19 22 22 21 22 22 22 23 24 26 26 26 25 24 26 38 49 53 57 60 60 61 60 58 58 58 58 59 58 58 59 60 60 60 61 61 60 59 58 57 57 57 55 54 53
17 16 15 18 24 26 25 21 20 22 22 22 23 24 25 26 25 24 24 33 49 52 57 59 60 60 59 57 58 58 58 58 58 58 59 60 60 60 60 60 60 59 58 56 56 57 55 53 53
15 22 26 25 25 19 25 18 18 22 23 24 25 25 24 25 25 25 24 28 46 50 56 58 59 59 59 58 57 56 54 54 55 58 59 59 59 60 60 60 59 59 58 56 56 57 55 53 52
23 28 27 28 26 25 23 23 16 22 23 26 25 26 26 26 26 26 27 26 43 51 56 58 58 58 58 58 56 55 54 54 56 59 58 58 57 58 58 59 58 58 58 57 56 56 55 54 53
29 28 27 27 26 24 21 21 17 23 32 34 36 36 36 37 38 36 33 32 42 51 57 58 57 57 58 58 56 55 54 54 55 58 57 57 57 57 56 56 57 57 57 57 57 56 55 54 53
29 24 14 20 23 15 22 23 20 33 37 39 40 41 42 44 44 43 40 42 46 53 57 56 56 56 58 57 55 55 55 54 55 58 57 57 56 56 56 55 55 55 56 56 56 55 54 54 54
25 20 15 12 13 16 24 21 26 36 39 40 40 42 43 44 47 45 42 47 49 53 55 55 56 56 57 56 55 55 54 55 55 56 57 57 57 56 57 56 56 55 56 56 56 55 54 54 55
28 27 28 26 24 22 17 22 33 35 37 39 39 41 42 44 46 49 43 49 51 54 54 55 56 56 56 55 54 55 54 54 55 56 56 56 57 58 57 57 56 55 55 55 55 55 54 54 54
31 30 29 28 20 16 15 19 25 35 38 38 38 39 41 43 45 49 47 50 52 54 55 56 56 55 55 55 55 54 55 54 54 54 55 55 56 57 57 57 57 55 55 54 54 54 55 54 54
32 31 33 32 30 21 15 19 36 38 38 37 37 40 41 41 43 46 51 51 53 53 55 55 54 54 54 55 55 54 55 54 55 54 54 54 55 56 56 57 57 56 54 54 52 51 51 53 54
29 29 30 25 26 29 29 23 38 39 38 38 40 39 39 39 40 43 47 53 53 54 54 54 54 54 55 54 54 54 54 55 54 54 54 55 55 55 56 57 56 56 55 54 52 50 49 49 49

GFSSGP_sfc_30mbdewp_087.txt.gz
Dewpoint
50 42 34 24 18 13 2 3 1 3 11 17 23 16 16 19 24 30 47 57 58 60 64 67 69 70 71 71 71 71 72 72 71 72 72 71 72 71 72 71 71 71 71 70 69 68 68 69 70
35 32 29 19 16 5 4 4 1 5 7 22 26 25 22 23 28 40 47 55 58 59 64 65 69 70 71 71 71 71 72 72 72 71 72 71 72 72 70 70 71 71 70 70 69 68 69 70 69
46 32 18 13 10 9 -0 0 3 4 16 15 17 27 27 25 34 37 51 56 54 54 60 66 68 70 70 71 71 71 72 72 72 72 71 72 72 71 69 69 70 70 70 70 69 69 70 70 69
33 26 19 13 10 7 7 6 4 9 16 16 17 21 29 33 41 42 52 55 54 55 58 68 68 69 70 70 71 71 72 72 71 72 71 71 69 68 68 67 69 69 69 69 68 69 69 69 68
26 19 13 9 8 7 5 6 5 11 15 18 15 13 20 34 38 45 50 54 55 58 60 68 68 69 70 70 70 71 70 71 71 71 71 69 68 67 68 68 68 68 68 67 66 68 69 68 67
25 22 15 11 9 7 7 6 7 6 10 18 17 15 16 31 39 45 50 55 57 59 62 67 68 68 69 69 70 70 70 70 71 70 69 69 67 67 67 66 65 64 66 64 65 67 68 67 67
24 19 14 11 9 8 5 11 11 5 9 7 5 11 19 28 45 51 50 55 59 61 64 66 67 67 68 68 69 69 70 69 69 68 68 67 66 65 66 65 65 65 65 64 64 66 67 67 66
25 22 17 14 11 9 8 9 10 8 8 8 12 11 17 36 42 53 55 56 61 63 65 66 67 67 67 67 68 68 69 69 69 69 67 66 65 65 65 65 65 64 64 64 64 63 65 66 65
26 21 17 14 12 11 13 12 12 13 12 11 13 15 21 34 38 51 54 58 61 63 65 67 67 66 67 67 67 68 68 68 68 68 66 65 63 65 65 65 64 63 63 64 65 65 66 65 64
22 20 16 16 14 15 15 14 14 14 14 15 14 14 18 27 31 39 50 55 59 60 63 66 67 67 68 65 67 66 65 65 65 64 65 63 63 64 64 64 64 63 64 64 65 65 65 64 63
22 19 18 15 17 19 18 17 17 16 15 15 16 17 16 18 27 29 42 50 54 56 60 63 66 67 67 66 66 65 65 66 66 65 64 63 64 65 64 64 64 64 63 62 65 65 64 61 62
20 21 20 18 19 19 19 19 17 16 17 18 18 18 18 16 22 25 30 40 50 53 57 62 64 66 64 62 63 62 67 67 65 65 65 64 64 64 64 62 62 61 63 62 63 64 63 62 61
14 13 15 17 13 15 17 16 16 15 17 17 18 20 20 20 19 22 24 28 39 50 54 61 63 65 63 64 65 65 65 66 66 65 65 65 63 64 62 61 60 60 63 62 61 61 61 61 60
12 14 15 18 15 15 17 17 16 16 16 16 18 20 22 23 22 21 20 25 32 43 51 61 62 64 63 65 65 65 65 66 66 65 64 64 63 62 62 61 60 61 63 62 61 61 61 61 60
18 17 15 14 12 12 13 13 14 15 16 16 17 19 20 22 23 23 19 24 29 35 45 58 63 63 63 63 64 64 65 65 64 64 64 63 62 61 61 60 62 61 62 63 61 61 61 60 58
14 12 8 7 8 12 13 10 14 15 17 18 17 17 19 21 23 24 19 22 27 31 38 55 62 62 63 61 61 63 64 64 63 63 63 63 62 61 60 61 62 63 62 63 61 61 60 58 56
9 5 3 3 11 15 18 15 16 18 19 20 21 21 20 21 23 23 20 21 25 30 40 52 62 62 62 61 61 60 62 63 62 63 63 63 62 62 62 62 63 63 62 62 62 61 60 57 55
3 3 4 6 6 11 17 17 15 15 17 18 18 21 21 22 22 22 19 20 25 32 44 53 62 61 62 62 61 60 60 60 61 62 63 63 62 61 62 61 62 62 62 61 61 60 60 58 54
10 8 5 5 4 8 10 12 13 14 14 15 16 18 23 24 24 25 22 21 28 39 48 54 61 61 62 61 60 58 59 59 60 61 62 62 62 62 62 62 61 62 60 60 60 59 58 57 54
13 12 9 8 10 12 15 18 19 19 19 18 18 20 20 24 24 24 25 23 34 44 50 55 60 61 62 60 59 58 58 57 59 60 61 61 61 62 61 61 61 61 60 60 60 59 57 57 54
12 12 12 11 12 18 18 16 16 19 20 21 21 21 21 23 25 25 25 23 36 45 50 54 58 60 61 59 58 57 57 57 58 59 58 60 61 61 61 61 61 60 60 59 59 59 57 55 53
13 12 13 15 20 15 18 15 15 16 17 22 23 25 25 22 24 26 26 24 31 45 50 54 57 59 60 59 57 56 55 54 56 55 56 58 59 59 60 61 61 60 59 58 59 59 57 55 53
14 17 23 23 22 21 18 15 14 16 20 27 30 32 32 27 25 26 26 26 24 41 49 54 57 58 59 58 57 56 54 52 53 55 57 58 59 59 59 60 60 59 59 58 58 57 58 57 54
19 22 24 23 20 17 17 15 9 18 30 34 36 37 39 39 38 33 32 31 25 35 49 56 57 57 58 58 57 56 54 52 53 56 58 58 58 57 58 58 59 59 58 58 58 57 57 57 54
21 22 18 16 19 16 16 17 15 30 34 36 37 38 40 42 44 45 41 36 32 39 51 57 58 58 57 58 56 56 54 54 53 56 57 57 57 57 56 56 56 58 58 58 58 58 58 58 55
23 22 17 8 9 17 21 17 20 33 37 36 37 38 40 42 45 47 48 42 39 40 51 58 58 57 57 57 56 55 54 53 53 56 57 58 57 57 56 56 56 57 57 58 58 58 58 59 56
19 19 20 15 17 17 17 12 30 32 36 35 35 37 40 42 45 46 49 43 45 48 57 57 57 57 57 57 55 55 54 54 53 56 58 58 57 57 57 56 55 56 57 57 57 56 56 56 56
21 25 24 24 17 13 11 11 23 35 33 32 33 37 39 41 43 44 47 50 49 55 56 56 57 56 57 56 55 55 54 54 54 55 56 57 58 58 57 56 56 55 56 56 56 56 56 55 55
25 28 29 27 23 18 16 23 36 34 33 33 34 38 39 40 42 41 43 46 54 55 55 56 57 56 56 55 54 54 55 55 55 55 56 55 56 56 56 57 56 55 55 55 55 54 54 52 53
30 25 26 24 19 22 25 24 36 34 34 36 36 38 39 39 40 39 40 42 52 55 55 56 56 55 55 54 54 55 55 55 54 54 54 54 54 55 56 56 57 55 55 54 53 53 52 52 52

GFSSGP_sfc_30mbdewp_093.txt.gz
Dewpoint
50 48 46 36 28 20 16 14 14 10 7 23 22 22 20 20 36 43 62 64 67 68 70 70 71 71 71 71 71 71 71 72 72 72 71 71 71 71 71 71 72 72 72 71 70 69 69 70 70
44 42 40 31 20 14 14 17 14 11 19 22 20 17 15 17 45 53 60 63 66 68 69 70 70 71 71 71 71 71 71 72 72 72 72 71 71 71 71 71 71 71 71 70 70 69 70 70 69
40 39 30 25 20 14 13 13 12 12 16 14 11 16 18 24 46 51 61 63 64 65 68 69 70 70 70 70 71 71 71 71 72 72 72 71 71 71 71 70 71 71 70 69 69 69 70 69 69
36 37 34 23 17 15 14 12 11 10 13 13 12 9 26 40 44 54 60 63 63 64 67 69 69 70 70 70 70 71 71 71 71 72 72 71 71 71 70 70 71 70 67 66 67 70 70 69 68
28 31 27 20 17 15 14 13 12 11 9 15 14 14 18 41 53 55 56 61 62 66 67 68 69 70 70 70 70 71 71 72 71 71 71 71 70 70 69 69 68 67 65 66 66 67 68 67 67
25 29 23 22 21 19 16 14 12 11 10 14 15 13 14 34 51 52 53 63 67 67 67 68 69 70 70 70 70 71 71 71 68 69 70 71 70 68 68 68 67 66 66 66 65 65 65 66 66
31 27 24 21 19 18 18 17 14 11 10 6 18 18 18 45 49 53 54 64 67 68 67 68 69 69 69 69 69 70 70 68 68 69 70 71 70 68 67 67 66 65 64 64 63 64 64 64 65
31 32 29 25 20 19 20 19 18 12 9 12 10 10 12 43 50 53 58 61 66 68 67 67 68 68 68 68 69 69 69 68 68 69 70 70 69 68 67 66 66 65 64 63 64 64 62 61 65
30 30 29 28 24 22 22 19 17 17 10 11 10 13 40 43 47 49 56 63 64 68 67 67 67 67 67 67 68 69 69 69 68 68 69 68 68 67 67 66 66 65 64 64 65 65 64 65 65
22 23 27 26 25 23 21 20 18 18 17 15 14 15 26 40 44 45 48 60 63 65 68 68 68 68 67 68 67 68 69 68 68 68 67 67 67 66 65 65 65 65 64 64 64 65 65 65 65
21 20 21 23 26 24 21 20 19 18 18 19 18 16 16 31 37 46 48 54 62 65 67 67 68 68 68 67 67 67 67 68 68 67 66 66 66 66 65 65 65 64 64 64 64 63 64 64 64
19 20 20 19 20 19 19 20 20 17 19 21 20 20 20 20 24 28 41 44 58 64 66 67 66 67 67 66 67 66 67 66 66 66 66 65 65 65 65 64 63 63 64 63 63 63 62 62 64
19 21 21 19 19 19 19 18 18 16 15 14 15 17 18 20 23 24 28 36 35 60 64 67 66 66 66 66 66 66 67 66 66 66 66 65 65 64 65 64 64 63 63 63 63 62 62 61 62
12 13 14 16 17 16 16 15 15 16 16 14 13 15 16 18 20 21 23 27 31 37 63 67 66 65 66 66 65 65 67 66 66 66 65 65 65 64 64 64 63 63 63 63 62 62 61 60 62
20 19 17 17 16 15 16 15 16 17 18 16 15 16 16 18 19 20 21 23 25 26 55 66 66 66 66 66 65 65 66 66 66 66 65 65 64 64 64 63 63 63 63 63 62 62 61 60 60
22 20 16 15 14 13 11 9 13 14 12 11 12 14 14 14 19 21 22 24 27 27 34 64 66 66 66 65 65 65 64 65 65 65 65 65 64 64 63 62 62 64 63 62 61 61 60 59 59
20 17 15 14 14 13 8 5 7 11 11 14 17 17 17 20 17 21 23 24 25 27 29 62 66 65 65 65 64 64 64 64 64 64 64 64 64 63 63 62 62 63 62 61 61 60 59 59 59
16 15 13 10 10 13 13 13 12 12 11 13 12 12 14 15 19 23 23 24 25 25 28 61 64 64 65 65 64 64 63 63 64 64 63 63 63 63 62 62 62 62 62 61 60 59 60 59 60
12 11 9 12 14 12 11 13 13 12 10 9 9 10 11 15 16 17 21 27 26 26 30 60 63 64 64 63 64 63 62 63 63 63 62 60 62 62 61 61 61 62 61 61 60 60 59 59 60
12 11 11 13 14 11 9 10 14 13 13 13 12 12 13 15 16 18 20 25 30 28 35 60 63 64 63 63 63 63 62 61 61 61 61 62 62 62 62 62 62 62 61 61 61 60 58 58 60
14 13 12 11 11 11 11 11 12 13 13 16 16 15 16 16 18 19 21 24 29 32 44 62 63 63 63 63 61 60 60 60 59 59 60 61 62 62 62 62 62 62 61 60 60 60 58 57 59
14 16 15 15 13 12 13 11 16 19 19 19 19 29 24 41 43 35 24 27 29 33 57 62 63 63 62 62 60 59 58 58 59 58 59 60 62 62 62 62 61 61 61 60 60 60 58 56 56
17 19 18 17 14 17 20 19 19 20 18 14 38 40 42 43 45 45 47 49 43 43 61 63 62 62 62 61 60 59 58 57 58 59 59 60 60 61 61 61 61 61 61 60 60 59 58 57 56
19 18 18 17 16 15 17 19 17 16 17 38 40 42 43 44 45 46 48 49 50 50 59 62 61 62 62 60 60 59 58 57 57 57 57 59 61 61 61 61 61 61 60 60 60 60 59 57 57
19 19 15 15 15 15 21 25 23 33 37 41 41 41 43 44 45 46 46 47 49 50 51 60 60 61 61 60 60 59 58 56 56 56 58 58 57 57 57 57 59 60 60 60 60 60 59 58 57
18 19 23 14 14 15 23 25 25 40 40 42 40 41 42 43 44 44 44 46 47 53 55 57 60 61 60 60 59 59 57 56 56 57 57 57 56 56 56 56 56 57 58 59 59 59 59 59 57
18 19 25 26 24 20 19 20 29 38 37 40 39 39 40 41 42 42 42 43 44 48 57 58 59 60 60 59 59 58 57 56 57 57 58 57 57 56 55 55 56 57 58 59 59 59 59 59 57
26 20 21 28 22 19 17 16 31 37 37 41 38 38 39 40 40 39 39 40 41 44 50 58 59 59 59 59 59 58 56 56 58 57 57 57 57 56 56 55 55 56 57 57 58 58 58 58 57
26 25 22 25 25 20 21 26 38 37 38 41 38 38 37 37 37 36 37 38 38 41 44 49 58 57 58 58 58 57 55 57 58 57 57 57 57 56 56 55 55 55 56 57 57 57 57 56 56
30 33 33 28 23 26 25 25 37 37 40 42 37 36 35 35 34 34 35 35 36 37 40 42 47 57 57 58 57 56 55 56 57 57 58 58 58 57 56 56 55 55 56 56 56 55 56 56 56

GFSSGP_sfc_30mbdewp_096.txt.gz
Dewpoint
51 47 44 35 26 20 15 12 14 9 11 16 23 22 18 23 34 36 63 65 67 68 70 71 71 71 71 71 71 71 71 71 71 71 70 71 72 71 72 72 72 72 72 70 69 69 69 69 69
42 42 38 30 23 13 11 18 12 15 15 17 21 18 17 37 51 59 60 66 67 68 70 71 71 71 71 71 71 71 71 72 71 71 71 71 71 71 71 72 72 72 71 70 69 68 70 70 69
40 39 30 26 22 14 9 14 11 14 13 12 12 16 19 40 56 59 62 66 68 68 69 70 71 71 71 70 70 71 71 71 71 71 71 71 71 71 71 71 72 72 70 70 69 69 69 69 68
34 36 34 27 19 18 14 11 14 13 14 12 12 9 31 42 54 59 64 66 66 68 69 70 70 70 71 71 70 70 71 71 71 71 71 71 71 71 70 70 70 71 69 67 68 68 69 68 68
29 33 26 25 22 21 19 18 16 14 13 13 14 11 27 49 57 62 63 62 61 66 68 69 69 70 70 70 71 71 71 71 71 71 71 71 71 71 70 70 70 69 67 67 68 69 68 68 67
23 29 26 22 22 23 21 19 18 17 15 14 14 14 24 53 59 62 63 61 64 65 67 68 69 70 70 70 70 70 71 71 71 71 71 71 70 70 69 69 68 67 66 67 68 68 68 67 67
22 26 25 24 22 21 21 21 19 18 15 14 19 14 29 50 56 59 62 64 66 66 67 68 69 69 69 69 69 70 71 71 69 70 70 70 70 69 69 68 67 66 66 66 67 67 67 66 66
31 31 28 26 24 23 23 22 21 18 17 15 12 13 22 46 53 60 65 66 66 66 66 67 68 68 68 68 69 70 70 68 67 67 68 70 69 68 68 67 67 66 65 65 65 65 65 65 65
31 30 27 28 27 27 29 25 20 21 18 20 13 17 35 47 54 61 64 66 66 66 66 66 67 67 67 68 69 69 68 67 67 67 68 69 69 68 67 67 66 65 65 65 64 64 64 65 65
24 24 28 30 30 28 27 25 23 20 19 19 19 27 43 46 50 55 61 63 65 66 65 66 66 67 67 67 68 68 69 68 67 67 69 69 68 67 66 66 66 64 64 64 64 63 64 65 65
22 22 23 22 24 26 26 25 23 20 19 19 19 20 25 40 43 48 58 62 62 65 66 66 66 66 66 67 67 67 67 67 68 67 67 67 67 66 65 66 66 64 64 64 64 65 65 64 64
21 20 19 20 21 20 20 21 19 20 20 21 21 19 19 22 37 42 47 60 62 65 66 67 66 66 67 67 66 66 66 67 67 67 66 66 66 65 64 64 64 64 64 63 64 64 64 64 63
18 22 23 22 22 21 20 19 18 18 20 18 15 16 17 16 21 24 32 46 61 64 66 67 67 67 67 67 66 66 66 66 66 66 66 65 65 64 64 64 63 63 63 63 63 62 62 62 62
14 15 14 16 17 18 17 16 16 17 18 18 18 17 18 17 17 18 23 25 39 62 66 67 67 67 67 66 66 66 66 66 66 66 66 65 65 64 64 63 63 63 63 63 62 62 61 61 61
24 22 22 20 17 16 15 14 14 17 18 17 17 17 17 19 20 19 19 22 26 39 64 66 66 67 66 66 66 65 66 66 66 65 65 64 65 64 64 63 63 62 63 62 62 62 61 60 62
22 21 20 18 16 15 13 11 12 11 11 11 12 14 15 14 15 16 18 20 23 25 55 66 66 65 66 65 65 65 66 66 65 65 65 64 64 64 64 63 63 63 63 62 62 61 61 60 60
20 18 18 18 17 15 14 12 13 12 13 12 12 11 13 16 17 18 18 19 20 24 43 64 66 65 65 65 65 65 65 65 65 65 64 64 64 63 63 63 62 63 63 62 61 61 60 59 59
16 16 17 15 14 12 13 12 13 15 14 14 13 14 14 12 13 15 19 23 23 24 31 62 65 65 66 65 65 64 64 64 64 64 64 64 64 63 63 62 62 63 61 61 61 60 60 59 59
14 14 13 12 12 13 13 12 11 11 13 13 14 13 12 11 12 15 18 20 22 25 29 61 64 65 65 64 63 63 62 62 63 63 63 63 63 63 62 61 61 62 61 60 60 59 59 59 60
12 11 11 12 13 13 12 11 10 11 12 13 14 15 15 15 15 14 16 18 22 24 27 55 63 65 64 64 63 63 62 62 62 63 63 62 62 62 62 61 61 61 61 60 60 59 58 58 59
15 12 12 13 14 13 11 10 12 14 14 14 16 17 19 22 20 18 16 18 20 26 29 54 62 64 64 64 64 63 61 61 61 62 62 61 61 61 61 61 61 61 61 59 59 59 58 57 59
16 17 15 15 16 14 14 12 15 16 18 20 21 25 43 45 46 46 45 45 48 48 35 49 62 63 64 64 62 61 60 60 60 60 59 60 62 62 61 61 61 61 61 60 59 60 58 57 57
15 17 18 18 17 16 17 15 14 16 17 19 23 43 44 45 46 46 47 48 49 50 52 58 62 63 63 62 62 61 60 59 59 58 58 59 61 62 62 61 61 60 60 60 60 59 59 58 58
16 18 18 18 17 14 16 16 15 15 27 39 42 44 45 45 45 45 45 47 48 49 53 60 62 63 62 61 61 60 59 58 58 58 57 58 58 60 61 60 61 60 60 60 60 60 59 58 57
14 18 16 15 14 13 14 16 16 24 39 40 41 42 43 43 43 42 42 43 45 46 50 56 62 62 62 61 60 59 58 58 58 58 57 58 58 59 59 59 60 60 60 60 60 60 59 58 57
18 15 15 16 16 17 22 19 25 39 40 42 41 43 41 40 40 39 40 41 42 44 48 55 61 61 61 61 60 59 58 57 57 58 58 58 58 58 58 59 59 59 60 60 60 60 60 58 57
23 17 21 19 21 22 22 20 31 38 39 40 39 41 39 37 37 37 38 39 39 42 45 51 60 61 61 60 59 59 58 57 56 57 58 57 57 56 56 56 56 56 56 57 59 59 59 59 58
26 27 22 24 18 15 19 19 25 35 36 39 40 38 36 35 34 35 35 37 38 40 42 46 54 59 60 60 59 58 57 57 57 57 57 56 56 56 55 55 54 55 56 57 58 58 58 58 58
14 24 29 29 23 18 17 22 37 36 38 38 39 35 33 33 32 33 34 35 36 38 39 42 45 54 53 55 59 58 57 57 57 57 57 56 57 56 55 55 54 54 55 56 57 57 57 57 58
16 17 32 26 24 26 24 25 38 38 40 38 34 33 32 31 31 31 32 33 34 35 36 39 41 46 52 53 59 58 58 57 57 57 57 57 56 56 55 55 55 54 55 56 56 56 56 56 56

GFSSGP_sfc_30mbdewp_099.txt.gz
Dewpoint
52 45 42 33 22 20 13 10 15 10 5 11 16 21 20 21 33 27 62 65 66 68 70 71 71 72 71 71 70 70 70 71 71 71 71 71 71 71 72 72 71 72 72 70 69 69 69 69 67
41 42 35 28 14 7 3 17 8 14 13 16 14 20 18 27 52 59 61 66 67 68 70 71 71 71 71 71 71 71 71 71 70 71 71 71 71 71 72 72 72 72 71 70 69 69 69 68 68
40 37 27 26 20 4 -1 10 13 14 15 15 13 14 17 32 52 58 62 66 67 68 70 70 70 71 71 71 71 71 71 70 70 70 71 71 71 71 72 71 71 71 71 70 69 69 69 68 68
35 36 32 23 13 19 13 14 15 15 17 14 13 13 20 48 56 58 66 67 67 68 69 70 70 70 70 70 71 71 71 70 70 70 71 71 71 71 71 70 71 71 71 70 69 69 68 68 68
30 33 22 23 21 22 19 17 19 18 16 17 18 15 17 51 57 63 65 66 66 68 69 70 70 70 70 70 70 71 70 70 70 70 71 71 71 71 71 70 70 70 70 69 70 69 68 68 68
24 30 25 15 18 22 22 21 20 20 19 17 15 15 17 51 60 62 64 64 66 67 68 69 70 70 70 70 70 70 70 70 70 70 70 70 70 70 70 70 70 69 68 69 69 68 68 67 67
17 26 24 24 22 22 21 23 21 20 18 18 19 16 28 56 60 63 62 62 65 66 67 68 69 69 69 69 70 70 70 70 70 70 70 70 70 70 69 69 69 68 67 69 68 68 67 67 67
29 28 27 25 23 23 25 25 23 21 20 21 18 12 23 52 57 64 65 65 65 65 66 67 68 69 69 69 68 69 70 70 70 70 70 70 69 69 69 69 68 67 66 67 68 67 67 67 67
32 28 25 24 25 25 27 28 23 23 21 23 21 20 38 53 62 64 64 64 64 64 65 66 67 67 68 68 69 69 70 70 68 69 68 69 69 68 68 68 67 66 66 66 67 67 66 66 66
24 26 25 29 28 27 29 29 28 26 25 23 22 22 20 45 58 61 62 62 63 63 64 66 66 66 66 67 68 69 69 68 66 66 67 69 68 68 67 67 66 65 65 65 65 65 65 65 65
22 24 24 24 25 24 24 23 24 23 22 23 22 21 20 18 43 55 61 62 62 64 64 65 66 66 66 67 67 67 68 67 66 66 67 68 68 67 66 66 66 64 64 64 64 64 64 64 64
23 22 21 20 21 20 20 21 20 20 21 22 22 23 20 18 19 36 53 60 63 64 64 65 65 65 65 66 66 66 67 66 67 67 67 67 66 66 65 65 65 64 64 63 63 63 63 64 64
16 17 20 23 24 23 23 21 21 20 21 21 21 20 18 20 19 18 27 46 60 63 65 65 65 65 65 65 65 65 65 65 65 66 66 66 66 65 64 64 64 64 64 62 63 63 63 63 64
19 18 17 16 16 16 17 17 17 17 17 18 18 18 19 19 19 19 20 23 45 61 64 66 66 65 65 65 65 65 65 65 65 66 66 65 65 64 64 63 63 63 63 62 62 62 62 62 62
23 22 22 22 21 18 17 14 14 16 16 15 14 14 15 18 20 20 20 20 23 47 62 66 66 66 66 65 65 65 65 65 65 65 65 65 65 64 64 63 63 62 62 62 62 62 61 61 61
21 21 18 19 18 17 14 12 14 15 12 13 14 14 14 13 15 17 18 19 22 26 52 64 66 67 66 65 65 65 65 65 65 65 65 64 64 64 63 63 63 62 62 62 61 61 60 60 61
20 17 18 19 19 18 15 13 14 14 14 14 14 13 14 15 16 17 19 19 19 22 29 61 66 66 66 66 65 65 65 65 65 65 65 64 64 64 64 63 62 62 62 62 62 61 60 60 60
16 16 17 16 16 13 12 11 13 15 15 13 13 13 14 14 15 15 14 15 19 21 25 50 64 65 66 66 65 65 65 65 65 65 64 64 64 64 63 62 62 62 62 62 62 61 61 60 59
16 15 14 13 13 12 11 11 13 14 12 12 12 13 14 15 15 15 15 16 19 22 25 46 61 65 65 65 64 64 63 64 64 65 64 64 64 63 63 62 62 62 61 60 61 60 59 59 59
11 10 10 12 12 12 12 13 14 13 12 12 14 14 15 16 16 19 22 19 18 18 24 38 58 64 65 64 64 63 63 64 64 64 64 64 63 63 62 61 61 61 60 60 60 60 59 59 59
16 14 15 14 15 15 14 14 15 16 17 17 18 18 24 41 46 47 47 46 47 41 31 35 57 63 65 64 64 62 62 61 61 61 62 63 63 63 63 62 61 61 60 59 59 59 59 57 59
17 19 19 17 16 13 16 14 16 17 17 18 23 32 45 45 45 45 45 46 48 49 50 46 55 63 64 64 63 62 61 60 61 61 62 62 62 62 62 61 61 61 60 59 59 60 59 57 56
14 16 17 18 17 17 15 15 14 16 16 23 41 45 44 44 44 44 44 44 46 46 48 52 51 61 63 64 63 62 61 60 60 61 60 61 61 61 61 61 61 61 60 59 59 59 58 58 57
18 15 16 18 17 14 14 14 13 13 24 39 42 41 41 41 42 42 42 43 44 44 46 49 56 60 62 63 63 62 60 59 59 59 59 59 60 61 61 61 61 61 60 59 58 59 59 58 58
22 17 12 11 13 12 18 19 15 36 40 40 41 41 40 38 39 39 39 39 40 42 43 46 52 61 62 63 63 61 60 59 58 59 59 58 58 59 60 60 60 60 59 59 58 59 59 58 58
20 18 13 11 14 15 21 17 19 38 40 39 39 40 38 37 36 37 37 37 38 40 42 43 49 62 62 62 62 61 59 59 58 58 58 58 57 57 59 59 59 59 59 59 59 59 59 59 58
19 21 25 21 20 18 18 21 36 37 37 40 39 38 36 35 33 34 35 35 36 38 41 43 46 61 61 61 60 59 59 59 58 58 58 58 58 58 58 58 58 58 59 59 59 59 59 59 58
19 22 22 25 18 14 16 19 19 33 36 38 38 36 35 33 32 32 32 33 35 37 40 42 44 49 59 60 60 59 58 58 58 58 57 57 57 57 57 56 56 56 56 56 56 56 57 58 58
13 9 19 27 24 22 16 17 35 36 38 39 35 34 33 32 31 30 31 32 33 35 37 40 41 45 49 57 59 58 58 58 58 57 57 57 56 56 56 55 54 54 54 55 55 56 56 57 57
17 22 27 21 17 23 23 23 37 36 36 35 33 33 31 30 30 29 30 31 32 33 35 37 39 42 44 50 57 56 57 58 57 57 57 56 56 56 55 54 54 54 54 55 55 55 56 56 56

GFSSGP_sfc_30mbdewp_102.txt.gz
Dewpoint
50 43 40 31 15 18 7 5 15 8 8 12 16 14 14 20 33 30 61 65 66 67 70 70 70 72 71 70 70 70 71 70 71 72 72 72 72 72 71 71 72 72 71 70 69 70 70 69 68
40 41 33 27 5 0 -3 15 8 12 11 16 15 15 17 19 48 57 61 65 66 68 69 70 71 71 71 70 70 71 71 71 71 71 72 72 72 72 71 71 72 72 71 70 69 69 69 69 68
39 36 25 23 13 -1 -5 8 13 14 16 17 14 14 14 20 50 57 62 66 67 68 69 70 71 71 71 71 71 71 71 71 71 71 71 71 72 72 71 71 72 71 71 70 69 69 69 68 68
36 35 30 17 12 16 8 12 16 16 19 16 15 17 18 31 53 59 65 67 67 68 69 70 71 71 71 71 71 71 70 70 70 71 71 71 71 72 71 71 72 71 71 70 70 70 68 68 68
33 31 18 19 18 19 20 19 19 20 19 19 20 17 17 30 59 63 65 66 66 68 69 70 70 71 71 71 71 71 70 70 70 70 71 71 71 72 71 71 71 70 71 70 70 69 68 68 68
23 30 19 12 14 19 21 22 20 20 21 19 19 18 16 50 60 64 66 66 67 67 69 69 70 70 70 70 70 70 70 70 70 70 70 71 71 71 71 70 71 70 70 70 70 68 68 68 68
16 24 20 22 21 21 21 22 22 21 19 21 20 17 20 42 60 63 64 65 66 67 68 69 69 70 70 69 69 70 70 70 70 70 70 70 70 70 70 70 70 69 69 69 69 67 67 68 68
22 24 24 23 20 19 24 26 25 22 22 23 22 17 21 36 59 64 63 64 65 66 67 67 68 69 69 69 69 69 69 69 69 70 69 69 69 69 69 69 69 68 67 69 68 67 67 67 67
33 24 22 21 23 22 27 27 28 27 28 26 25 22 23 50 63 63 62 63 64 65 65 66 66 67 68 68 69 69 69 69 69 70 69 69 69 69 69 69 68 67 67 68 68 67 67 67 67
28 27 21 26 25 25 28 27 27 26 25 24 25 26 25 48 58 61 61 60 61 62 64 65 65 65 66 67 68 68 69 69 69 69 69 69 68 68 68 68 68 67 66 67 67 67 66 66 65
21 22 25 26 28 26 24 24 24 23 22 23 22 22 23 22 36 56 60 62 62 62 63 64 65 65 66 66 67 66 66 68 67 67 67 68 68 67 67 67 67 66 65 65 66 66 65 65 65
19 22 22 23 25 22 20 20 21 22 22 22 23 23 23 22 22 31 54 58 60 63 63 64 65 65 65 66 65 65 65 67 66 66 65 67 67 66 66 66 66 64 64 63 63 63 63 64 64
19 22 22 21 22 23 23 22 21 20 22 22 21 20 20 21 20 20 27 38 54 61 63 64 65 65 65 65 65 64 65 65 65 65 65 67 67 66 65 65 65 64 63 62 62 62 63 63 64
21 18 19 20 20 18 18 17 19 18 19 18 18 18 19 20 19 19 20 21 27 45 61 65 64 64 65 65 64 64 64 64 64 64 65 66 66 65 65 64 64 63 63 62 62 62 62 63 63
22 22 22 22 21 21 21 16 17 18 17 15 13 14 14 16 17 19 18 19 20 27 45 63 65 65 64 64 64 64 64 63 63 64 65 65 66 65 64 64 63 63 63 62 61 61 62 62 63
19 20 18 20 19 20 16 15 14 16 13 13 14 15 14 14 15 15 18 19 20 22 31 55 65 65 64 64 64 64 64 63 63 64 64 64 65 64 64 64 63 62 62 62 61 61 61 61 61
19 15 18 18 19 19 16 14 14 13 13 14 15 15 14 14 15 16 17 17 18 19 22 32 60 65 65 64 64 63 64 64 64 64 64 64 65 64 64 64 63 62 62 62 61 61 61 60 60
13 17 18 17 16 15 12 11 12 13 14 15 15 14 14 14 15 16 17 17 17 18 20 23 42 64 66 65 65 64 64 64 64 64 64 64 64 64 64 63 63 63 62 61 61 61 61 59 59
16 15 14 13 12 12 10 11 12 13 14 14 14 13 14 16 17 33 45 47 40 26 21 23 30 58 65 65 64 63 63 63 64 64 64 64 64 63 63 63 62 62 61 61 61 61 60 59 60
11 11 12 13 14 12 13 14 15 15 15 15 15 16 17 36 45 46 45 46 47 49 48 39 34 53 64 64 64 64 63 64 64 64 64 64 64 63 63 62 62 62 62 61 61 60 59 59 60
16 14 15 16 17 16 15 14 14 17 16 18 27 35 45 45 44 44 44 45 46 47 47 48 50 52 63 64 64 63 63 63 63 63 63 63 64 63 63 62 62 62 62 60 60 60 59 58 59
14 18 17 18 17 14 16 12 14 16 17 19 42 44 42 41 42 43 42 43 43 45 45 47 49 52 60 64 63 61 61 60 61 62 62 63 64 63 63 62 62 62 61 60 60 60 59 58 57
15 17 17 16 16 17 16 15 15 15 14 36 42 40 40 39 39 39 40 40 41 42 43 45 46 49 55 63 63 62 61 60 60 62 62 62 62 63 62 62 61 61 61 60 60 59 59 59 58
19 17 17 18 18 14 14 14 11 13 31 38 41 41 39 37 36 36 37 38 38 39 41 44 45 47 52 63 63 62 60 60 60 61 61 61 61 61 61 61 61 61 61 60 60 60 59 59 58
17 17 13 11 13 11 19 15 14 30 39 40 40 39 37 36 34 34 34 34 35 36 39 41 43 45 49 61 63 62 61 60 60 60 60 60 60 60 60 60 60 60 61 60 60 59 59 58 57
13 19 16 11 12 15 18 13 17 38 39 38 39 38 36 34 33 33 33 33 33 35 37 40 41 44 48 60 62 62 62 60 59 60 60 59 59 60 60 60 60 60 60 60 59 58 58 58 57
14 20 24 21 21 19 18 19 35 38 38 39 38 36 34 33 32 31 32 32 33 34 36 38 41 43 48 62 60 62 60 59 59 59 59 59 58 58 59 59 59 59 59 58 59 58 58 58 57
13 11 10 22 15 12 14 18 19 33 35 35 35 34 33 31 31 30 30 31 32 34 35 37 40 42 46 52 61 60 59 59 58 58 58 58 58 58 58 58 58 58 58 58 58 58 59 58 59
11 8 14 26 24 17 15 19 35 34 35 35 34 33 32 30 29 29 29 30 31 33 34 35 38 41 44 47 55 59 58 58 58 58 58 58 57 57 57 57 57 56 56 56 56 56 55 56 56
17 23 25 16 13 21 21 18 36 36 35 34 33 32 29 28 28 28 28 29 30 31 32 33 36 38 41 44 50 58 58 58 57 57 57 57 56 56 56 55 55 55 54 54 54 54 55 54 55

GFSSGP_sfc_30mbdewp_105.txt.gz
Dewpoint
46 41 38 30 9 14 3 2 15 12 12 15 17 15 14 16 17 30 59 63 65 66 69 70 71 71 71 70 70 70 72 73 73 72 72 71 71 71 71 72 72 72 72 71 70 70 70 70 69
39 38 33 26 3 -1 -2 12 7 9 11 17 18 16 18 17 31 46 60 65 65 67 69 69 71 71 70 70 70 70 71 72 73 73 72 71 71 71 71 72 72 72 72 71 70 70 70 69 68
39 34 23 19 8 1 -1 5 13 15 18 17 17 17 17 19 37 55 62 66 66 67 68 69 71 71 70 70 70 70 71 71 72 72 72 72 71 71 71 72 72 72 71 70 70 70 71 68 68
37 33 29 12 10 13 5 14 17 16 18 18 18 19 21 28 50 59 65 66 66 67 68 70 71 70 70 70 70 71 70 70 71 72 72 72 72 72 71 72 72 72 71 71 70 70 69 68 68
33 26 15 14 14 16 20 19 20 19 20 20 20 20 21 28 55 64 66 66 66 67 68 70 70 70 70 70 71 70 70 69 70 70 71 72 72 72 71 71 71 72 71 71 71 70 68 68 68
23 28 14 10 12 18 20 23 20 20 21 21 21 23 22 31 49 63 66 66 67 68 69 69 70 70 70 70 70 70 69 69 69 70 70 71 71 71 71 71 71 71 71 71 70 69 68 68 68
18 22 16 16 17 19 20 23 21 20 22 21 23 25 23 27 57 63 65 66 68 68 68 69 70 70 70 70 70 69 69 69 69 70 70 70 71 71 70 70 70 70 70 70 70 68 68 68 68
22 21 21 22 17 16 22 25 25 23 24 27 25 24 25 27 60 64 64 65 66 68 68 68 69 69 70 70 69 69 69 69 69 69 69 70 70 70 70 70 70 70 70 69 69 68 67 68 68
31 19 18 18 21 18 28 27 29 29 28 28 27 24 26 27 59 62 62 63 64 66 66 67 68 68 69 70 69 69 69 69 69 69 69 69 68 69 69 69 69 69 68 69 68 67 67 67 67
29 22 16 24 24 21 26 27 26 25 24 24 25 27 28 26 33 52 60 59 61 63 65 66 66 67 67 68 69 69 69 69 69 68 68 68 68 68 68 68 68 68 67 68 67 67 67 67 66
23 17 25 26 27 28 25 25 25 24 22 23 23 23 25 25 26 32 51 61 59 61 63 65 65 65 65 66 68 68 68 68 68 69 69 68 68 68 68 67 68 68 67 67 67 67 66 66 66
14 22 22 23 24 26 23 23 20 21 22 23 23 25 25 24 26 25 26 49 62 62 61 64 65 64 65 66 66 66 66 66 67 68 69 69 68 68 67 66 68 68 67 66 66 66 66 66 66
20 20 23 23 23 23 22 21 21 22 23 23 23 23 22 22 22 23 24 25 35 57 63 63 64 64 64 65 65 65 65 66 67 67 68 69 67 67 67 67 68 67 67 66 65 66 65 65 65
21 18 18 20 20 20 20 20 21 20 20 20 20 19 20 21 20 21 22 22 26 29 52 64 64 64 65 65 64 64 64 65 66 67 66 67 67 66 66 66 67 67 66 65 65 65 64 64 64
20 19 22 22 22 22 22 19 19 21 21 17 15 15 17 20 20 19 22 22 24 25 28 53 60 62 64 64 65 65 64 65 64 64 65 65 65 66 66 65 66 65 66 65 64 64 64 64 64
18 20 15 20 20 20 19 16 18 16 14 13 15 16 18 18 17 18 21 22 22 24 26 31 54 64 65 65 65 65 64 64 63 64 64 65 65 66 65 65 64 65 64 64 64 63 63 63 63
17 11 17 18 20 19 17 16 16 15 12 14 15 17 18 18 18 20 22 28 33 29 26 27 35 55 64 65 65 65 64 64 64 63 64 64 65 65 65 64 64 64 63 63 63 63 62 62 62
12 15 18 18 17 16 13 11 12 13 14 15 17 18 18 18 18 39 46 47 48 49 47 34 31 38 60 64 65 65 64 64 63 63 64 64 64 64 65 64 65 64 63 63 62 62 62 61 61
14 14 11 12 14 14 16 14 14 15 15 16 17 18 18 26 44 46 46 46 47 48 49 50 49 39 44 60 63 63 62 62 63 63 64 64 64 64 64 65 64 63 63 62 62 61 60 60 61
11 11 13 15 16 15 15 15 16 17 17 17 18 27 43 44 43 44 44 44 45 46 47 48 49 50 47 53 60 61 61 62 63 63 63 64 64 64 64 64 63 62 62 62 62 61 60 60 60
16 17 17 17 17 18 16 13 15 17 17 33 44 44 42 40 40 41 41 42 42 43 44 45 47 49 51 53 59 62 62 63 63 63 63 63 64 64 64 63 63 62 62 61 62 61 60 58 59
17 18 16 16 17 11 16 9 13 15 16 37 42 41 40 39 38 38 39 39 39 40 41 42 44 47 49 53 57 60 59 59 60 62 62 63 63 63 64 63 63 62 62 62 62 61 61 59 58
15 18 18 18 17 17 15 12 12 16 14 33 41 41 40 38 36 36 36 37 38 38 39 41 42 45 48 50 54 60 60 60 60 62 63 63 63 63 63 63 63 63 63 62 61 61 60 60 58
19 19 18 19 18 14 13 11 6 12 20 36 41 40 37 36 35 35 35 35 36 37 37 38 40 42 45 48 52 58 60 60 60 61 62 62 62 62 63 63 63 63 62 62 62 61 60 60 59
20 18 10 10 14 9 16 14 10 25 39 40 39 37 36 35 33 33 33 34 34 35 35 36 38 40 43 46 51 55 61 60 60 60 61 61 61 62 61 63 62 62 62 62 61 60 60 60 59
16 19 12 9 10 13 20 15 15 39 39 39 38 36 35 34 32 32 31 31 33 34 34 35 37 38 42 45 49 57 60 61 60 61 61 60 60 61 61 62 62 62 61 61 61 61 60 60 59
17 20 21 19 22 15 12 18 35 36 35 37 36 35 33 32 30 30 30 30 32 33 34 35 36 38 41 45 48 60 61 61 61 61 61 60 60 60 61 61 61 61 60 60 61 59 59 60 59
15 11 12 24 8 2 2 13 16 30 32 35 34 33 31 29 29 29 29 30 31 32 33 34 35 37 40 43 47 58 61 61 60 60 61 60 61 60 60 60 60 60 60 60 59 59 59 58 58
8 6 16 21 23 7 -1 6 32 33 33 32 32 31 30 29 28 28 28 29 30 31 32 33 34 36 38 41 45 51 60 60 59 59 60 59 59 59 59 59 59 59 59 59 59 58 58 58 58
17 19 21 9 8 19 17 10 36 33 34 33 31 29 29 29 27 27 27 28 28 29 30 31 33 34 37 39 43 54 58 58 58 58 58 58 58 59 58 58 57 58 58 57 57 56 56 56 56

GFSSGP_sfc_30mbdewp_108.txt.gz
Dewpoint
46 33 31 27 15 6 3 1 7 7 9 14 13 13 13 16 16 20 44 59 63 62 68 70 71 70 70 71 71 72 73 73 72 71 71 72 72 72 72 72 72 72 72 71 70 70 70 71 71
32 30 27 18 7 4 3 4 4 3 8 15 17 16 17 18 26 32 47 62 62 63 66 67 71 70 70 70 70 72 73 73 73 72 72 72 72 72 72 72 72 72 72 71 70 70 70 70 69
32 31 21 15 9 6 5 4 7 11 14 15 16 19 18 22 34 43 55 63 63 63 64 67 70 70 70 69 70 71 72 73 73 72 72 72 72 72 72 72 72 72 72 71 70 70 71 68 68
26 21 18 13 12 11 8 9 14 11 11 16 16 16 21 30 39 43 58 63 63 62 64 69 70 70 69 69 69 70 71 72 72 72 72 72 72 72 72 71 72 72 72 71 71 71 71 68 68
25 19 15 16 15 15 15 14 13 12 13 15 15 14 23 26 37 51 63 64 62 63 65 70 70 70 70 70 70 70 70 71 72 72 72 72 72 72 71 71 72 72 72 71 71 71 69 68 68
20 22 15 14 15 16 17 18 17 15 15 16 17 19 22 27 39 51 63 65 64 65 67 69 70 70 70 70 70 69 69 69 70 71 72 72 72 71 71 71 71 71 71 71 71 70 68 68 68
19 20 16 16 15 16 18 21 19 18 18 20 25 21 24 26 34 51 61 66 67 67 68 68 69 69 70 70 70 69 69 69 69 70 71 71 71 71 70 71 71 71 70 70 70 69 68 68 68
20 19 16 17 16 16 18 21 22 22 20 28 26 22 23 27 28 46 57 65 67 68 68 69 69 70 69 69 69 69 68 68 69 69 70 70 70 70 70 70 70 70 70 70 69 68 68 68 68
22 17 15 16 17 18 22 21 24 27 25 26 26 25 26 26 26 31 42 60 65 66 67 68 68 69 69 69 69 69 68 68 68 69 69 69 66 68 68 68 68 69 69 69 69 68 67 68 68
17 13 14 15 17 17 17 19 19 22 19 21 21 23 24 24 25 27 31 42 60 63 66 67 67 68 69 68 69 68 68 67 67 66 66 66 65 66 65 66 68 69 68 68 68 67 67 67 64
17 15 16 17 18 15 15 15 18 20 18 19 19 20 20 23 24 25 28 29 52 60 62 66 67 67 67 67 67 67 69 67 67 67 67 66 65 66 66 65 67 67 67 66 66 66 65 63 62
13 14 14 15 15 16 17 16 14 14 15 17 17 19 21 23 23 22 23 23 38 59 60 64 65 66 67 66 67 66 65 67 67 68 68 66 66 65 65 64 64 65 65 64 64 63 63 62 63
15 9 10 14 14 14 13 13 14 13 15 19 21 20 22 22 20 20 20 21 23 34 51 60 63 65 65 66 64 64 63 64 66 67 66 67 67 66 64 63 63 64 64 64 64 63 63 63 63
12 16 16 18 19 19 18 16 17 18 19 18 19 20 20 19 18 19 20 20 23 24 28 46 60 63 64 64 64 63 63 62 64 65 63 68 65 67 67 64 65 63 64 64 63 63 63 63 63
20 16 15 16 18 16 17 16 15 18 17 19 18 17 16 19 20 18 20 23 23 24 25 31 47 63 63 63 63 62 60 62 61 62 64 64 65 64 67 67 66 65 63 64 64 64 64 63 63
16 15 14 16 19 20 20 14 17 19 17 16 15 16 17 17 19 19 23 24 28 31 32 32 33 40 54 61 63 63 61 61 61 61 62 64 64 64 66 65 66 66 65 65 64 64 63 63 63
15 12 13 14 18 16 17 14 17 17 17 14 13 15 17 18 19 24 37 41 43 44 47 46 42 37 44 55 60 62 63 63 61 61 62 63 64 63 65 65 65 66 65 65 65 64 64 63 63
12 12 13 14 15 17 14 13 12 11 10 11 13 16 18 20 23 40 43 45 46 47 49 49 50 49 41 46 57 59 61 62 63 62 61 62 63 64 65 65 65 65 65 65 64 64 64 63 62
11 11 10 12 12 10 12 13 15 15 15 15 16 17 19 29 39 42 45 45 46 47 48 49 50 51 51 39 48 54 60 61 60 62 63 62 63 65 65 64 65 65 64 64 64 64 62 63 62
12 12 12 13 15 17 15 14 15 15 15 16 17 20 34 37 39 41 42 43 44 45 46 46 47 49 51 50 42 50 55 57 59 60 62 63 63 64 64 65 65 64 63 63 63 63 61 62 62
16 14 13 13 14 15 14 11 8 13 15 19 30 37 38 39 39 39 39 40 41 42 43 44 45 46 48 51 52 49 54 56 57 59 62 63 64 64 64 64 64 64 63 62 62 62 61 60 61
12 14 15 13 11 6 15 3 8 10 15 25 34 37 39 38 38 37 38 38 39 40 41 42 43 45 45 48 51 51 50 53 55 57 58 61 63 64 64 64 65 64 63 63 62 62 62 61 59
13 11 14 14 13 13 11 9 1 11 14 25 35 39 38 37 37 37 36 36 37 39 40 41 42 43 44 46 48 50 52 54 55 55 58 61 62 63 64 64 64 64 63 63 62 62 62 61 59
16 16 16 16 13 10 8 6 -5 8 11 28 38 38 38 37 37 36 36 35 35 37 39 39 40 41 42 44 46 48 51 54 56 55 58 60 62 63 63 63 64 64 63 62 63 63 62 61 60
17 15 11 10 10 4 10 5 1 21 32 35 38 37 37 36 35 34 33 33 34 35 37 37 37 38 40 41 43 46 48 53 55 57 57 59 62 62 62 63 63 62 63 63 63 63 62 61 60
15 14 8 1 -1 3 15 9 16 35 37 38 36 35 35 34 34 32 32 32 33 34 35 35 35 36 37 39 41 44 47 50 56 59 59 59 60 61 62 62 62 62 63 63 63 63 62 61 61
15 16 17 17 14 12 5 10 32 35 37 36 34 33 33 32 31 31 31 31 32 33 34 34 34 35 36 38 40 43 46 50 57 58 60 60 61 61 62 63 62 62 63 63 63 62 61 60 61
16 14 15 17 6 -3 -6 -2 5 29 32 32 32 31 32 31 30 30 30 30 31 32 32 33 34 34 35 37 40 43 45 50 58 59 60 60 61 61 61 62 62 62 62 62 61 61 60 60 60
8 5 8 13 11 2 -5 -5 31 33 33 32 30 30 30 30 30 29 29 29 30 30 31 31 32 33 34 37 39 42 48 59 58 59 61 61 61 61 61 61 61 61 61 61 61 60 60 59 59
11 7 4 5 -1 7 7 6 33 33 32 31 29 30 30 30 30 29 28 28 29 28 29 29 31 32 33 35 39 41 46 52 59 60 60 61 61 61 60 61 60 60 60 60 60 59 59 58 58

GFSSGP_sfc_30mbdewp_111.txt.gz
Dewpoint
47 36 28 24 17 12 5 4 3 3 6 12 11 10 10 13 14 19 42 59 60 57 68 69 70 71 71 71 72 72 72 71 71 72 72 72 72 72 72 72 72 71 72 72 71 71 71 70 72
36 27 26 22 13 7 5 6 4 4 7 9 11 12 13 16 22 32 43 54 61 59 67 67 70 71 71 71 72 72 72 72 72 71 72 72 72 72 72 72 72 72 71 71 70 70 71 72 71
36 28 23 18 15 11 7 7 7 8 9 9 10 14 13 21 30 36 42 54 62 60 64 67 70 70 70 71 72 72 73 72 72 72 72 72 72 72 72 72 72 72 72 71 70 70 71 70 69
26 23 21 17 15 14 12 10 10 9 10 11 10 10 18 29 33 42 53 58 62 60 62 69 70 70 70 70 71 72 72 72 72 72 72 72 72 72 72 71 72 72 72 72 71 71 71 68 68
28 22 18 16 16 15 15 15 14 13 12 13 12 11 16 25 33 45 55 61 61 60 62 70 69 70 70 70 70 71 72 72 72 72 72 72 72 72 71 71 72 72 72 72 71 71 70 68 68
22 22 18 15 14 15 16 18 18 17 16 15 15 15 15 26 30 45 54 63 63 61 64 70 70 69 70 70 70 70 71 71 72 72 71 72 72 72 71 71 71 72 71 71 71 71 69 68 68
22 20 19 18 16 16 17 19 19 18 18 17 18 21 21 24 30 37 51 64 66 64 65 67 69 69 70 69 69 69 69 70 71 71 71 72 71 71 70 71 71 71 71 71 70 70 68 68 68
19 19 18 18 17 16 18 20 20 20 20 25 24 22 22 27 28 29 38 60 66 67 67 68 69 69 68 68 69 68 68 68 69 70 71 71 71 70 70 70 70 70 70 70 70 70 68 68 68
22 16 18 18 17 17 19 20 20 22 24 22 25 25 25 27 25 26 30 48 63 66 66 68 69 69 69 68 68 68 68 68 68 69 70 70 68 69 69 68 68 69 70 70 69 69 68 67 68
21 18 18 18 16 16 18 18 17 19 20 21 22 24 24 24 23 25 27 30 49 63 65 68 69 69 70 67 68 67 67 66 65 65 66 67 65 65 65 66 68 69 69 69 69 68 67 67 64
19 19 19 17 17 17 17 14 15 14 16 19 19 20 20 20 22 24 26 28 31 55 64 66 68 69 69 68 67 67 66 66 66 65 65 65 64 64 64 64 66 67 68 67 67 67 66 64 62
17 17 15 16 16 15 15 16 17 17 16 17 17 18 17 19 22 23 23 24 26 49 60 65 65 67 68 67 66 65 64 67 64 65 67 65 65 64 64 61 64 66 65 65 64 63 64 64 62
13 14 16 12 10 12 12 11 11 12 13 14 14 17 20 20 20 21 20 23 24 28 51 61 64 65 66 66 64 63 63 65 66 66 65 65 62 63 61 61 60 64 65 64 63 64 64 64 63
15 14 15 16 13 17 15 15 14 15 16 17 17 17 19 21 21 20 20 21 24 26 27 37 57 63 64 65 65 62 62 61 63 65 64 66 63 62 62 61 60 58 62 65 63 63 63 64 63
19 18 20 20 18 16 17 16 15 17 16 15 16 16 19 19 19 20 20 23 25 25 26 30 38 53 61 63 63 63 59 61 61 62 64 65 65 65 66 64 60 59 59 65 66 65 63 63 63
18 17 16 19 18 17 17 15 17 17 18 18 18 17 16 17 18 18 22 25 29 35 38 40 38 37 52 60 60 62 61 59 59 59 62 64 63 64 65 66 64 63 61 61 63 63 62 63 62
19 16 17 18 17 17 18 17 17 17 18 17 16 16 16 18 19 22 32 37 41 41 46 46 49 48 41 44 54 60 61 61 60 60 60 63 64 63 64 66 65 66 65 61 63 63 62 62 61
16 15 16 15 15 16 16 16 16 16 15 15 15 14 14 16 19 32 40 42 44 44 47 48 48 50 52 50 46 52 55 58 61 61 61 63 62 64 64 63 65 66 66 65 62 63 64 62 60
17 16 15 13 14 14 15 13 12 12 13 13 13 15 16 18 27 38 42 44 45 46 47 48 48 49 50 49 46 40 51 54 57 60 61 63 63 63 64 63 64 65 64 64 65 64 64 63 62
15 15 14 13 12 12 12 12 13 14 14 15 15 16 18 25 34 38 40 41 43 43 44 45 45 47 48 48 49 49 47 49 52 57 58 62 64 64 64 64 64 65 64 64 64 64 63 63 63
11 13 13 12 13 14 14 11 9 9 10 11 14 19 31 34 35 37 38 39 40 40 42 42 43 44 45 47 48 50 50 49 52 54 55 58 63 64 65 64 65 64 64 63 64 63 62 61 63
14 15 15 14 12 9 8 3 7 10 11 14 22 31 34 36 36 36 37 37 38 39 41 42 43 43 43 45 46 48 49 50 45 51 53 56 61 63 65 65 65 65 64 63 63 63 63 61 59
16 16 14 12 12 10 8 6 8 8 8 18 29 35 36 37 37 37 36 36 36 37 39 41 41 42 42 44 46 46 47 49 51 51 55 56 58 63 63 64 64 65 64 64 63 63 63 62 60
16 14 13 11 9 8 9 8 6 4 6 18 36 35 37 36 36 36 35 35 35 36 38 39 40 40 41 42 43 44 45 47 49 52 53 57 57 61 63 63 64 64 64 63 64 63 63 62 61
15 14 12 9 9 9 9 5 7 18 29 30 35 34 35 35 34 35 34 34 34 35 36 37 38 38 39 40 40 41 43 45 47 49 53 55 57 60 62 62 64 64 64 64 64 63 62 62 61
16 13 13 17 13 14 10 7 16 34 36 35 34 34 32 32 33 32 32 33 33 34 35 36 36 36 37 38 38 39 40 42 45 48 51 54 58 59 62 63 63 64 64 64 64 63 62 62 62
13 16 15 17 19 14 15 16 31 35 33 34 33 30 30 30 31 31 32 32 32 33 34 35 35 35 35 36 37 38 39 41 44 46 50 53 57 59 63 63 63 63 63 63 63 63 63 63 62
12 17 19 13 8 6 5 5 8 33 34 33 31 29 29 28 29 31 31 31 32 32 33 34 34 34 34 35 35 36 38 41 43 46 48 54 58 59 62 63 63 63 63 63 63 63 63 62 62
14 11 11 11 14 13 10 10 32 35 33 31 29 28 27 27 28 30 30 30 30 31 31 31 31 32 32 33 34 36 38 41 45 51 53 57 60 59 61 62 62 62 62 62 62 62 62 61 61
13 12 12 11 9 6 2 1 31 32 29 28 27 27 26 27 29 29 29 30 29 29 30 29 30 30 31 32 33 35 38 40 44 48 58 57 57 59 59 62 61 61 61 61 61 60 61 60 59

GFSSGP_sfc_30mbdewp_114.txt.gz
Dewpoint
45 36 32 28 19 18 13 8 6 3 5 11 10 9 10 11 13 28 53 56 59 67 68 69 70 71 71 72 72 72 71 71 72 72 72 72 71 71 72 72 72 72 72 72 71 71 70 71 71
40 37 26 23 19 13 9 8 5 6 9 10 9 9 10 11 22 33 39 50 60 66 68 68 70 70 71 72 72 72 72 71 72 72 72 72 72 71 72 72 71 71 72 72 71 71 71 71 72
42 37 24 22 18 14 11 9 8 8 9 7 8 12 12 21 33 35 46 56 60 61 68 68 70 71 71 72 72 72 72 72 72 72 72 72 72 72 72 71 71 71 72 72 70 70 71 71 70
31 25 23 20 17 15 14 14 10 9 10 11 10 8 15 30 31 41 49 57 60 60 67 69 69 70 71 72 72 72 72 72 71 71 72 72 72 72 72 71 71 72 71 71 71 71 71 69 69
28 25 20 18 17 16 16 15 14 13 13 14 13 11 12 28 31 44 50 60 59 62 70 69 69 70 71 71 72 72 72 71 71 71 72 72 72 72 72 71 71 72 72 71 72 71 70 68 68
25 23 20 18 16 16 16 18 18 17 17 17 16 15 16 28 30 38 49 61 64 66 70 69 69 69 70 71 71 71 71 71 71 71 71 72 72 71 71 71 71 71 71 71 71 71 70 68 68
22 22 20 19 19 18 19 20 19 19 18 17 19 17 22 25 32 32 39 62 66 65 71 71 69 69 70 70 70 70 71 71 71 71 71 71 71 71 71 70 71 71 71 71 71 71 70 68 68
20 19 19 19 18 18 19 19 20 20 19 25 23 20 22 29 30 29 30 58 66 67 68 72 70 69 69 69 69 69 70 70 71 71 71 71 71 71 70 70 70 70 70 70 70 70 69 68 68
20 19 18 18 19 19 19 18 20 21 21 23 23 24 25 27 26 27 28 40 65 67 68 69 70 70 69 69 68 68 69 69 70 71 71 71 71 70 70 70 69 70 70 70 70 70 69 68 67
20 20 21 21 21 19 17 17 18 17 17 22 22 23 25 24 25 25 26 29 55 65 67 69 70 70 70 68 69 68 68 68 69 69 70 70 70 69 68 68 68 69 69 69 69 69 68 67 66
20 21 22 22 22 20 18 17 18 17 15 16 18 20 21 22 22 24 27 28 30 41 66 70 70 69 69 69 69 67 67 67 67 67 68 68 68 68 67 67 67 69 68 68 68 68 68 66 65
19 20 20 21 20 18 16 16 16 15 18 19 19 19 18 19 20 22 25 25 27 31 63 68 69 69 69 68 69 68 67 67 67 67 67 67 67 66 67 65 67 68 67 67 67 66 66 66 65
22 19 19 18 18 18 16 12 13 14 14 14 14 15 16 20 21 21 23 23 26 29 55 65 67 69 68 68 67 67 66 67 67 67 68 68 66 66 66 64 66 67 67 67 66 65 65 65 65
22 22 21 17 16 17 17 15 17 18 18 16 15 15 16 19 20 22 23 23 27 31 33 56 61 65 68 68 67 66 66 67 67 67 67 68 67 65 65 64 65 66 66 66 66 64 62 64 64
21 19 20 20 20 21 21 19 18 18 19 19 19 18 18 21 22 22 23 24 27 27 37 39 38 46 57 64 65 65 66 65 66 67 67 67 67 65 65 65 63 62 66 65 65 64 64 64 64
20 21 21 21 20 20 19 17 18 19 18 17 18 17 18 18 20 20 23 26 31 40 46 48 49 49 48 48 63 65 64 65 63 65 66 66 67 65 67 65 65 65 62 66 66 65 63 63 64
22 21 22 21 20 19 18 16 18 19 18 18 19 18 18 18 19 22 30 37 41 43 47 48 50 52 54 54 52 52 61 64 63 62 64 65 65 66 65 66 65 66 66 64 65 65 63 63 62
19 17 16 17 17 17 17 17 17 18 17 18 18 18 18 17 18 35 39 43 44 46 47 48 50 52 53 53 54 51 48 60 63 63 62 63 65 64 65 65 66 65 65 65 64 63 64 63 63
20 18 18 18 18 17 16 14 16 17 16 16 18 17 16 16 31 40 43 44 44 45 46 47 48 49 50 50 51 51 49 49 58 61 63 64 64 65 64 65 67 66 64 64 64 64 63 63 63
19 18 17 17 16 16 15 13 13 13 14 13 15 16 16 17 34 39 40 42 42 42 44 44 44 45 47 47 49 50 51 53 53 54 56 61 64 64 65 65 65 66 65 63 64 65 64 63 63
14 14 16 14 13 15 14 12 13 15 16 15 15 16 23 27 36 37 37 39 40 41 42 42 43 44 45 46 46 47 49 51 52 50 50 59 61 64 64 65 64 65 64 63 62 64 63 61 62
14 18 18 16 14 16 16 12 13 13 10 12 14 28 35 36 36 36 37 37 37 39 41 42 43 43 42 44 45 46 47 47 49 51 52 54 57 58 64 63 65 65 65 63 62 63 63 61 60
20 21 23 21 22 22 16 14 13 13 9 11 25 36 36 36 36 36 35 35 36 38 39 41 41 41 41 42 43 44 45 46 47 48 50 52 55 56 61 63 65 64 65 64 62 62 63 62 60
18 16 20 23 19 17 16 13 11 11 15 15 35 35 35 36 36 35 35 35 35 37 38 39 39 39 40 40 41 42 42 42 44 45 47 49 52 55 60 62 64 65 64 64 63 63 63 61 61
18 17 14 21 18 15 13 11 11 35 33 36 36 34 34 33 33 32 32 33 34 35 36 37 37 37 38 38 39 39 39 40 41 42 45 46 49 52 56 60 61 63 64 64 64 64 63 62 61
18 19 22 16 15 16 28 21 25 35 38 37 33 32 31 30 30 31 31 32 33 34 34 36 35 35 36 36 36 37 37 38 39 41 42 45 47 50 53 59 60 63 63 63 63 63 63 63 62
20 19 23 22 25 19 19 26 36 34 33 32 30 30 28 27 28 28 29 31 32 33 33 34 34 33 34 35 35 35 36 37 38 39 41 43 45 48 51 55 60 63 63 63 62 63 62 63 62
15 14 17 28 20 13 12 11 26 33 32 31 30 28 27 26 26 28 29 31 32 32 31 32 33 32 32 33 33 34 35 36 38 40 41 43 44 47 50 53 58 62 63 63 63 62 62 62 62
16 11 13 16 15 19 12 13 34 35 35 34 28 27 25 26 27 28 29 30 31 30 30 31 31 31 30 31 32 33 35 35 38 39 41 44 47 48 49 53 57 61 62 63 63 62 61 61 62
15 16 16 13 12 13 11 12 32 35 33 28 26 26 26 26 27 28 29 30 30 29 29 30 30 30 30 30 31 32 33 34 36 37 40 43 46 54 52 55 58 59 61 62 62 61 61 60 60

GFSSGP_sfc_30mbdewp_117.txt.gz
Dewpoint
42 39 37 32 23 21 18 16 15 9 10 12 11 10 10 10 25 45 54 61 67 68 70 70 71 72 72 72 71 71 71 72 72 72 72 71 70 71 71 71 71 72 72 72 72 71 71 71 70
44 40 38 28 20 18 18 17 7 8 10 10 9 9 11 26 34 42 51 59 68 68 69 70 71 71 72 72 72 71 71 72 72 72 72 71 70 71 71 71 72 72 72 72 71 71 71 71 72
41 41 31 23 21 18 17 14 8 8 8 9 9 12 12 32 34 42 56 59 65 68 68 69 70 71 71 72 72 71 71 71 72 72 72 71 71 71 71 71 71 71 72 72 71 71 71 71 71
34 30 25 21 20 21 19 18 8 9 10 10 11 8 26 34 37 46 58 60 61 67 68 69 70 70 71 72 72 72 71 71 71 72 72 71 71 71 70 70 70 71 72 72 71 71 71 71 69
38 28 22 20 20 20 20 19 13 12 14 14 12 12 22 38 44 48 58 64 64 68 69 69 69 70 71 72 72 72 71 71 71 71 72 71 71 71 70 70 70 71 72 71 71 71 70 68 68
27 26 21 19 20 21 21 20 18 18 18 18 17 16 21 35 35 41 60 63 68 69 69 69 69 69 70 71 72 72 71 71 70 71 71 71 71 71 70 70 70 71 71 71 71 71 70 68 67
23 22 21 21 21 20 21 22 20 20 20 23 22 19 29 30 31 30 61 64 67 70 69 69 69 70 70 70 71 71 71 71 70 71 71 71 71 71 70 70 70 71 71 71 71 71 70 69 67
23 20 18 19 19 19 21 18 20 20 20 24 24 21 25 29 29 28 43 65 65 70 70 69 69 69 69 69 70 70 71 71 71 71 71 71 71 71 70 70 70 71 71 70 70 70 70 68 67
16 18 17 17 18 19 22 18 19 19 21 22 23 24 26 28 26 27 28 60 66 67 71 70 69 68 69 68 69 70 70 70 71 71 70 70 71 71 70 70 70 70 70 70 70 70 69 68 67
16 19 18 20 22 22 22 19 18 18 18 19 23 25 25 25 25 25 26 27 65 66 68 70 69 69 68 68 68 68 69 69 70 71 70 70 70 70 70 69 69 69 69 69 69 69 69 68 67
21 19 21 22 23 24 21 19 18 17 18 19 18 21 22 23 21 22 23 25 26 57 67 70 70 70 69 68 68 68 68 68 69 69 70 70 70 70 68 69 68 68 68 69 69 69 68 67 66
21 21 20 21 22 21 20 20 16 15 17 18 17 18 18 18 20 22 23 24 26 38 67 69 70 69 70 69 68 67 67 67 67 67 69 69 68 69 68 68 68 68 68 68 68 68 68 67 66
23 23 23 23 22 21 18 18 18 17 15 16 16 15 16 17 19 21 22 22 24 30 67 68 69 68 68 68 69 68 67 67 67 67 67 68 66 66 67 67 67 67 68 67 67 67 67 67 66
24 23 22 22 22 22 20 19 19 19 17 18 18 16 16 17 17 20 21 23 27 37 53 49 66 68 68 67 67 68 68 68 67 67 67 68 67 66 66 66 66 67 67 67 66 66 66 66 65
23 21 22 21 21 21 21 19 20 22 21 20 20 20 17 19 19 19 21 25 41 47 50 49 51 52 52 63 65 66 67 67 67 67 67 68 67 66 65 66 65 66 67 66 66 65 64 64 64
22 22 21 22 22 23 21 19 21 22 20 20 20 20 20 21 22 22 24 41 46 47 49 50 52 54 54 54 56 61 66 66 65 65 67 67 68 67 66 64 65 64 66 66 66 65 64 63 63
23 20 21 22 24 24 22 20 21 21 20 19 19 20 20 19 22 28 42 45 47 48 48 49 50 51 51 52 54 55 54 52 60 66 67 66 66 67 66 66 65 65 65 66 65 65 63 62 62
22 21 21 20 20 20 19 18 18 20 19 19 19 19 19 20 33 44 45 46 47 46 46 46 48 48 49 51 52 52 53 52 55 62 65 65 66 65 66 65 65 65 65 65 65 64 64 62 62
22 21 21 21 21 19 18 17 17 17 18 17 19 19 19 36 43 44 44 43 44 44 44 44 45 45 46 46 47 47 49 50 53 54 55 56 65 65 64 66 66 66 64 63 65 64 63 63 63
23 21 19 18 18 17 17 15 15 16 15 15 15 16 18 39 41 42 42 41 43 43 43 43 43 44 45 45 45 47 48 50 50 53 54 55 55 61 65 65 65 65 65 63 64 64 62 63 63
22 20 17 16 19 22 20 19 16 17 16 16 16 16 21 39 38 39 39 40 41 41 42 42 42 42 43 44 44 45 45 47 48 48 49 51 52 55 60 64 63 65 64 64 63 63 63 62 63
17 23 23 22 25 23 23 20 22 21 19 18 18 33 36 37 37 36 36 37 38 39 40 40 40 40 41 41 41 42 43 43 45 45 46 47 48 50 53 57 62 63 63 63 64 64 63 63 61
21 28 20 17 20 26 22 20 19 19 17 23 35 37 37 36 35 35 35 36 37 37 38 39 39 39 39 39 39 39 40 41 42 43 43 44 46 48 49 53 56 62 63 63 63 63 63 63 61
28 23 19 17 21 21 22 20 18 18 23 37 38 36 35 34 33 33 34 35 35 36 36 37 36 37 37 37 37 37 37 37 38 39 40 41 44 46 48 50 53 58 62 63 63 62 62 63 62
28 20 19 17 16 14 18 19 18 36 38 38 36 33 32 32 31 32 33 33 34 34 35 34 35 34 34 34 35 35 35 36 36 38 39 40 41 43 45 48 51 54 60 62 63 63 62 62 62
25 20 21 16 17 19 22 21 30 40 39 39 34 30 29 29 29 31 32 32 32 32 33 33 32 32 33 32 33 33 34 34 35 36 37 38 40 41 43 45 48 50 53 60 61 61 61 62 62
23 18 22 22 24 21 20 29 35 37 37 37 37 36 35 33 33 31 31 31 31 31 31 31 31 31 31 31 31 32 33 33 34 36 36 37 39 40 42 44 46 49 51 56 60 60 59 63 63
20 17 20 27 20 16 17 18 29 34 35 36 34 31 28 28 29 29 31 31 30 30 30 31 31 30 30 30 30 31 32 33 34 35 36 38 39 41 42 43 44 47 50 54 60 58 59 60 62
16 14 14 24 23 18 17 19 33 35 36 32 31 27 27 27 28 29 30 30 30 30 29 30 30 30 29 29 30 31 32 33 34 35 36 38 39 41 42 44 46 47 49 52 59 59 58 58 59
21 18 18 15 13 15 16 16 34 36 35 32 27 27 27 28 28 29 29 29 29 28 28 29 29 30 29 29 30 31 32 32 33 33 35 36 37 39 42 46 48 49 49 52 59 61 59 58 59

GFSSGP_sfc_30mbdewp_120.txt.gz
Dewpoint
49 39 37 31 21 20 18 17 17 11 10 11 11 9 21 23 32 41 56 65 67 69 70 71 71 71 71 71 71 71 71 71 71 71 70 70 70 71 71 72 73 73 73 72 71 71 70 70 70
46 38 35 28 20 17 17 19 15 9 11 11 10 12 16 37 44 49 54 66 67 69 70 71 71 71 71 71 71 71 72 71 71 71 70 70 70 70 70 71 72 72 72 71 71 70 71 71 70
43 41 29 23 21 17 16 12 10 8 8 9 9 12 25 32 39 50 57 66 67 68 69 70 71 71 72 71 70 71 72 71 71 71 71 70 70 70 70 70 71 72 72 71 70 71 71 71 70
37 29 25 21 21 22 21 21 20 9 10 11 10 14 30 37 43 54 62 67 67 67 68 70 70 71 71 72 71 71 71 71 71 71 71 70 70 71 71 71 71 71 73 72 72 72 71 70 69
36 28 23 21 20 21 22 22 18 10 12 11 12 12 35 43 51 59 63 65 67 67 68 69 70 70 71 71 71 71 71 71 71 71 71 70 71 70 70 70 70 71 73 72 71 71 70 69 68
25 26 21 20 20 22 22 22 21 20 20 22 18 17 30 37 43 59 62 66 68 67 68 69 69 70 71 71 71 71 71 70 70 71 71 71 71 70 69 69 70 71 71 71 71 71 69 67 67
23 21 21 21 21 21 21 21 20 20 22 23 23 24 30 30 31 57 61 67 68 69 68 68 69 70 70 71 71 71 71 70 70 70 71 71 70 70 69 69 69 70 71 70 70 70 70 68 67
22 21 18 18 19 20 21 21 19 19 20 25 24 23 26 29 30 46 63 66 69 68 68 68 69 69 69 70 70 71 71 70 70 70 70 70 70 70 69 69 69 70 71 71 70 70 70 69 67
18 15 17 17 18 19 23 22 20 20 18 20 23 24 27 29 29 32 60 65 67 69 68 68 68 68 68 69 70 70 70 70 70 70 70 70 70 70 70 69 69 69 70 70 70 70 69 68 67
15 17 17 19 20 20 22 23 20 19 18 18 20 22 24 24 25 25 27 42 64 67 69 68 68 68 68 68 69 69 70 70 70 70 70 70 70 70 70 69 69 69 70 70 69 69 69 68 67
21 17 19 20 21 22 22 23 22 18 16 17 17 21 20 21 21 22 22 24 43 64 68 70 68 68 67 67 68 68 69 69 69 70 70 69 70 70 70 69 69 69 69 69 69 69 69 68 67
20 22 21 21 22 22 21 22 20 18 18 19 19 18 17 17 19 21 22 23 24 27 45 69 69 69 68 68 67 67 67 68 68 69 69 69 69 69 69 68 68 68 68 68 68 68 68 67 67
24 24 24 24 23 23 23 21 20 20 20 19 18 17 17 18 19 21 22 22 26 49 59 68 69 69 69 68 68 67 66 66 67 67 69 69 69 68 69 68 68 67 68 68 67 67 67 67 66
24 24 23 23 23 22 21 21 21 21 22 21 21 20 19 19 18 19 21 26 43 46 51 60 57 60 66 67 68 68 68 67 66 66 67 68 67 67 67 68 67 67 67 68 67 67 66 66 66
25 24 23 23 23 22 22 21 21 22 22 22 22 22 21 22 21 18 19 45 49 51 52 53 53 54 54 59 61 63 66 67 68 67 67 67 67 66 66 66 66 67 67 67 67 66 66 66 66
25 24 22 23 23 23 22 21 23 24 22 21 22 22 21 21 21 20 41 46 48 50 50 51 52 51 52 53 55 56 57 62 62 64 67 68 67 67 65 65 66 66 67 67 66 66 65 65 65
24 22 21 22 23 23 23 20 22 21 20 20 21 20 19 20 30 42 46 48 48 48 48 47 47 48 48 49 51 51 53 53 54 59 63 65 61 66 67 66 65 65 66 66 66 66 64 64 63
21 22 22 21 22 22 20 19 20 20 18 18 19 20 20 27 42 46 46 45 44 44 45 45 45 46 46 47 47 48 49 49 53 54 57 59 63 62 64 66 66 65 65 65 66 65 65 63 62
24 23 22 23 23 20 19 18 18 18 17 17 17 18 29 42 44 43 43 43 43 43 43 43 43 44 43 44 44 45 45 46 48 51 52 53 57 59 60 65 65 65 64 64 65 65 63 62 62
22 23 23 24 23 21 18 19 21 21 22 22 19 16 37 43 41 42 42 42 42 42 42 41 41 41 41 42 42 44 43 47 46 48 46 49 48 50 53 55 60 64 64 64 63 62 62 63 63
24 22 21 20 22 24 23 22 22 24 23 23 24 23 38 40 39 39 39 39 39 39 39 39 39 39 39 39 40 40 41 42 43 42 43 44 45 47 49 52 55 58 63 63 63 62 61 60 62
22 22 22 24 22 18 24 20 22 22 22 26 35 37 38 36 37 36 36 36 37 38 38 38 38 37 37 38 37 38 38 38 39 40 41 41 43 43 46 49 50 53 56 62 62 63 62 62 59
27 28 27 25 24 21 22 21 20 21 19 33 36 36 36 35 35 36 36 35 35 36 36 35 36 35 35 35 36 36 35 36 37 38 38 39 41 42 44 46 49 51 52 56 62 63 62 61 59
28 25 22 20 19 17 18 20 19 33 36 35 34 33 33 33 34 34 34 33 33 33 34 33 33 33 33 34 34 34 34 34 34 35 36 38 39 40 42 44 46 49 51 54 59 62 62 60 59
28 27 25 19 17 15 22 20 28 36 37 36 34 34 32 32 34 34 33 32 32 31 31 31 31 31 31 32 31 32 33 33 33 34 35 36 37 38 39 41 42 44 46 50 53 57 62 61 60
28 27 25 17 16 16 20 16 29 37 37 38 38 37 36 35 34 34 33 32 30 30 30 30 30 30 30 30 30 31 31 32 33 34 34 35 36 37 38 39 41 42 44 46 49 51 59 62 60
24 22 26 23 24 21 20 29 35 37 36 36 36 36 37 37 36 33 32 30 30 29 30 30 31 30 30 30 30 30 31 31 32 33 34 35 36 37 38 40 41 42 42 44 47 50 51 61 61
24 25 22 26 19 16 18 19 28 34 33 36 35 35 35 35 34 32 31 31 30 29 29 29 30 30 30 29 29 30 30 31 32 32 33 35 35 37 38 39 40 41 43 43 45 48 51 57 59
17 17 16 25 26 19 16 15 32 33 36 35 34 31 28 29 29 29 29 28 28 28 28 28 29 29 28 29 29 29 30 31 32 32 33 34 35 36 36 37 38 40 42 44 46 47 50 52 59
20 18 18 21 19 19 16 14 36 36 36 32 27 27 28 28 28 28 27 27 27 27 28 28 27 27 29 29 29 29 30 30 30 30 31 32 33 34 35 36 37 40 42 46 47 48 49 50 57

GFSSGP_sfc_30mbdewp_126.txt.gz
Dewpoint
49 42 36 28 21 18 14 16 18 17 17 11 12 11 25 33 42 31 56 65 67 69 70 71 71 71 71 71 70 70 71 71 72 73 73 73 73 73 73 73 73 72 72 72 71 71 70 69 67
46 40 30 24 19 14 12 19 17 19 19 18 14 23 36 41 46 53 56 66 67 70 70 70 71 72 71 71 71 71 71 71 71 71 72 73 73 72 72 73 73 73 72 71 71 71 70 70 68
40 34 26 22 20 15 12 17 21 22 21 13 9 27 34 38 46 53 58 67 68 69 70 71 71 71 71 71 71 71 71 71 71 71 71 72 72 72 72 72 72 73 72 71 70 70 71 69 68
36 28 25 21 19 21 20 22 22 20 15 12 11 22 37 44 44 56 65 67 67 68 70 70 70 71 71 71 71 71 71 71 70 71 71 71 72 72 72 72 72 73 72 71 70 71 70 69 69
29 26 21 20 20 21 22 22 21 19 22 23 20 22 35 46 53 63 65 67 65 67 69 69 70 70 70 70 70 71 71 70 70 70 70 71 71 72 71 71 72 72 72 71 71 71 70 69 68
25 25 20 18 20 22 23 23 20 21 20 21 22 26 31 34 46 59 65 66 67 67 68 69 70 70 70 70 70 70 70 70 70 70 70 70 71 71 70 71 71 72 72 71 72 71 70 69 68
23 23 21 21 21 20 21 23 21 21 21 19 23 26 29 30 34 50 62 67 67 67 68 68 69 70 70 70 70 69 70 70 70 70 69 70 70 70 70 70 71 72 72 71 70 70 70 69 68
23 21 19 19 19 19 22 22 22 21 21 21 23 20 23 28 32 44 63 67 67 67 67 67 68 69 70 70 70 70 69 69 70 70 70 69 69 69 69 70 70 71 71 70 70 69 68 67 67
19 19 19 19 18 19 22 21 22 23 21 22 21 22 23 28 28 41 59 64 67 67 67 67 67 68 68 69 69 70 70 69 69 69 70 69 69 69 69 69 69 70 71 70 70 69 69 67 66
15 17 20 20 19 19 21 22 22 22 22 21 21 22 22 21 23 24 28 44 61 65 66 67 67 67 67 68 69 69 70 70 69 69 69 69 69 69 69 68 68 69 70 70 69 69 69 68 67
18 17 18 19 21 24 22 23 23 22 21 21 21 21 22 21 22 21 23 25 35 56 66 67 67 67 67 67 68 68 69 68 69 69 69 69 68 68 69 68 68 68 68 69 69 69 69 68 67
20 21 21 23 24 24 23 23 22 22 23 23 22 22 22 22 22 21 20 20 23 41 62 65 67 66 66 67 67 67 67 67 68 68 68 68 67 67 67 67 68 68 68 68 69 69 68 68 67
25 25 25 25 25 24 24 24 23 22 23 24 23 23 22 23 23 22 21 24 28 30 47 60 64 66 66 66 66 66 66 67 67 67 68 68 67 67 67 67 67 67 68 68 68 67 66 66 66
26 26 26 26 27 27 25 24 22 23 24 23 22 21 21 23 24 24 22 25 46 56 60 59 63 66 68 67 66 66 66 66 66 66 67 67 67 67 67 66 67 66 67 67 67 66 66 65 65
27 26 27 27 27 24 24 21 22 24 23 21 20 20 20 24 40 34 28 46 52 53 51 51 52 54 56 57 58 60 63 63 64 64 63 65 67 67 67 66 66 66 66 67 67 67 67 66 65
27 26 25 24 23 23 23 20 23 24 22 21 20 20 21 45 45 45 46 46 45 45 45 45 46 46 47 50 52 52 55 57 58 61 61 61 62 64 63 64 65 66 67 66 66 66 65 65 65
26 25 23 22 24 24 23 22 24 25 21 21 20 21 30 43 43 42 42 42 42 42 41 41 41 41 43 44 48 47 50 49 53 52 54 53 53 52 58 63 62 65 65 66 66 65 65 64 64
22 21 22 22 23 23 23 23 24 24 22 23 22 22 41 41 40 40 39 39 39 38 38 38 37 37 39 41 43 44 44 46 50 46 49 47 48 48 50 57 60 60 60 61 63 62 63 64 64
24 23 23 23 23 23 23 24 24 23 23 23 24 26 41 39 38 37 37 36 35 36 35 34 35 35 36 37 37 41 39 44 45 42 46 44 43 46 46 47 51 55 58 59 59 58 58 58 63
24 23 22 23 24 24 23 23 25 24 29 36 38 40 38 36 35 35 35 34 34 33 33 34 33 33 33 34 36 37 38 42 43 39 40 40 41 43 43 45 48 50 52 54 59 58 57 58 60
24 22 22 22 24 25 25 24 22 32 34 35 36 36 35 35 34 33 33 32 32 32 32 32 32 32 32 32 33 33 36 36 37 36 37 37 39 40 43 44 46 47 49 50 53 55 59 55 60
21 24 24 24 26 25 24 21 23 33 32 33 33 34 34 34 34 34 33 33 32 32 32 31 31 30 30 31 31 31 32 32 34 34 35 36 38 40 40 41 43 44 47 48 50 53 55 58 56
23 27 27 28 27 24 23 21 25 34 31 31 32 32 32 33 33 32 33 33 32 32 31 31 31 31 30 31 31 31 30 31 32 33 33 35 37 38 39 40 41 41 43 44 45 47 49 53 54
28 28 28 25 24 23 25 23 20 28 31 32 33 34 35 34 34 33 33 32 32 31 30 29 29 30 31 31 31 31 30 30 31 32 32 34 34 36 37 38 39 39 40 41 42 44 45 48 52
29 27 24 22 21 21 21 21 19 34 33 33 33 35 36 37 37 37 37 35 34 33 31 30 29 30 30 30 30 30 30 30 30 30 31 32 33 34 35 36 37 38 38 40 41 42 42 44 46
26 26 23 18 17 17 22 18 19 35 36 35 35 36 37 37 38 36 34 33 31 29 29 29 29 29 30 30 29 29 29 29 30 30 30 31 32 33 34 36 37 37 39 40 41 42 42 43 44
27 26 28 25 23 22 22 23 31 35 35 35 35 36 37 36 36 34 31 30 28 27 28 29 28 28 28 29 30 30 29 29 29 29 30 31 32 32 33 34 35 36 37 38 39 41 42 42 43
25 27 23 24 18 16 18 18 19 31 33 35 35 36 36 37 33 30 28 27 27 27 28 28 28 28 28 29 29 29 30 30 30 29 29 30 30 31 32 32 34 34 36 37 37 39 41 43 43
22 24 24 25 23 18 15 15 25 28 34 34 34 37 36 32 28 27 26 26 26 27 27 26 28 28 28 28 27 28 29 29 30 29 28 29 30 30 31 31 32 33 34 35 36 38 40 41 43
21 22 22 23 20 23 20 18 28 33 35 35 35 33 29 27 26 26 26 26 26 26 26 27 27 27 27 28 28 27 28 28 28 28 28 28 28 28 29 30 31 31 32 32 34 35 36 38 41

GFSSGP_sfc_30mbdewp_129.txt.gz
Dewpoint
47 40 36 28 22 19 15 17 19 20 19 16 15 20 34 38 42 35 56 66 66 67 69 70 71 71 70 70 70 70 72 73 73 72 72 72 72 72 72 72 72 72 72 72 71 71 70 68 67
43 39 30 25 20 14 15 19 19 20 21 22 19 24 37 41 47 53 54 66 67 69 69 70 71 71 71 70 70 70 71 72 73 73 72 72 72 72 72 72 72 72 73 71 70 71 70 69 67
40 32 27 23 20 15 14 19 21 22 19 18 11 31 35 41 48 53 59 67 68 69 69 70 71 71 71 70 70 70 71 71 72 73 73 72 72 72 72 72 72 72 72 70 71 71 71 69 67
35 28 25 22 20 22 21 22 22 21 23 22 19 26 39 45 45 59 65 67 67 68 69 70 71 71 71 71 70 70 71 70 71 72 73 73 73 72 72 72 72 72 72 71 71 71 71 69 68
29 27 22 21 20 22 23 23 22 21 22 22 24 26 37 47 45 63 66 67 66 67 69 70 70 70 71 71 70 70 70 70 70 70 71 72 73 72 72 72 72 72 72 72 71 71 70 68 68
26 26 21 19 21 22 23 24 22 22 22 21 22 27 32 35 40 52 65 66 68 67 69 69 70 70 70 70 70 70 70 70 70 70 71 71 72 72 71 71 72 72 72 72 71 71 69 68 68
25 24 21 21 21 21 22 24 21 21 21 21 23 23 29 28 34 44 63 67 68 68 69 69 70 70 70 70 70 70 70 70 70 69 70 70 71 71 71 71 71 72 71 71 71 70 69 69 68
24 23 21 21 20 21 23 22 23 22 21 23 23 20 20 25 34 43 61 67 68 68 69 69 69 70 70 70 70 69 69 70 69 70 69 69 70 70 70 70 71 71 71 71 71 70 69 69 68
20 21 21 21 20 20 22 22 24 24 22 23 22 22 23 26 27 31 45 58 66 67 68 68 68 69 69 70 70 70 69 69 69 69 69 69 68 68 68 68 69 71 71 71 70 69 69 68 67
18 22 23 21 20 20 23 23 23 23 23 23 24 25 25 24 25 26 26 27 47 61 67 68 68 68 68 68 69 69 70 70 70 69 70 69 69 68 68 68 69 69 70 70 69 69 68 67 65
18 20 19 20 22 24 23 23 24 23 23 24 24 24 25 25 26 26 27 26 28 42 63 67 68 68 68 67 68 69 69 69 69 70 70 69 69 68 68 68 68 68 68 69 69 69 68 68 67
21 21 21 23 24 25 24 24 24 23 25 25 25 25 25 25 25 25 25 26 27 28 45 64 67 68 68 68 68 68 68 68 68 69 70 69 69 68 67 67 68 68 67 67 69 69 69 69 68
26 25 26 27 27 26 26 25 25 24 24 25 24 24 24 29 37 34 29 27 31 48 58 60 64 64 66 68 68 68 67 67 67 68 68 68 68 68 68 67 67 67 68 67 67 67 68 68 68
27 27 27 27 28 28 27 25 24 24 25 23 23 22 32 44 46 46 47 49 50 49 49 51 52 55 62 66 67 67 67 67 67 67 67 68 68 68 68 68 67 67 67 67 68 67 67 67 67
28 27 28 28 27 24 24 21 23 24 26 24 23 22 43 44 44 44 45 44 44 43 43 43 45 47 50 55 57 60 62 63 64 64 64 66 67 68 67 67 66 67 67 66 67 67 66 67 66
28 27 25 25 24 24 23 16 24 25 25 24 24 26 42 42 41 41 40 40 39 39 38 38 39 41 43 48 51 53 54 57 56 57 59 60 60 60 65 66 65 66 66 66 66 66 65 66 66
27 24 24 22 24 24 23 22 24 26 25 24 25 36 40 39 38 37 36 36 35 35 35 36 37 37 39 41 46 46 48 51 48 50 51 49 49 51 55 61 63 63 62 64 64 61 63 64 64
21 23 22 21 22 23 22 23 25 26 25 25 28 40 38 37 35 34 33 33 32 33 34 34 35 35 36 37 40 42 40 44 42 42 46 43 44 46 47 51 54 59 62 62 61 59 60 64 64
24 24 23 23 23 23 24 24 24 26 32 35 37 39 37 35 34 32 32 32 32 32 32 32 33 33 33 33 34 37 36 42 42 39 40 40 41 43 45 46 49 52 56 59 61 61 61 60 62
27 24 23 23 24 24 24 25 27 32 35 37 39 37 36 34 32 31 31 32 32 32 32 32 31 32 32 32 32 34 36 38 41 36 37 38 39 41 42 44 45 47 49 51 54 59 58 59 60
25 24 23 21 24 26 26 23 27 34 35 36 36 35 34 33 32 31 32 32 32 32 32 31 31 31 32 33 32 32 34 34 34 33 35 36 38 40 41 41 43 44 45 47 49 52 55 56 58
23 24 24 23 25 23 26 18 25 32 33 34 34 34 34 33 31 32 33 33 32 31 31 30 32 32 32 33 32 32 31 31 32 33 34 35 37 38 39 40 41 42 42 43 45 46 50 53 55
23 25 26 27 27 26 24 22 23 32 30 32 33 33 33 32 31 33 34 33 33 32 31 30 31 31 31 31 32 31 31 31 32 32 33 34 35 36 37 39 39 40 41 42 43 44 45 47 51
29 28 28 26 25 22 23 21 21 30 31 31 32 33 34 35 34 36 37 36 33 31 31 31 30 30 30 30 30 31 31 31 31 31 32 32 33 34 35 36 36 37 38 39 40 41 42 44 46
28 27 22 21 22 18 21 23 21 30 32 32 33 34 35 37 38 38 35 32 30 29 29 29 29 29 29 29 30 31 30 30 30 30 30 31 31 32 33 34 35 36 37 38 39 40 41 42 42
28 27 20 17 18 16 21 19 19 34 34 34 34 35 37 38 38 35 32 30 29 28 29 28 28 28 28 30 30 30 30 29 30 30 29 30 30 31 32 33 33 34 35 37 38 39 41 42 42
27 25 27 24 24 22 20 22 28 35 35 35 34 36 37 37 36 32 29 28 28 28 28 28 28 28 29 29 29 28 28 29 29 29 29 29 30 30 31 31 32 33 34 35 37 37 38 40 42
27 28 24 26 19 16 16 18 17 30 32 34 35 36 37 36 32 29 27 27 27 27 27 28 29 28 28 29 28 28 27 29 28 29 28 27 28 29 29 30 31 32 33 34 34 36 37 38 40
25 25 25 26 25 21 16 14 25 25 31 33 35 36 36 33 28 27 26 26 27 27 27 27 28 28 28 28 28 27 26 28 26 27 27 27 27 28 28 29 29 31 31 32 32 33 34 37 39
23 24 25 23 21 26 22 19 33 33 32 35 35 36 33 28 26 26 25 26 26 26 27 27 27 27 28 27 27 26 26 26 25 25 26 26 26 27 27 28 29 29 30 31 31 32 33 34 35

GFSSGP_sfc_30mbdewp_132.txt.gz
Dewpoint
45 39 37 30 22 17 12 17 20 18 18 19 23 17 29 38 40 40 58 62 63 64 66 70 70 69 69 69 70 71 72 73 72 72 72 72 72 72 72 72 72 72 72 72 71 70 68 68 68
38 37 32 25 19 11 14 19 18 18 19 21 24 21 31 37 47 52 53 63 65 65 65 68 71 70 70 70 70 71 72 73 73 72 72 72 72 72 72 72 72 72 72 72 71 70 70 68 67
38 30 25 22 18 12 15 20 19 18 18 14 14 29 33 42 50 53 60 63 65 65 66 69 71 71 70 70 70 70 71 72 73 73 72 72 72 72 72 72 71 72 73 71 70 71 71 68 66
32 28 25 20 17 20 20 21 22 19 20 21 19 25 39 48 50 59 61 62 63 66 66 70 71 71 71 70 69 70 70 71 72 72 73 72 72 72 72 72 72 72 73 71 71 71 71 68 67
29 25 22 19 19 21 22 22 22 21 22 21 21 26 37 44 51 56 59 62 64 65 67 69 71 71 71 70 70 70 70 70 71 72 72 73 73 73 72 72 72 72 72 71 72 72 71 69 68
25 25 21 18 20 21 22 23 22 21 21 21 22 27 28 35 36 43 55 60 65 65 68 68 70 70 71 71 70 70 70 69 70 70 72 72 73 72 72 72 72 72 72 72 72 71 70 68 68
27 25 22 22 21 22 22 24 22 22 21 22 22 22 25 25 28 35 52 59 63 67 69 69 69 69 70 70 70 70 70 70 69 69 70 71 72 72 72 71 72 72 72 71 71 71 70 68 68
26 26 24 23 22 22 23 22 23 23 22 25 23 21 22 25 27 29 37 51 57 63 68 69 70 70 69 70 69 69 70 70 69 69 69 70 70 71 71 71 71 71 71 71 71 70 69 69 68
21 25 23 25 24 23 22 22 24 25 23 24 23 25 26 26 27 28 27 30 40 53 62 67 69 69 70 70 69 70 69 69 69 69 69 69 66 66 67 68 68 70 70 70 70 70 69 69 68
23 22 22 23 22 22 23 23 23 23 23 23 25 26 26 26 26 27 26 27 29 31 46 63 68 69 70 68 68 69 68 68 68 68 67 68 66 65 65 65 68 69 69 69 69 69 69 68 62
21 16 22 22 24 24 23 22 23 23 22 25 25 24 24 26 29 29 28 27 29 31 33 50 64 69 69 67 67 67 68 68 69 69 68 67 66 67 66 65 67 67 68 67 68 68 67 64 62
20 22 22 22 24 25 23 24 24 25 26 24 23 24 28 36 38 39 37 40 40 42 53 57 62 65 68 68 65 67 69 68 68 69 69 69 68 68 66 64 65 66 65 65 66 66 66 64 64
23 23 25 26 26 26 26 25 25 26 25 23 23 27 38 39 40 42 43 45 46 48 51 53 56 59 65 64 67 69 69 68 68 68 68 69 68 67 68 67 66 66 66 66 66 66 66 66 66
27 26 26 26 26 26 26 24 25 24 25 24 23 35 40 41 42 42 44 44 45 45 45 47 49 53 57 58 62 66 67 68 68 68 68 68 68 68 67 68 67 67 66 67 67 66 66 67 65
28 25 24 24 25 24 24 21 22 24 25 24 24 35 40 41 41 42 42 41 42 41 42 42 44 47 51 53 56 57 60 61 60 61 59 59 59 59 66 66 66 66 67 67 67 67 66 65 66
25 25 15 23 23 24 22 10 21 24 24 23 23 36 39 40 40 39 39 38 37 38 38 39 40 42 45 48 50 51 55 54 53 55 54 53 53 54 57 62 65 66 66 66 67 66 65 64 65
25 9 20 20 22 21 19 14 21 23 23 24 25 36 37 38 38 37 35 34 34 35 35 36 37 38 40 43 47 45 48 48 47 49 48 48 49 50 51 56 58 58 63 63 63 64 64 64 64
10 17 19 17 18 20 17 15 17 23 23 26 31 36 36 36 36 35 34 33 33 33 34 34 36 37 36 36 40 41 40 43 44 42 43 44 44 46 47 49 51 54 58 61 62 61 62 61 60
23 21 19 18 20 20 18 19 20 23 24 27 33 35 36 34 33 33 32 33 32 33 33 33 34 35 34 33 33 35 35 40 41 38 40 41 42 44 44 45 47 49 50 54 57 59 62 60 59
26 23 19 16 20 22 20 20 21 29 30 34 35 36 36 35 34 32 33 35 35 35 34 34 34 35 35 33 33 34 35 36 37 36 37 39 41 42 42 44 44 46 46 48 51 54 56 59 60
22 20 16 18 19 21 22 19 23 31 34 35 36 36 36 36 34 33 34 35 35 34 34 34 34 34 35 35 34 34 33 33 33 33 34 37 39 40 42 42 43 44 44 44 47 49 51 53 56
17 20 21 20 20 16 25 9 18 26 30 34 35 36 36 35 33 33 34 34 35 35 35 35 35 34 33 34 33 34 33 32 33 33 34 36 37 38 39 41 41 41 42 43 44 44 46 48 50
19 25 24 25 24 22 20 19 14 25 25 29 34 36 36 35 33 35 37 38 35 34 33 34 33 33 32 33 34 33 33 32 32 33 34 34 35 36 37 38 38 39 40 40 42 43 44 45 46
28 26 25 25 22 14 14 16 7 21 23 25 32 34 35 35 36 38 38 35 32 31 32 32 32 31 32 33 33 33 32 32 32 32 32 32 33 34 35 36 36 37 38 39 39 40 41 42 43
26 24 14 12 16 10 20 18 14 22 26 27 30 33 35 37 39 39 36 33 30 31 31 30 31 31 32 32 31 31 31 31 30 31 31 31 31 32 33 34 34 34 35 36 38 39 39 40 41
24 21 16 9 6 9 20 14 14 25 29 32 33 34 36 38 39 37 34 32 30 30 30 30 30 30 30 31 30 30 30 30 29 30 30 30 30 30 31 31 32 34 35 35 36 37 38 39 40
25 23 22 19 17 17 13 13 28 33 33 34 34 35 36 38 38 36 32 30 29 29 30 31 31 30 30 30 30 29 29 29 28 29 29 28 29 29 29 30 31 32 33 34 34 35 36 37 38
25 24 20 22 15 10 8 9 12 28 30 34 34 35 36 38 36 34 31 29 28 29 29 31 30 30 30 30 29 28 28 28 28 28 28 28 28 28 28 29 29 29 30 31 32 33 34 35 36
22 23 24 22 20 16 12 9 21 19 23 29 32 34 35 37 34 31 29 28 28 28 29 29 29 30 30 29 29 29 28 28 28 27 27 27 27 27 27 27 28 28 28 29 30 30 31 32 34
24 22 22 22 18 26 22 17 24 26 27 28 30 34 35 37 31 29 28 28 27 28 27 28 29 29 29 29 29 29 28 28 27 27 27 27 26 27 26 27 27 27 27 27 28 28 31 32 33

GFSSGP_sfc_30mbdewp_135.txt.gz
Dewpoint
47 40 33 30 23 17 12 14 16 14 14 18 22 19 29 39 43 46 57 60 62 61 66 68 70 70 71 71 71 72 71 71 72 72 72 73 72 72 72 72 72 73 72 71 70 69 69 69 69
37 31 31 25 18 13 13 17 16 16 17 16 18 18 29 41 48 52 55 58 62 62 66 66 70 70 70 70 71 72 72 72 72 72 72 72 72 72 72 72 72 73 72 72 71 70 68 68 68
36 31 26 22 18 12 16 18 17 16 13 11 14 24 33 44 52 55 55 56 60 62 64 69 70 70 70 70 70 71 73 73 72 72 72 72 72 72 72 72 72 72 72 72 71 70 71 68 67
29 29 24 19 16 19 19 20 20 17 16 16 16 26 43 47 52 54 54 54 58 62 65 70 71 70 69 69 70 70 71 72 72 72 72 72 72 72 72 71 71 72 73 72 71 71 71 68 66
26 26 21 19 17 19 19 20 20 19 20 19 19 25 37 40 45 48 50 54 56 61 66 70 71 71 70 69 69 70 70 71 72 72 73 72 72 72 72 71 71 72 73 72 71 71 71 70 67
25 25 20 16 18 20 20 22 21 20 19 20 22 28 30 31 34 39 47 51 56 59 65 70 70 71 71 70 70 69 69 69 70 71 72 72 72 72 72 71 71 72 73 72 71 71 71 70 68
27 24 20 19 18 20 22 24 22 21 21 22 21 23 25 26 29 31 43 50 54 58 62 65 69 70 70 70 70 70 69 69 69 69 71 72 72 71 71 71 71 71 71 72 71 71 71 70 68
28 25 21 19 19 21 23 23 23 22 22 25 23 22 24 27 28 30 31 43 46 51 58 63 67 70 70 70 69 70 70 69 69 69 69 70 71 71 71 71 70 70 70 71 71 71 70 69 68
23 19 15 18 23 24 24 22 24 25 23 24 24 26 27 27 27 29 29 30 32 38 51 57 64 66 70 70 70 69 69 69 69 69 69 69 66 66 68 69 68 69 70 70 70 70 70 69 68
16 13 16 24 23 24 24 24 24 24 23 24 25 27 26 27 30 31 29 28 30 32 37 48 60 64 66 66 68 69 69 69 68 67 67 68 65 64 63 64 67 69 69 69 69 69 69 69 65
13 10 21 20 23 24 20 18 19 21 22 24 25 25 26 34 35 36 35 41 42 41 53 57 61 65 64 61 61 62 61 65 67 69 68 67 67 66 65 65 67 67 68 66 67 67 68 66 65
15 13 17 15 21 21 18 20 20 20 23 25 23 25 33 34 36 37 39 42 45 48 51 53 55 61 65 67 67 66 67 69 68 69 69 69 68 68 67 66 66 67 66 66 64 64 65 65 63
16 13 20 20 22 22 22 21 21 21 24 23 23 34 35 35 36 39 40 42 43 45 47 50 52 56 60 63 65 67 69 69 69 69 68 69 69 68 68 68 66 66 66 66 66 66 65 65 65
21 23 20 20 21 21 21 21 22 22 24 24 24 32 37 37 37 38 40 41 42 42 44 46 48 52 56 59 60 62 62 63 64 62 60 60 60 61 64 68 67 67 67 67 66 66 65 66 66
23 20 17 19 20 21 23 18 20 21 24 23 23 31 37 38 38 39 40 39 40 40 42 42 43 48 51 55 56 58 58 57 58 57 56 56 55 57 58 63 67 66 67 66 66 65 66 66 66
21 19 15 12 21 21 20 9 20 22 22 21 20 30 36 37 38 38 38 38 38 39 39 41 41 43 45 49 51 51 53 52 52 52 52 52 53 54 56 59 62 62 62 65 65 64 60 64 64
20 13 12 18 21 18 19 11 16 21 21 19 20 26 35 36 37 38 37 37 37 37 37 38 39 39 40 42 48 46 47 48 48 47 47 47 48 49 50 52 55 56 59 61 63 63 64 63 63
9 15 15 15 16 19 17 15 14 14 15 20 22 28 34 34 35 37 37 37 36 36 36 36 37 38 36 36 38 41 40 43 44 42 43 44 44 45 47 47 50 51 52 55 58 60 61 63 62
19 17 11 10 14 16 18 17 14 15 18 20 22 30 34 34 34 35 36 36 36 37 36 36 37 38 36 34 33 34 35 38 37 38 39 41 42 44 44 44 45 46 47 49 51 53 57 58 61
19 16 16 16 16 16 16 16 16 17 19 25 27 32 34 34 34 35 37 38 37 37 37 37 37 37 37 36 35 36 35 35 36 35 36 38 40 41 41 44 44 45 45 46 47 49 51 53 56
18 16 16 16 15 16 15 14 16 19 26 31 32 32 34 34 34 35 37 37 37 37 37 36 36 36 37 37 36 36 35 35 34 35 34 37 38 39 40 41 42 43 43 43 45 46 47 47 49
12 15 17 18 15 10 21 15 15 20 25 29 31 33 34 35 35 36 36 38 38 38 38 36 34 33 34 36 35 36 34 33 34 34 35 36 37 37 38 39 40 40 41 41 42 42 45 45 45
16 21 20 17 17 17 15 13 13 17 21 25 30 33 35 36 35 35 38 37 35 34 34 34 33 33 34 35 35 35 34 34 33 34 34 34 34 35 36 38 38 38 38 39 40 41 42 42 43
19 22 21 22 20 16 14 11 10 12 19 19 27 32 34 35 35 38 38 36 33 33 34 33 33 33 34 34 34 34 33 33 33 33 32 32 33 33 34 35 35 35 36 37 37 38 39 39 40
22 19 12 9 10 13 14 14 12 16 20 20 25 29 33 35 37 38 37 34 32 32 32 31 32 32 33 33 33 33 32 32 31 31 31 31 31 31 32 32 33 33 34 35 36 36 37 38 38
20 18 14 10 8 7 12 14 13 18 23 25 26 29 33 36 39 39 37 34 31 32 33 32 32 32 32 32 32 32 31 30 30 30 30 29 30 30 30 31 31 32 32 33 34 35 36 36 38
12 16 16 14 17 14 11 10 11 24 25 28 30 31 33 36 39 38 35 33 31 31 33 33 32 32 32 32 32 31 31 30 30 29 29 29 29 29 29 29 30 30 31 31 32 33 33 34 35
18 13 14 21 19 10 9 7 8 26 27 30 31 32 34 37 39 37 34 32 30 31 32 33 33 32 32 32 32 31 30 30 30 29 29 29 29 28 27 27 28 28 29 29 29 30 31 32 33
9 17 16 15 12 12 11 11 14 23 24 28 30 31 33 36 38 36 32 31 30 30 31 31 32 32 32 32 32 31 30 30 29 29 28 28 28 28 27 27 27 27 28 28 28 28 28 30 31
21 22 17 18 19 18 23 25 20 29 24 24 24 28 31 35 37 34 32 31 30 29 28 30 31 31 31 31 31 30 30 29 29 28 28 28 28 27 27 27 27 27 28 27 27 28 27 27 27